GFSGL_sfc_wetblb_063.txt.gz
Wetbulb
39.64 39.20 37.73 36.44 36.24 35.89 35.14 33.30 31.69 30.62 29.76 29.45 28.98 29.09 28.80 28.49 28.51 28.80 28.43 27.86 27.93 27.41 27.19 27.00 26.33 26.78 26.18 25.86 26.02 25.79 25.42 26.07 25.01 25.27 25.06 25.52 24.73 25.00 25.55 26.16 26.31 26.36 27.15
38.71 37.93 36.80 34.66 34.30 33.50 33.60 31.60 30.97 30.14 29.44 28.80 28.46 28.85 28.52 28.34 28.19 28.14 27.12 27.31 27.02 26.41 26.30 25.78 25.10 25.07 24.62 24.38 24.67 24.00 24.58 24.32 24.16 21.46 22.80 23.31 22.93 24.51 24.71 24.33 24.89 26.09 26.15
37.25 36.79 35.88 34.31 33.50 33.21 32.29 30.59 29.95 29.36 28.80 27.99 28.15 28.24 28.01 27.71 27.43 27.83 27.57 26.90 26.79 26.25 25.50 25.30 24.80 24.54 23.05 23.02 23.16 23.08 23.24 22.82 22.63 21.43 21.09 22.45 22.87 23.83 23.86 24.98 24.69 25.16 25.07
35.72 36.15 35.28 33.95 33.64 33.37 31.81 29.81 29.24 28.91 27.95 27.64 28.08 27.98 27.61 27.02 26.60 26.26 26.36 26.08 25.87 25.55 25.47 25.32 24.59 24.12 24.01 22.96 22.26 22.44 22.09 21.50 20.94 20.08 19.99 20.49 21.42 23.17 23.18 22.11 22.58 24.79 23.43
34.98 35.14 35.01 33.77 33.48 32.50 30.24 29.17 28.74 28.06 28.08 27.84 27.35 26.97 26.75 26.47 26.30 26.16 25.84 25.65 25.14 24.52 24.31 24.61 24.62 24.88 25.95 24.84 23.07 22.57 21.82 21.17 20.85 20.07 19.44 20.08 20.51 20.75 20.65 22.63 20.77 22.42 23.13
34.38 33.99 34.17 32.58 31.63 30.76 29.53 28.58 27.65 27.16 26.78 26.51 26.43 26.07 25.63 25.90 29.61 29.98 26.83 25.33 24.81 24.13 23.37 23.67 24.20 24.92 26.17 28.30 28.18 26.68 24.08 21.17 19.29 19.91 20.47 19.63 20.96 21.40 22.03 21.40 20.83 19.27 18.22
33.71 32.98 31.79 31.19 30.47 29.96 29.08 27.91 26.89 26.26 26.07 25.71 25.89 25.76 25.30 25.44 31.23 31.27 29.55 25.49 24.99 24.19 24.11 23.83 23.40 23.66 24.13 24.38 28.46 29.74 29.33 28.76 26.38 21.77 21.29 21.91 21.91 22.60 22.46 21.61 21.04 19.89 19.03
32.62 32.08 31.33 30.25 29.71 29.24 28.09 27.30 27.07 26.50 25.72 25.76 25.41 25.81 25.57 25.50 31.40 32.05 30.58 25.26 25.09 24.56 24.22 23.84 23.79 23.50 23.10 22.45 22.21 22.35 23.10 23.96 26.03 27.29 26.58 25.37 24.66 24.26 23.77 23.62 22.48 20.36 18.17
31.12 30.53 29.96 29.78 28.61 27.80 27.56 26.89 26.81 26.17 25.87 25.98 26.01 25.54 25.44 25.07 31.87 32.60 31.09 27.32 24.97 24.90 24.85 23.64 23.72 23.42 25.05 27.95 22.75 20.82 21.49 21.82 24.54 27.36 28.22 28.61 28.93 29.36 29.21 25.67 18.28 16.35 17.37
29.93 29.83 29.28 29.12 27.91 26.87 28.06 27.26 27.26 26.86 26.23 25.90 25.84 26.02 25.94 25.34 31.32 32.26 32.04 29.82 28.18 27.79 26.09 24.01 25.17 24.37 26.41 28.13 26.05 23.54 20.98 22.64 22.31 22.02 22.11 23.80 26.01 25.45 27.20 25.11 22.00 16.80 14.89
28.21 27.81 27.83 28.39 27.46 27.84 27.52 27.47 26.81 26.09 25.63 25.56 25.26 25.46 25.67 26.27 28.14 32.40 34.10 29.98 29.18 29.16 27.39 26.00 24.51 28.27 29.45 29.28 29.43 26.01 24.43 25.28 23.54 24.09 22.18 21.18 21.38 21.86 20.99 21.40 20.14 18.44 15.18
26.50 26.17 25.99 26.22 27.95 27.36 26.19 26.62 26.89 26.40 25.41 24.77 24.78 24.13 25.29 25.70 27.99 31.77 34.48 34.10 32.21 28.85 28.58 26.71 25.94 27.59 29.14 30.12 29.77 30.17 30.33 29.58 28.21 26.88 23.26 20.80 18.41 18.28 18.80 18.79 18.48 18.32 17.89
25.07 24.63 25.73 26.95 27.42 28.05 27.48 26.81 26.44 26.68 25.76 24.77 24.44 24.62 24.87 24.80 26.22 31.33 32.27 34.14 34.03 32.36 30.09 28.14 27.25 28.28 29.28 29.16 29.78 29.79 28.17 27.11 25.78 23.90 21.19 19.04 18.25 18.96 18.59 16.63 16.53 16.21 15.66
26.18 26.88 27.60 27.54 28.22 28.95 28.93 28.24 27.77 27.08 26.59 25.96 25.76 26.21 27.16 25.88 24.60 24.81 27.70 29.88 31.23 31.76 31.06 28.29 28.33 28.41 27.65 26.86 23.80 24.33 22.91 22.24 20.99 19.98 19.05 18.82 17.16 15.34 14.59 14.98 12.76 11.82 9.75
28.84 27.76 28.69 29.01 29.05 28.54 27.96 28.70 28.27 28.87 29.90 28.89 28.80 29.18 28.02 23.55 23.41 25.22 24.44 23.14 23.22 24.69 15.09 15.69 16.64 17.38 18.58 17.81 16.93 17.17 17.77 17.55 16.87 16.88 15.50 14.57 14.07 13.34 12.18 12.40 10.56 9.20 6.01
24.95 25.85 26.46 26.27 25.84 24.79 23.81 21.92 27.85 28.46 31.13 30.01 28.95 27.28 20.18 24.63 26.99 27.43 27.62 26.54 25.30 25.22 14.04 13.22 12.88 13.39 14.63 13.85 12.44 12.58 13.00 12.31 12.28 11.69 11.05 10.60 9.63 9.30 9.10 9.54 8.14 5.51 3.62
22.47 20.72 20.40 20.76 21.17 20.79 20.48 20.27 20.16 24.35 28.53 26.30 25.89 26.16 24.32 23.85 25.76 26.69 27.37 27.04 26.81 25.69 13.00 10.84 11.38 10.40 8.83 9.55 8.91 8.05 7.25 7.45 6.83 6.89 6.76 6.81 6.96 6.43 5.73 5.21 5.11 4.13 2.72
16.05 16.04 16.85 16.20 16.41 16.33 16.61 16.35 18.91 21.78 21.81 20.19 25.90 24.57 24.97 25.67 25.90 26.04 26.54 19.05 10.96 8.76 5.86 5.65 5.67 4.99 4.43 3.89 3.44 3.12 2.81 2.36 3.30 3.48 2.99 2.34 1.12 1.97 1.81 1.71 1.64 0.55 0.22
15.47 13.47 12.25 11.95 12.19 12.82 13.40 13.19 13.24 14.07 13.40 9.84 11.57 15.95 13.11 24.87 23.26 17.23 13.45 5.43 5.39 2.05 -1.59 -0.05 -1.00 -1.35 -1.36 -1.66 -2.02 -3.25 -4.19 -2.10 -1.44 -2.03 -1.57 -2.83 -2.15 -1.74 -2.20 -2.03 -0.62 -1.29 -0.61
8.57 8.87 7.29 7.06 6.43 6.63 7.23 7.50 7.04 7.63 7.40 6.57 5.99 4.31 2.83 8.05 2.46 -1.87 -4.58 -3.84 -2.00 -2.29 -4.05 -3.10 -6.76 -7.21 -6.36 -6.12 -6.39 -6.91 -5.58 -5.82 -4.49 -4.86 -4.27 -4.47 -3.82 -4.24 -2.36 -5.00 -4.21 -2.68 -2.06
3.73 3.92 3.06 2.53 1.77 1.41 2.38 3.39 3.87 4.24 4.59 3.21 2.32 1.95 6.89 1.46 -0.80 -2.93 -2.97 -3.96 -3.61 -5.91 -6.82 -6.60 -8.29 -8.66 -9.71 -9.77 -9.99 -8.50 -8.83 -5.25 -7.56 -8.05 -7.56 -6.48 -7.21 -5.89 -5.95 -4.29 -3.57 -4.14 -3.37
2.17 0.55 -0.02 -0.59 -0.16 0.08 -1.44 0.03 0.07 -0.02 -1.31 -0.81 -1.52 -0.06 13.33 -0.47 -2.88 -4.74 -6.49 -7.54 -9.07 -9.53 -9.67 -8.71 -9.16 -10.15 -9.57 -9.66 -8.52 -8.14 -8.45 -7.96 -8.08 -9.28 -9.05 -9.70 -8.57 -7.44 -7.91 -5.84 -6.18 -5.08 -4.39
-1.77 -2.48 -4.20 -6.92 -6.02 -5.85 -6.47 -8.06 -6.09 -5.48 -5.87 -5.74 -4.34 -2.72 -4.32 -5.29 -5.47 -5.65 -6.20 -8.82 -10.50 -10.18 -12.98 -14.71 -11.63 -12.11 -12.74 -14.29 -12.07 -8.88 -7.94 -7.63 -6.93 -8.77 -8.49 -8.57 -9.01 -7.87 -7.92 -6.82 -7.41 -8.25 -7.31
-5.51 -5.77 -6.61 -10.45 -9.83 -9.47 -9.01 -9.95 -8.93 -9.64 -8.89 -9.52 -10.39 -9.08 -6.18 -8.92 -9.58 -7.60 -8.81 -10.41 -12.56 -13.99 -16.35 -15.93 -15.37 -13.96 -13.05 -13.52 -13.68 -14.06 -12.85 -10.23 -11.15 -10.48 -10.10 -8.88 -9.01 -9.91 -7.82 -8.21 -8.64 -8.68 -9.66
-10.65 -9.92 -10.42 -11.88 -14.42 -13.80 -13.46 -14.08 -11.24 -15.24 -14.28 -10.69 -11.78 -11.72 -11.44 -11.46 -11.95 -13.29 -13.64 -14.59 -15.77 -14.87 -13.41 -14.94 -15.07 -13.64 -12.58 -12.55 -11.94 -13.09 -14.65 -7.36 -7.21 -12.00 -12.52 -10.60 -10.24 -11.35 -10.91 -9.23 -10.59 -12.23 -13.92
-12.71 -12.53 -16.01 -16.36 -16.89 -18.53 -17.57 -15.06 -15.53 -14.05 -13.88 -12.11 -12.34 -13.34 -13.00 -12.88 -12.49 -13.26 -14.19 -16.49 -15.23 -14.28 -13.57 -12.90 -13.06 -13.54 -12.65 -11.09 -10.66 -8.78 -10.28 -5.24 -8.43 -10.34 -10.22 -10.09 -11.15 -12.04 -13.21 -13.61 -15.71 -15.81 -14.75

GFSGL_sfc_wetblb_066.txt.gz
Wetbulb
46.99 48.12 47.33 46.12 45.68 44.23 41.02 40.20 38.70 36.84 33.24 32.58 31.51 32.23 32.41 32.69 35.65 35.79 35.07 34.32 33.70 32.72 33.31 32.34 30.99 30.80 29.66 29.07 29.83 30.39 30.47 31.75 30.43 29.17 29.67 30.27 29.37 30.00 30.73 31.48 30.81 30.59 31.12
46.50 46.79 46.19 45.20 44.23 42.44 39.90 39.39 37.57 34.35 33.79 31.69 30.92 30.79 30.74 31.21 33.90 34.43 32.83 33.04 32.70 31.23 31.03 30.59 29.23 28.10 27.77 27.97 28.64 28.75 30.07 29.92 29.75 27.42 28.25 28.03 28.49 30.23 29.96 29.19 28.73 29.16 29.68
45.61 45.14 44.70 44.01 42.64 42.03 40.50 38.52 37.38 34.77 32.91 30.04 29.98 29.45 29.43 30.36 30.62 33.67 33.03 32.65 32.43 31.83 30.76 29.98 28.79 27.39 26.24 26.84 27.57 28.54 28.71 26.37 27.75 26.48 26.54 27.34 27.90 29.16 28.56 29.30 29.29 29.69 29.36
44.29 43.78 43.57 42.95 41.37 40.18 37.75 35.81 35.52 34.37 31.77 30.11 29.93 29.38 29.20 29.18 29.44 31.08 31.63 31.89 31.59 31.20 30.63 30.11 27.74 26.73 26.95 26.50 26.58 27.42 26.90 26.07 25.50 24.42 25.19 25.87 27.26 28.25 26.89 25.45 26.19 29.89 28.90
42.83 42.73 42.57 41.71 40.85 38.92 35.53 33.89 33.52 32.56 30.85 29.67 28.87 28.56 28.60 28.17 28.47 28.31 30.28 30.44 30.37 29.59 29.18 28.13 27.32 27.77 28.24 28.42 26.95 27.45 26.47 26.01 25.24 24.75 24.68 25.65 26.01 25.31 24.47 26.94 25.30 26.82 28.13
41.73 40.97 41.42 39.79 37.59 35.92 33.57 31.89 30.96 30.27 29.52 28.35 27.90 27.62 27.26 27.18 31.41 31.66 30.81 29.69 28.89 28.41 27.23 26.57 27.05 26.90 27.19 29.20 29.29 29.26 28.12 26.99 26.41 26.43 25.94 24.24 24.81 25.65 26.19 25.49 24.90 23.66 22.03
39.29 38.98 38.38 36.98 35.49 34.42 32.45 30.57 29.39 29.08 28.97 27.49 27.55 27.25 26.87 27.25 31.90 32.11 31.44 29.21 28.68 28.56 27.23 26.51 25.59 25.57 26.90 27.17 29.71 30.27 29.51 29.32 29.32 26.67 24.25 25.01 25.08 27.05 27.18 25.22 24.62 24.18 23.69
37.00 37.11 36.06 35.19 34.65 33.49 31.41 30.43 29.66 29.08 27.85 27.68 27.10 27.08 27.23 26.85 32.53 32.35 30.26 28.67 28.72 27.47 26.80 28.35 28.11 26.12 25.68 25.19 25.10 26.25 27.92 28.76 29.17 29.41 28.44 27.85 29.09 29.36 27.79 26.26 25.55 25.73 25.45
35.37 35.87 34.89 34.42 33.42 32.19 30.76 30.16 29.54 28.37 27.49 28.20 27.44 26.83 26.94 26.64 32.89 32.39 29.65 27.83 26.75 26.06 27.56 29.06 28.35 26.87 26.90 28.54 25.43 24.93 25.17 25.43 27.37 29.45 30.32 30.63 30.59 30.54 30.01 28.26 26.97 23.97 21.53
34.13 34.90 34.49 33.61 32.48 31.22 31.57 30.63 30.48 29.31 27.65 26.82 26.79 27.31 27.12 27.78 32.64 32.90 30.60 28.03 27.16 26.44 27.55 28.59 27.83 27.67 28.25 29.15 27.99 27.17 24.10 25.19 25.92 25.85 25.05 26.49 27.96 27.56 28.59 28.02 26.51 23.09 22.60
33.18 32.72 32.20 32.81 31.71 31.95 31.42 30.88 29.62 28.22 26.47 25.92 25.73 26.53 26.98 28.17 31.41 33.36 33.06 29.82 28.96 29.94 31.10 29.11 28.26 31.26 31.41 30.96 30.53 28.31 27.62 28.72 27.75 27.32 25.98 25.52 25.30 25.16 25.48 25.61 25.54 23.71 21.52
30.86 30.52 30.60 30.87 31.04 30.88 29.74 29.58 28.87 26.88 25.83 25.38 25.32 25.35 26.65 27.46 30.80 33.01 33.68 32.76 33.10 32.64 31.92 31.00 30.14 30.84 32.28 33.17 32.74 31.69 30.90 30.49 30.08 29.18 28.12 26.81 25.65 24.32 23.62 23.02 22.67 22.09 21.93
28.49 27.52 28.81 30.09 30.14 30.04 29.35 28.44 28.57 28.25 26.67 25.88 26.01 25.88 25.53 26.14 27.67 32.18 33.50 34.10 34.02 32.58 32.27 32.06 31.16 31.40 31.56 31.70 31.26 31.08 29.81 29.71 28.75 27.28 25.91 25.07 22.74 22.14 20.82 20.27 20.15 19.35 18.26
27.51 28.03 28.53 28.84 29.34 30.17 30.27 29.78 29.13 28.06 27.47 26.78 26.63 26.46 26.12 25.67 26.39 28.53 30.67 32.41 33.13 33.38 32.90 32.53 32.08 30.83 29.72 29.24 27.70 29.04 27.87 27.02 25.30 24.01 22.70 21.76 21.02 19.43 18.32 18.10 15.77 15.26 13.85
29.39 29.10 29.74 30.03 30.07 29.41 29.37 29.75 29.25 30.30 30.21 28.40 28.60 28.69 27.61 26.47 27.16 29.50 30.30 30.43 31.27 31.62 26.99 25.50 25.96 26.41 25.29 24.46 23.17 23.33 23.23 22.19 21.00 20.95 18.94 17.87 17.31 16.49 15.05 15.34 13.87 12.43 9.63
27.97 28.81 29.69 29.76 29.66 28.59 28.03 27.91 31.08 30.94 32.63 32.68 32.34 32.14 30.09 31.22 31.44 31.38 31.27 31.43 30.89 29.95 22.70 23.90 23.64 24.13 23.26 22.66 21.47 19.85 18.80 16.06 17.01 16.02 15.02 13.70 12.42 11.82 11.54 11.72 11.41 9.61 7.48
28.98 27.36 26.15 26.75 26.62 26.14 26.12 26.65 25.44 29.00 28.95 28.74 29.40 29.27 27.65 27.48 28.61 29.37 29.68 29.85 28.77 27.40 23.04 21.40 22.68 21.57 20.60 18.57 17.47 16.29 15.23 14.03 10.85 11.19 10.73 10.36 10.13 9.57 7.78 8.12 8.14 7.13 6.02
24.56 24.67 26.97 26.62 26.51 26.10 25.78 25.99 27.25 26.55 25.05 24.96 26.21 25.77 25.60 26.65 26.64 27.49 28.60 26.22 21.16 18.93 19.47 19.20 18.47 17.14 16.01 15.10 13.26 11.75 10.50 9.31 8.94 8.92 8.38 8.02 6.64 6.25 5.88 5.86 5.92 4.35 4.20
21.28 20.11 21.23 21.75 22.83 23.16 23.32 23.68 24.81 25.53 23.74 21.22 21.85 21.79 21.41 25.28 22.46 21.97 21.10 20.92 19.29 16.24 13.50 13.92 14.43 13.24 11.82 10.55 9.11 7.55 6.61 6.65 6.67 5.95 5.79 4.37 4.65 4.20 3.90 3.77 3.56 1.60 1.05
15.74 15.11 17.53 18.71 19.08 19.43 19.54 20.04 20.07 20.30 19.67 19.70 21.48 20.04 17.03 18.54 18.98 14.86 11.02 12.10 13.33 13.28 11.27 10.81 7.77 6.68 6.65 5.77 5.17 4.59 3.83 2.37 3.34 3.21 3.81 3.82 3.78 2.97 2.68 1.83 1.44 1.37 1.96
13.42 12.45 12.57 15.58 16.11 16.90 17.12 17.93 17.58 17.90 17.54 16.82 16.58 12.29 11.90 16.23 14.04 12.17 9.86 8.59 8.73 7.76 6.35 6.33 4.15 3.44 2.85 2.46 2.52 2.53 2.22 4.39 2.95 2.10 1.95 1.93 1.32 0.53 1.33 1.64 1.36 0.68 -0.06
10.55 10.23 10.56 10.39 11.35 10.78 10.50 11.41 11.93 12.78 12.30 11.82 9.25 9.98 14.93 10.43 9.52 8.57 7.28 6.07 4.50 3.93 4.05 4.02 3.26 2.50 1.51 0.98 1.46 2.44 1.77 1.49 1.94 0.56 0.86 -0.84 -0.92 0.16 -0.80 -0.37 -0.55 -0.25 -0.61
9.46 8.66 7.68 6.78 6.67 6.00 7.35 7.44 8.28 8.70 8.44 8.40 8.01 8.05 7.41 7.13 5.59 5.17 4.56 3.49 1.56 0.79 0.17 -1.10 0.23 -0.41 -0.54 -2.29 0.29 1.56 1.56 1.26 1.55 1.49 -0.09 -0.55 -1.14 -0.65 -0.93 -1.06 -1.09 -2.88 -2.42
6.36 6.11 4.99 4.19 3.99 4.90 5.06 4.12 3.42 0.99 4.31 4.65 4.51 4.13 4.44 3.71 2.82 2.25 1.74 1.92 0.14 -0.40 -1.74 -3.01 -3.33 -2.52 -1.49 -2.00 -1.34 -1.72 -1.88 -1.25 0.09 -1.30 -2.25 -1.45 -1.51 -1.90 -2.71 -2.33 -2.51 -3.43 -3.55
3.30 2.99 2.36 2.28 2.15 1.91 3.01 2.53 2.68 1.95 2.28 2.40 2.65 1.64 1.86 1.06 0.57 0.22 0.12 -1.11 -2.60 -2.41 -2.45 -3.83 -4.10 -3.71 -4.41 -5.65 -4.35 -3.58 -3.23 -2.37 -2.05 -4.17 -3.93 -3.87 -3.59 -3.43 -4.15 -3.84 -3.43 -3.35 -5.05
1.47 1.32 0.87 1.33 1.24 0.78 1.06 1.34 1.52 0.97 0.62 1.32 0.86 0.56 0.07 -0.12 -0.33 -0.40 -0.92 -2.62 -3.73 -3.79 -3.73 -3.04 -3.20 -4.84 -4.56 -3.92 -4.00 -3.57 -4.58 -2.24 -5.32 -7.04 -3.64 -3.52 -4.21 -4.42 -4.41 -5.85 -6.76 -6.45 -6.71

GFSGL_sfc_wetblb_069.txt.gz
Wetbulb
50.14 50.60 50.29 50.75 51.35 51.20 50.33 49.64 48.93 47.68 43.64 39.90 37.38 36.69 36.33 35.98 36.72 37.75 37.03 36.02 36.39 35.08 34.82 33.65 32.58 32.52 31.58 31.19 31.21 31.09 30.49 31.45 30.43 28.43 30.61 30.85 29.60 29.30 28.97 28.36 30.61 29.72 30.32
49.62 49.08 49.19 49.71 49.79 48.99 49.17 48.01 46.25 41.77 37.97 38.50 36.00 34.67 33.71 33.78 34.48 35.24 34.76 34.38 34.16 31.99 32.55 31.84 30.46 30.69 29.83 29.76 30.29 29.47 29.74 29.50 29.68 27.91 27.88 27.33 26.85 29.57 29.62 28.63 28.29 29.03 28.84
48.82 48.02 48.06 48.21 47.47 46.76 46.25 45.14 41.57 38.82 35.73 33.52 33.57 32.54 31.84 32.18 32.06 33.07 32.91 32.72 32.79 32.35 31.47 30.27 29.11 29.26 27.72 28.67 28.59 28.33 28.38 26.54 27.74 27.34 26.71 27.22 27.21 28.23 27.52 28.20 28.36 28.75 29.48
47.94 47.04 46.45 46.79 46.77 46.01 45.77 43.25 39.28 37.55 33.96 32.80 32.43 32.03 31.04 31.22 30.68 30.20 30.33 31.47 31.24 31.28 31.01 30.31 28.98 28.26 28.20 28.13 27.16 27.48 27.33 26.45 26.37 25.55 25.41 25.62 26.26 27.67 26.41 24.78 25.33 27.88 27.47
46.62 45.81 45.60 46.13 46.20 45.27 43.82 41.30 38.32 35.96 33.77 32.21 31.04 30.32 29.76 29.21 29.37 29.34 29.58 30.03 29.72 29.17 29.17 28.96 28.68 29.44 31.23 29.54 27.03 26.78 26.84 26.78 26.36 25.33 24.30 24.72 24.96 25.34 24.46 26.05 24.74 25.72 26.63
45.52 44.23 44.35 43.91 42.49 40.95 39.02 36.42 34.83 33.05 31.93 30.55 29.55 28.95 28.25 28.25 32.12 33.68 30.82 29.29 28.59 28.07 27.32 27.32 27.87 28.94 30.34 30.81 30.14 30.50 29.09 27.95 27.09 26.73 25.23 24.46 25.25 25.40 25.75 24.94 24.39 23.30 21.63
42.68 41.16 39.88 39.36 38.21 37.11 35.53 33.54 32.51 31.29 30.57 29.20 29.10 28.76 28.09 28.04 32.59 33.36 32.45 28.54 28.05 27.61 27.32 27.25 27.92 28.23 27.75 27.81 30.17 30.33 30.31 30.96 30.63 27.77 25.84 26.06 25.15 25.90 26.15 25.50 25.11 24.10 23.17
39.76 38.80 37.81 37.60 36.50 35.65 33.83 32.51 32.34 31.29 29.60 29.00 28.60 28.62 28.08 27.65 32.79 33.59 31.87 28.19 28.02 27.91 27.77 27.86 28.45 26.66 26.50 26.19 26.70 27.55 27.91 28.11 28.28 28.38 27.73 26.61 26.68 27.59 28.10 27.19 25.62 24.46 24.39
37.43 37.16 36.78 36.48 35.15 34.13 32.62 32.15 32.03 30.61 29.24 29.14 29.22 28.63 28.13 27.40 32.71 33.58 30.21 28.23 27.76 27.20 28.02 29.75 30.25 28.24 29.42 30.42 25.79 24.75 25.60 26.26 29.88 31.77 31.97 32.23 32.42 32.40 31.15 27.80 25.30 24.76 23.06
35.58 36.08 36.37 35.34 34.16 33.18 32.72 31.80 31.60 31.00 29.56 28.19 28.40 28.51 28.21 27.73 32.57 32.98 29.77 28.18 26.73 26.15 28.73 30.09 30.26 30.60 32.05 32.33 27.55 25.88 24.39 25.03 25.50 25.46 25.02 26.88 28.44 27.63 29.54 27.05 25.58 22.95 22.40
33.73 33.63 33.23 33.65 32.97 33.11 32.53 31.89 30.76 28.93 27.54 27.19 26.68 27.39 27.27 29.75 31.61 33.35 30.96 28.69 27.69 26.53 26.30 28.24 29.66 33.25 32.97 33.09 32.15 28.67 27.80 29.16 28.69 26.99 25.92 25.46 25.22 24.84 24.62 24.74 25.36 24.00 21.34
31.50 31.26 31.25 31.66 31.90 31.90 30.74 30.12 29.93 27.99 26.39 25.84 25.30 25.35 26.62 28.59 31.39 33.44 32.98 30.62 30.76 27.84 27.37 28.49 30.39 32.77 34.14 33.88 32.99 33.17 32.54 31.21 28.95 27.33 26.64 26.34 26.25 26.35 24.78 23.49 22.87 22.38 21.96
28.99 28.09 29.64 30.25 30.80 30.69 29.70 28.60 27.78 27.62 26.31 25.23 24.64 24.48 24.88 26.79 29.65 33.58 34.33 33.31 32.08 30.51 31.47 32.52 32.93 33.18 33.99 33.87 34.55 34.45 32.00 31.12 29.49 28.39 27.18 26.63 23.61 22.07 21.16 19.85 21.05 20.72 19.21
27.93 28.09 28.58 28.80 29.35 29.69 30.17 29.56 29.02 28.17 27.30 26.23 26.26 26.19 26.12 25.86 26.71 30.00 31.61 32.87 32.42 32.48 33.05 32.23 32.78 32.42 32.90 31.82 29.54 30.79 30.29 29.49 28.05 26.75 24.23 22.55 20.95 18.97 18.38 18.67 15.54 13.66 10.55
28.49 28.66 29.57 29.37 29.48 29.12 29.61 30.16 29.51 30.23 30.24 28.73 29.03 29.19 26.97 25.68 26.94 28.72 30.55 31.28 31.95 32.40 31.92 30.65 30.38 30.01 28.99 27.82 26.94 26.65 26.17 22.39 21.75 22.01 20.07 18.85 17.91 17.46 15.53 13.60 12.10 9.42 5.65
28.04 28.84 29.46 29.98 29.94 29.63 29.33 29.26 32.60 32.15 32.45 32.37 32.39 31.36 30.74 31.64 31.10 30.62 30.56 31.65 32.13 33.01 26.72 25.75 25.20 26.04 25.70 24.77 22.98 22.10 21.75 18.32 19.41 17.96 15.95 14.80 14.03 12.72 10.82 9.92 9.18 5.48 3.29
29.70 28.89 28.86 28.28 27.85 27.63 27.88 28.21 24.84 28.06 30.81 31.60 33.12 32.97 31.01 31.11 32.63 32.02 31.89 32.61 33.56 32.50 26.17 24.78 25.01 24.93 24.33 23.75 21.41 20.13 17.63 16.68 12.66 12.31 12.53 11.30 10.70 9.18 6.74 5.95 6.00 5.31 1.73
28.48 28.94 28.98 28.16 27.98 27.87 27.85 27.72 27.27 26.03 25.26 24.32 27.11 26.80 27.48 28.08 28.54 29.44 30.00 28.70 24.50 25.82 25.31 23.02 22.00 22.67 21.59 19.19 16.64 15.11 13.58 10.05 9.62 9.80 8.56 6.25 4.13 3.89 2.61 1.96 3.11 -0.96 -1.25
24.80 24.10 25.00 24.85 25.41 25.42 25.70 26.41 27.36 26.34 24.13 22.76 23.42 23.87 25.51 26.85 26.70 26.21 25.75 24.36 22.84 19.07 17.37 17.79 17.52 16.53 15.62 14.59 12.91 11.09 10.61 8.92 7.54 5.42 3.34 1.00 0.25 -0.49 -1.91 -0.70 0.28 -0.41 -1.86
18.41 19.20 21.32 21.80 21.98 21.96 22.09 21.96 22.30 22.71 22.12 22.70 23.12 19.67 18.85 21.06 20.07 15.24 14.30 15.31 15.54 14.69 12.98 12.55 11.02 10.40 10.17 9.75 8.87 6.53 4.42 2.35 1.64 0.29 0.98 0.22 -0.48 -1.02 -2.15 -4.54 -4.24 -3.66 -4.42
17.01 17.13 17.53 17.93 17.80 18.50 19.41 18.85 19.40 20.39 19.48 19.27 13.08 15.49 17.68 17.95 14.30 12.54 11.33 10.86 9.86 9.04 7.05 7.72 6.12 5.30 4.66 3.44 3.00 1.81 1.42 3.60 2.64 1.87 1.13 -2.40 -3.92 -5.87 -4.73 -1.74 -4.33 -5.70 -6.80
14.19 13.52 13.55 13.07 13.09 12.75 13.24 14.10 14.72 14.49 14.37 13.20 11.28 12.77 15.39 11.93 11.25 9.96 8.37 6.74 5.19 4.32 3.84 3.52 3.05 2.13 0.58 0.24 1.19 1.45 1.01 0.53 1.29 0.31 -2.32 -5.51 -6.15 -6.50 -6.97 -5.33 -5.95 -5.40 -6.10
12.85 11.81 10.88 10.43 10.90 11.12 10.37 10.34 10.36 10.77 9.95 9.36 9.53 9.22 9.08 7.83 6.17 5.43 4.22 2.87 1.41 0.07 -0.59 -1.18 -0.42 -1.61 -1.29 -2.05 0.57 1.48 0.70 0.08 -0.41 -2.01 -4.17 -6.75 -8.13 -7.52 -7.26 -7.23 -7.40 -9.31 -9.50
9.12 8.52 7.18 5.87 6.40 6.55 6.63 6.06 5.42 3.26 5.04 5.25 4.99 4.63 4.53 3.49 2.65 1.57 0.12 0.69 -0.44 -1.99 -3.17 -4.95 -4.78 -3.67 -2.53 -1.53 -1.81 -2.22 -2.30 -3.29 -3.73 -5.11 -6.54 -7.09 -7.95 -7.68 -9.03 -8.50 -8.18 -8.98 -8.47
5.58 4.61 4.01 3.85 3.58 4.20 5.05 4.40 3.83 3.10 2.87 3.09 2.87 2.33 1.70 0.96 0.09 -0.50 -0.87 -2.15 -5.02 -4.40 -4.14 -4.90 -4.77 -3.16 -3.67 -5.55 -5.17 -3.66 -2.00 0.60 -4.18 -4.61 -8.32 -9.39 -9.82 -11.22 -11.55 -11.06 -10.44 -8.82 -8.23
3.86 3.62 3.58 3.79 3.17 2.92 2.90 2.67 2.39 1.97 0.85 1.37 1.13 0.69 0.01 -0.87 -1.08 -1.47 -2.52 -4.31 -5.48 -5.84 -6.49 -5.32 -4.53 -4.68 -4.91 -4.13 -4.40 -3.45 -2.84 0.49 -4.70 -3.44 -6.56 -6.99 -7.18 -6.63 -9.63 -11.99 -14.93 -13.13 -13.92

GFSGL_sfc_wetblb_072.txt.gz
Wetbulb
45.87 46.15 46.77 46.62 46.96 47.65 47.60 46.75 46.15 44.78 43.54 43.04 41.80 41.62 39.97 40.45 42.14 43.48 41.72 40.15 40.39 37.33 35.03 33.74 31.97 31.09 30.28 29.77 27.28 27.33 27.17 28.21 25.44 24.11 26.50 27.44 28.09 27.44 26.85 26.71 26.74 26.43 26.75
45.65 45.73 45.89 45.90 46.10 45.99 46.03 45.43 44.36 43.10 39.40 39.38 37.72 38.18 37.43 38.09 38.71 40.04 38.44 37.83 36.48 34.50 33.53 31.85 30.59 30.42 28.74 28.80 27.62 26.85 27.38 27.79 27.78 23.78 24.34 25.08 25.97 26.78 26.71 25.60 26.57 27.90 26.71
45.11 45.00 44.64 44.52 44.66 44.70 44.56 44.10 42.27 39.57 36.20 34.37 34.09 35.00 34.97 35.18 35.71 37.47 37.83 35.67 36.03 34.49 33.16 31.73 30.15 29.10 27.56 27.85 27.32 26.72 26.90 26.60 26.23 26.19 23.69 25.35 25.76 26.05 24.46 25.25 25.46 26.01 27.74
44.34 44.22 43.52 43.62 44.41 43.95 43.19 41.93 39.13 36.08 33.20 31.57 32.58 33.64 33.24 32.76 33.57 32.81 33.37 33.39 33.40 32.54 32.10 30.93 29.68 28.76 27.72 27.62 26.94 26.77 26.06 25.20 24.93 24.36 24.17 24.18 24.18 25.23 24.62 23.19 23.15 25.12 25.07
43.50 43.73 44.40 43.54 43.58 42.68 40.01 38.28 35.12 33.45 32.14 31.50 30.68 30.72 31.16 31.34 30.92 31.34 31.74 32.04 30.96 29.54 29.10 28.45 28.58 28.38 30.85 30.17 27.63 26.45 26.20 25.42 24.84 24.20 23.24 23.49 23.46 23.88 22.83 24.03 23.27 23.91 24.36
43.35 42.91 42.35 39.61 38.51 37.65 36.93 35.77 33.39 32.04 30.62 29.90 29.49 30.03 29.50 29.73 33.35 34.77 32.56 30.67 30.03 29.17 27.80 27.30 28.26 29.94 31.90 31.94 31.31 31.04 28.99 26.64 25.08 25.06 24.63 23.61 24.15 24.61 24.67 23.95 23.39 22.12 20.28
37.92 36.24 35.15 35.67 35.39 35.25 34.48 32.94 31.61 30.50 29.13 28.87 28.32 28.37 29.00 28.95 33.54 35.01 33.87 29.88 29.24 28.85 27.95 27.31 28.44 29.51 29.61 29.09 31.74 31.99 31.05 31.69 30.55 28.25 25.73 25.41 25.05 25.71 25.34 24.42 24.21 23.58 22.56
35.19 33.69 32.26 33.62 33.58 31.86 31.43 30.96 29.64 29.10 28.63 28.05 27.78 27.89 28.82 28.43 33.53 34.60 33.28 28.87 28.52 28.00 27.74 27.74 28.46 28.36 28.35 28.19 28.44 28.14 28.03 28.65 29.90 28.91 27.29 26.87 26.65 26.61 27.02 26.21 25.14 23.43 23.14
34.51 33.61 32.56 31.72 31.03 30.80 30.15 28.68 27.79 27.91 26.96 29.79 29.63 27.79 28.51 27.87 33.16 34.90 31.39 28.42 27.76 27.18 27.61 28.68 29.70 28.87 30.43 30.54 27.77 27.13 27.47 28.00 30.56 31.89 31.48 31.74 32.06 31.66 30.19 24.86 20.14 18.90 22.27
32.47 33.10 32.93 30.15 29.23 28.95 29.18 28.24 26.68 26.86 29.63 28.84 29.05 29.20 28.57 28.03 32.98 34.22 31.15 28.49 26.73 26.45 27.91 28.92 30.38 30.72 31.97 31.82 27.54 26.67 24.82 25.04 25.84 25.68 27.57 29.89 30.76 28.80 31.07 27.43 21.91 19.62 18.63
28.91 28.77 28.09 28.36 26.65 26.57 25.83 25.68 26.69 28.84 27.86 27.67 27.24 27.65 27.73 28.29 31.30 34.01 32.79 28.61 27.94 26.64 27.14 28.01 30.60 33.85 34.13 34.70 31.84 27.17 26.84 28.02 27.83 26.57 25.62 25.03 25.00 24.99 24.72 24.45 24.04 21.23 16.35
25.52 25.76 24.78 23.54 26.56 27.21 28.63 29.16 28.40 27.74 26.62 25.88 25.57 25.38 26.66 29.03 31.40 33.90 32.64 31.66 31.22 27.01 26.88 28.61 30.46 34.80 34.72 34.85 33.80 32.27 33.52 32.85 28.96 26.42 24.89 24.22 24.28 23.94 23.62 22.35 22.00 21.52 21.61
25.77 22.82 22.20 22.65 24.32 24.48 24.45 27.06 26.86 26.76 25.68 24.60 24.54 24.24 24.86 26.52 29.49 34.07 33.93 33.46 32.80 28.61 28.51 28.85 31.02 33.28 34.24 34.51 35.14 34.55 32.16 31.34 29.81 25.94 24.97 25.27 24.12 22.30 21.54 20.38 20.06 18.54 17.15
26.05 25.73 23.73 23.34 23.98 24.41 25.51 24.96 25.20 25.54 25.42 24.81 24.72 24.51 24.40 25.24 26.13 29.88 31.47 31.68 31.26 30.87 31.38 31.02 32.14 32.25 33.38 32.86 30.57 32.72 31.19 29.75 28.36 27.11 24.87 21.89 20.50 18.44 16.55 16.88 10.92 10.26 4.49
26.36 26.81 27.66 27.85 28.19 26.93 26.86 25.33 23.62 23.44 26.28 25.73 27.05 27.12 24.73 23.97 26.18 30.27 31.33 31.39 31.52 31.33 31.47 30.85 30.38 29.39 29.18 29.26 26.55 26.69 25.35 23.16 22.52 20.82 19.66 17.27 16.93 16.74 13.67 10.29 8.95 3.60 0.06
24.88 27.02 27.66 27.76 26.16 22.64 23.51 28.31 32.15 31.39 32.55 32.49 32.49 30.34 29.01 29.68 30.60 31.33 33.23 33.65 34.05 34.37 28.87 27.30 27.88 28.23 27.20 25.35 23.78 22.20 21.37 20.36 19.31 16.10 11.41 10.76 10.73 8.73 8.38 6.29 4.33 -0.82 -2.41
28.30 27.04 26.94 24.90 23.70 24.58 25.05 25.66 23.97 28.56 31.81 33.23 33.35 33.22 31.90 32.39 31.39 31.41 31.89 32.46 32.93 32.85 26.25 26.00 24.04 22.49 21.73 22.86 22.04 20.13 18.02 16.61 12.94 13.42 12.40 7.63 7.06 8.65 5.95 3.67 5.08 2.13 -4.28
27.97 27.75 26.94 26.09 25.47 25.21 24.08 22.83 22.76 22.44 21.18 21.52 28.07 28.62 29.83 30.78 32.15 32.72 32.76 31.62 27.46 25.47 23.06 21.06 20.71 21.71 20.45 18.87 17.16 14.18 11.04 7.58 6.26 6.45 4.50 2.82 2.48 1.90 0.69 0.68 3.80 -5.27 -7.95
22.11 22.79 23.39 23.92 24.43 24.67 25.07 25.61 24.75 22.23 20.91 20.45 19.84 22.11 24.64 27.42 26.02 26.20 25.54 21.76 19.64 16.57 16.53 15.90 16.19 13.34 11.05 9.94 5.16 6.40 6.27 5.60 6.49 3.66 0.37 -1.50 -0.92 -1.51 -5.51 1.38 -1.25 -3.80 -6.75
18.20 20.79 21.08 21.21 21.18 21.16 21.07 20.92 20.51 19.42 19.09 18.79 15.74 15.11 14.24 15.63 11.60 11.44 13.10 13.54 12.13 10.01 8.67 6.86 5.80 6.25 5.44 5.87 4.55 4.08 4.15 0.53 0.87 -0.86 -2.55 -1.85 -3.40 -0.82 -0.78 -9.26 -10.39 -9.61 -13.00
16.52 16.17 16.62 16.22 15.81 16.19 16.44 16.94 17.63 17.08 13.47 11.24 10.94 14.93 20.20 12.13 9.40 7.36 5.70 4.10 2.84 1.39 -0.00 0.31 -1.11 -1.65 -1.03 0.13 2.32 1.10 -0.47 -0.78 -1.68 -2.14 -4.72 -4.60 -3.65 -7.12 -2.92 -5.20 -9.81 -12.10 -13.88
13.36 12.53 11.99 11.21 11.66 11.98 11.87 12.24 12.07 11.92 10.83 8.18 7.73 12.15 14.90 7.78 5.35 2.83 1.10 -1.80 -4.75 -5.30 -6.49 -5.97 -6.47 -6.95 -7.58 -6.70 -7.66 -7.64 -7.33 -6.88 -8.06 -3.52 -3.30 -4.77 -5.35 -8.90 -11.92 -10.36 -11.81 -12.48 -14.35
11.18 10.06 9.39 9.31 9.40 8.69 7.05 6.27 6.91 6.77 5.73 3.79 2.98 3.05 1.55 -1.97 -2.37 -3.36 -5.23 -7.67 -8.19 -8.52 -10.28 -11.15 -11.21 -11.68 -12.46 -12.75 -11.58 -9.23 -8.43 -5.49 -4.75 -5.36 -5.62 -6.96 -7.96 -8.36 -11.43 -11.46 -13.04 -13.93 -14.15
7.26 6.67 5.52 4.49 4.48 4.28 3.89 3.02 2.49 1.65 -0.65 -2.94 -5.61 -6.11 -4.79 -7.68 -9.04 -8.00 -9.11 -10.91 -11.55 -14.84 -15.23 -15.27 -15.14 -14.76 -15.31 -15.85 -15.20 -14.38 -12.59 -11.08 -12.34 -6.97 -5.03 -5.57 -6.32 -5.96 -8.75 -11.45 -10.47 -9.69 -7.15
3.46 2.82 1.93 0.79 0.71 -0.35 -0.43 -2.09 -2.81 -5.76 -7.40 -5.47 -7.65 -6.64 -9.55 -9.79 -10.48 -13.06 -13.48 -13.33 -14.24 -14.67 -13.77 -14.55 -14.80 -13.80 -12.78 -13.14 -14.39 -14.87 -12.29 0.17 -10.42 -10.63 -11.57 -9.89 -9.99 -8.28 -9.15 -9.89 -12.03 -9.74 -8.26
2.07 1.52 0.70 0.83 -0.18 -1.48 -1.79 -1.83 -4.66 -6.74 -7.89 -8.01 -9.16 -10.67 -10.70 -11.03 -11.91 -12.98 -13.43 -14.38 -14.13 -14.62 -15.45 -15.34 -14.65 -11.90 -12.24 -11.07 -10.65 -8.76 -6.95 0.63 -4.05 -4.61 -9.61 -9.89 -10.40 -8.76 -10.06 -10.32 -9.80 -9.63 -11.23

GFSGL_sfc_wetblb_075.txt.gz
Wetbulb
44.43 44.55 45.13 46.06 46.53 46.58 47.10 46.80 46.48 45.06 45.33 43.68 42.97 44.68 45.44 45.68 46.31 46.16 45.86 44.62 43.22 43.25 43.04 41.45 40.19 37.06 35.48 33.56 31.37 30.82 30.20 29.82 27.04 25.34 26.93 27.75 27.96 28.28 28.14 29.16 28.31 28.14 28.04
44.41 44.35 44.37 45.07 45.07 45.22 45.76 45.27 44.27 44.57 41.91 42.79 41.32 41.58 43.07 43.23 44.02 44.76 43.89 43.19 42.13 41.21 39.86 38.46 38.01 33.89 33.09 32.06 31.13 29.86 29.66 29.20 27.45 24.54 24.56 25.32 26.22 27.26 26.51 25.81 26.61 27.62 27.02
43.60 43.70 43.65 43.78 43.86 44.66 44.70 43.53 42.95 42.16 40.70 38.07 38.72 38.84 39.19 40.45 40.80 42.02 42.36 41.48 41.08 40.91 39.51 37.21 34.94 33.04 31.99 30.60 30.37 29.60 28.83 28.07 27.66 25.73 23.57 24.78 24.70 25.78 25.37 25.85 26.31 26.48 27.13
42.99 42.97 42.70 43.58 43.98 44.24 43.08 42.32 41.56 39.86 37.75 35.29 35.63 35.75 34.99 35.77 36.39 37.57 38.49 38.15 38.23 37.30 35.66 35.35 33.20 32.21 31.74 30.29 29.23 28.89 27.76 27.01 26.25 25.72 23.67 23.32 24.00 25.11 24.66 24.47 24.34 25.59 25.79
42.12 42.10 43.03 42.88 41.99 41.69 40.04 38.78 37.84 36.10 35.09 33.86 32.46 32.01 32.13 34.11 34.58 35.14 35.62 35.74 35.06 33.11 32.61 32.48 31.54 31.29 32.03 31.18 29.10 28.20 27.63 26.33 25.62 24.91 23.26 23.06 23.39 23.73 23.55 24.55 23.85 24.64 25.00
41.16 41.02 41.68 39.32 38.14 37.47 37.25 36.58 35.54 34.07 32.64 31.62 30.94 30.67 30.76 31.97 34.54 36.80 35.26 33.93 33.31 32.16 30.20 29.60 29.33 30.01 31.31 32.69 32.84 32.33 29.74 26.77 24.73 24.25 24.07 23.74 24.04 24.92 25.09 24.73 24.28 23.05 20.90
35.45 35.03 35.03 34.98 34.81 35.66 35.25 34.93 34.09 32.52 30.93 30.39 29.81 29.24 30.36 31.38 34.46 36.27 35.81 32.05 31.84 31.43 30.23 28.66 28.69 29.60 30.27 30.66 32.86 32.73 31.77 32.22 30.38 27.52 25.85 25.51 25.18 25.89 25.86 24.79 24.56 23.83 22.91
32.89 32.21 32.10 32.43 32.91 32.14 31.48 32.34 30.47 29.96 29.04 28.03 27.47 27.43 29.99 29.73 33.58 36.11 35.25 30.82 30.58 30.36 29.46 28.99 29.29 29.58 30.56 29.86 29.51 28.92 28.49 29.37 30.49 30.09 28.77 28.28 27.31 27.27 27.51 27.33 26.45 24.42 23.78
32.34 32.24 31.67 30.67 30.80 30.01 30.13 29.07 26.87 25.77 24.99 24.69 26.05 25.95 29.17 29.02 32.97 35.42 34.58 29.20 28.98 28.54 28.59 29.65 30.07 29.75 31.80 32.36 28.90 28.01 27.56 28.29 31.98 32.79 32.17 31.49 30.99 31.06 29.71 27.45 22.52 20.29 19.04
30.63 31.41 31.64 29.94 28.02 27.59 28.41 26.10 24.56 25.49 27.19 29.22 29.54 29.64 29.37 29.12 32.42 34.67 34.16 29.06 27.32 26.78 27.70 28.59 29.98 30.48 33.14 33.22 28.93 28.80 27.59 28.04 27.91 27.80 29.07 30.55 32.06 32.36 34.06 29.79 26.06 19.78 18.85
28.27 28.31 27.17 27.61 25.56 25.61 25.34 29.06 29.59 29.57 28.61 28.33 28.01 28.09 28.36 28.63 30.31 34.37 34.69 28.80 27.25 26.64 26.91 27.60 29.58 32.86 34.21 33.89 32.04 29.71 29.83 29.30 29.21 26.71 26.06 26.41 27.00 26.68 26.75 26.77 25.96 23.85 17.89
24.63 24.92 23.78 21.01 24.90 26.98 31.26 29.41 28.92 28.46 27.37 26.51 26.16 25.52 26.39 27.57 30.49 34.05 34.82 30.50 30.79 28.26 27.54 28.31 29.73 34.22 34.71 34.97 31.94 32.19 33.55 30.80 27.54 26.94 25.00 24.67 24.28 24.40 25.34 25.28 24.46 22.69 22.00
19.59 18.10 18.53 20.65 21.97 22.62 29.39 27.85 26.89 26.97 25.88 24.71 24.80 24.40 25.19 27.14 28.86 32.93 35.43 32.43 32.37 28.30 29.10 30.01 31.78 34.43 35.54 34.87 35.05 34.52 31.65 31.12 29.09 25.78 25.07 25.22 25.48 25.09 23.78 21.84 20.96 19.53 18.14
19.40 21.39 20.92 19.30 19.64 21.12 23.03 23.62 25.44 25.95 25.18 24.72 24.66 24.16 24.27 24.92 24.88 29.90 31.14 31.67 30.95 29.31 30.44 30.51 31.95 32.90 33.39 32.32 30.62 32.72 31.59 31.08 30.19 28.35 26.23 23.24 21.79 20.68 19.20 18.86 15.93 14.92 10.42
19.40 23.40 26.10 23.11 20.15 21.95 22.88 18.77 20.56 20.74 24.16 22.22 20.84 21.05 21.63 20.91 24.42 29.27 31.45 29.43 29.16 29.54 29.34 29.61 29.20 28.97 28.72 29.39 29.90 29.20 29.37 26.83 26.57 24.01 21.81 19.35 19.08 18.52 16.70 15.75 13.61 10.53 7.66
26.32 25.93 26.22 25.94 25.40 25.13 26.04 26.89 30.77 30.80 31.02 30.90 30.57 27.82 25.52 27.20 29.54 31.56 33.24 32.83 32.35 33.36 29.75 28.79 28.36 28.30 27.73 27.59 27.16 25.05 23.18 22.29 21.60 19.84 18.44 18.16 17.02 15.86 13.18 11.34 9.66 6.92 6.08
27.53 25.72 25.45 24.54 24.68 24.69 25.07 26.52 24.48 27.81 32.63 33.44 33.23 32.27 31.30 30.59 30.59 31.65 32.86 33.89 34.13 33.27 25.67 26.94 26.63 26.11 24.08 23.44 22.93 20.84 18.77 18.15 17.35 17.45 15.97 14.87 13.44 12.18 10.73 9.15 7.99 5.19 -0.54
26.36 26.40 24.33 24.92 25.62 25.35 24.31 23.59 22.83 20.80 21.01 23.41 30.01 30.52 32.78 32.63 32.02 32.32 33.01 33.08 27.22 24.18 24.20 23.28 21.62 21.06 19.58 18.71 18.15 16.47 13.20 12.57 12.21 11.45 9.59 8.44 9.25 8.53 6.86 5.75 5.25 0.35 -3.81
22.17 22.39 23.23 23.83 24.16 24.59 24.64 23.40 21.89 20.07 19.16 18.12 19.36 21.67 21.31 26.72 27.02 27.29 26.84 21.54 18.11 17.25 16.33 15.59 14.47 11.37 9.70 9.57 7.47 5.97 5.23 5.38 4.99 4.00 2.28 4.23 5.28 3.43 -3.79 -0.29 2.89 1.22 -3.59
19.61 20.89 21.03 21.35 21.32 21.23 21.09 20.48 19.98 18.86 16.29 15.15 14.71 13.92 14.02 14.04 11.59 10.76 10.82 10.24 9.25 6.90 6.95 5.49 -1.08 -1.63 -1.91 -0.37 -1.37 0.10 -1.12 -2.00 -1.54 -2.44 -2.52 -1.32 -3.64 -4.93 -4.56 -5.26 -3.91 -3.87 -6.04
16.41 16.23 16.72 15.82 15.85 16.50 16.90 16.81 16.00 13.89 12.75 12.70 13.05 18.74 18.44 10.48 7.56 5.92 4.72 2.51 0.42 -1.14 -2.35 -2.82 -3.73 -4.58 -5.56 -5.80 -5.56 -5.11 -6.09 -4.20 -7.01 -10.64 -11.45 -12.11 -10.73 -11.42 -7.37 -0.52 -4.13 -6.32 -8.68
13.57 13.12 12.89 12.24 12.47 11.95 11.70 12.08 12.05 11.13 10.19 9.43 8.59 11.37 14.03 7.25 5.03 2.16 -0.99 -4.37 -7.16 -7.15 -9.30 -7.40 -8.32 -10.08 -10.98 -10.39 -11.51 -12.29 -12.56 -13.07 -15.37 -14.12 -13.36 -12.52 -9.58 -10.40 -10.06 -8.28 -6.34 -6.08 -10.55
11.56 10.81 9.94 9.28 9.08 8.43 7.36 7.39 7.24 6.69 5.60 4.68 3.94 2.88 0.49 -3.05 -4.34 -5.40 -7.07 -10.34 -9.72 -9.78 -12.26 -12.98 -12.47 -13.21 -16.77 -16.82 -16.60 -13.93 -13.41 -14.08 -12.02 -12.37 -9.77 -9.61 -9.27 -8.83 -9.91 -8.27 -10.40 -10.82 -10.53
8.17 7.55 6.69 5.91 5.60 4.64 3.87 2.43 2.05 1.80 0.47 -3.35 -6.37 -6.50 -4.84 -7.96 -9.33 -9.53 -11.24 -13.48 -12.89 -16.58 -16.91 -16.60 -17.45 -16.77 -18.14 -19.27 -20.68 -20.61 -19.50 -17.64 -19.25 -13.23 -11.49 -11.63 -11.20 -11.74 -14.66 -14.12 -9.80 -9.15 -7.35
5.38 4.49 3.82 2.91 2.13 1.43 0.59 -0.42 -1.33 -2.34 -4.44 -2.31 -6.54 -5.19 -8.71 -10.14 -11.48 -14.24 -15.28 -15.82 -16.82 -17.20 -15.82 -17.45 -18.45 -17.47 -17.36 -16.23 -17.24 -18.09 -18.17 -4.81 -14.60 -15.49 -19.23 -15.86 -13.79 -13.12 -13.38 -10.14 -9.11 -7.21 -5.99
2.99 2.24 1.28 0.16 -1.06 -2.51 -3.56 -3.26 -4.73 -3.84 -6.62 -7.18 -8.14 -10.60 -10.87 -11.62 -12.82 -15.28 -16.84 -17.11 -16.04 -16.19 -17.58 -18.71 -18.09 -16.03 -15.32 -13.77 -12.98 -10.26 -10.09 -2.66 -7.76 -8.49 -18.63 -16.33 -14.68 -14.23 -12.47 -10.11 -9.10 -6.96 -7.43

GFSGL_sfc_wetblb_078.txt.gz
Wetbulb
43.45 43.61 43.62 44.38 45.34 46.06 47.20 47.36 47.11 45.22 44.96 44.78 45.82 47.22 47.33 47.92 48.64 48.70 48.98 47.98 45.20 45.12 44.41 43.44 42.51 43.18 41.31 39.79 38.01 35.82 34.09 33.80 33.90 26.72 28.49 29.09 29.32 29.12 29.07 30.86 30.13 29.64 29.33
43.48 43.42 43.35 43.59 44.02 44.31 45.03 45.03 44.05 44.09 42.45 44.17 42.76 44.76 45.51 46.12 46.57 46.59 46.53 46.43 44.06 43.03 42.83 42.27 41.87 42.37 41.37 39.56 38.28 36.16 34.22 31.73 29.89 25.59 25.83 26.96 27.64 29.00 28.80 28.93 27.78 28.30 27.55
42.58 42.65 42.75 42.88 42.73 43.02 43.23 43.26 42.57 42.45 41.14 39.84 40.14 40.94 42.36 43.19 43.68 44.51 45.33 45.11 44.17 43.98 43.41 41.87 42.31 40.74 37.59 37.58 35.25 35.43 33.56 31.16 28.58 27.17 24.60 25.68 25.29 27.62 25.53 26.19 26.25 26.15 27.20
41.61 41.83 41.62 42.13 42.30 42.15 42.17 41.82 41.24 40.71 40.03 37.83 38.58 38.92 38.58 40.21 40.57 40.71 40.12 42.31 41.98 41.88 41.95 40.84 40.47 38.88 37.99 35.11 32.69 31.65 30.68 29.54 28.53 27.34 25.44 24.84 24.67 25.35 26.27 25.19 24.42 25.98 26.02
40.14 40.50 41.43 41.97 41.25 40.92 39.66 38.43 37.90 37.59 37.60 36.92 35.86 36.23 34.86 34.72 35.38 36.43 36.81 38.95 38.22 38.50 35.78 35.95 36.45 34.87 35.65 33.80 32.64 31.89 31.44 30.48 28.91 27.81 24.28 23.70 23.63 23.86 24.52 24.87 24.64 24.89 25.85
37.18 36.64 37.69 36.64 36.37 36.61 36.16 36.09 35.66 35.46 34.88 33.87 33.53 34.05 32.74 33.77 36.50 38.38 37.57 36.20 35.35 35.54 34.57 33.37 32.47 32.01 34.23 34.96 35.66 34.56 33.26 31.41 30.29 27.55 26.07 24.64 24.33 24.87 25.05 25.03 24.72 23.72 21.88
32.18 32.85 32.86 32.79 33.36 34.56 34.61 34.60 34.34 34.00 32.99 32.18 31.99 31.21 31.21 31.33 36.02 37.12 37.18 34.19 34.29 34.42 33.82 31.72 30.17 31.05 31.53 32.39 34.40 34.45 34.72 35.33 32.99 28.80 26.14 26.48 25.47 26.31 26.50 25.55 25.38 25.08 24.43
31.58 31.25 31.13 31.48 31.51 31.69 31.25 31.30 31.88 31.86 30.32 30.10 29.67 29.26 28.78 29.45 35.05 36.35 36.17 33.91 32.38 32.22 31.94 30.75 30.62 29.66 30.76 31.14 31.10 30.54 29.97 30.91 30.41 30.19 30.21 28.74 29.73 28.55 28.35 27.87 27.20 26.72 26.01
30.62 30.68 30.70 30.59 30.27 29.97 29.58 29.44 26.98 25.88 24.63 24.53 26.51 27.60 28.61 29.89 33.48 34.72 35.34 32.07 30.57 30.19 30.16 29.92 30.20 29.81 31.87 33.39 30.27 28.88 28.67 29.35 33.02 32.57 32.40 33.57 33.81 32.11 30.86 28.64 24.30 22.99 22.14
30.03 29.44 29.92 29.84 28.06 28.00 28.69 26.91 24.18 24.80 29.82 29.14 30.34 30.25 30.30 30.87 32.59 34.06 34.54 30.65 28.93 28.04 28.41 29.52 30.39 30.70 33.24 34.24 30.03 28.56 27.02 27.92 29.00 29.91 30.64 32.34 31.83 31.21 32.65 29.55 27.29 23.58 23.34
28.25 28.22 27.31 27.45 26.70 26.78 26.78 29.47 29.95 29.97 29.16 29.13 28.45 28.54 29.28 29.55 29.55 33.79 35.13 30.04 28.31 26.98 27.12 27.73 29.62 33.63 34.02 34.51 32.36 29.93 30.22 30.27 30.83 28.48 27.98 27.79 28.18 28.33 28.42 28.81 28.34 26.71 22.63
26.47 25.62 25.40 24.27 25.71 26.07 27.27 29.74 29.33 28.92 28.18 27.35 26.90 26.07 26.54 27.46 29.62 32.40 34.83 30.73 30.31 27.38 27.14 28.13 29.34 33.40 34.42 35.01 32.56 33.58 34.57 30.31 28.93 26.24 24.92 24.83 25.21 25.48 26.08 26.37 26.07 25.56 25.00
23.19 22.22 20.79 21.61 22.76 22.12 29.15 28.45 27.48 27.29 26.49 25.48 25.22 24.95 25.23 26.87 28.36 32.51 34.95 31.68 31.47 28.76 29.06 29.41 31.15 33.63 34.72 35.12 33.75 34.25 31.58 28.53 26.99 25.18 24.50 25.08 25.65 26.23 25.59 22.95 22.20 20.63 19.16
20.12 25.17 24.82 19.79 20.75 19.49 21.53 25.97 27.14 26.40 25.48 25.22 25.15 24.85 24.81 25.74 26.83 29.59 31.94 31.46 30.89 29.18 30.16 30.53 31.77 32.84 34.16 32.80 31.69 32.40 31.34 31.04 29.41 26.81 26.15 25.00 23.84 22.92 21.27 20.42 17.47 16.40 14.71
23.84 25.30 26.63 27.19 23.03 20.13 21.73 19.45 21.49 23.16 24.09 24.14 25.11 24.51 23.10 22.57 25.03 31.10 30.89 29.40 27.46 27.36 26.43 26.95 29.47 29.52 29.59 28.76 28.29 29.18 29.79 29.66 29.04 26.93 23.33 20.86 20.30 19.76 18.15 17.58 15.83 13.32 11.38
24.72 26.15 26.40 25.99 25.21 25.04 25.23 24.90 30.47 30.55 31.24 30.68 29.84 26.53 24.80 27.86 28.69 31.80 32.90 31.60 30.78 31.21 26.17 24.88 24.42 24.23 24.44 25.48 25.68 24.87 25.27 25.12 24.69 22.85 20.42 19.70 18.33 17.59 15.72 13.95 12.35 9.69 8.99
24.19 26.94 26.08 24.51 24.26 23.73 24.24 24.19 22.58 27.14 32.85 33.11 32.71 31.27 31.40 30.56 31.01 32.44 33.53 32.67 32.64 32.77 24.13 25.44 25.85 26.00 25.81 25.75 25.58 23.05 21.52 20.20 19.80 19.84 18.77 17.61 16.39 14.92 12.95 10.66 10.05 8.85 7.03
25.01 26.40 24.34 21.56 23.04 24.32 23.79 22.87 21.79 21.34 20.79 20.50 26.01 29.71 32.78 32.52 32.23 32.67 33.52 30.52 24.72 25.37 22.88 22.85 21.26 21.28 20.02 19.40 18.35 17.17 15.47 14.02 13.57 13.62 12.32 11.08 9.11 7.68 7.98 7.80 8.32 4.03 4.01
19.46 18.35 18.82 20.86 23.78 24.71 23.51 21.60 20.17 19.78 18.00 17.33 18.52 21.01 19.16 25.74 26.14 26.72 26.55 19.53 19.00 17.52 16.96 15.81 15.50 15.44 14.16 10.96 8.03 5.76 5.56 5.39 2.90 2.15 0.10 0.99 3.96 3.91 0.37 4.17 5.58 3.09 -3.41
16.63 21.25 22.07 20.05 21.06 21.70 21.24 20.29 18.64 17.08 16.07 15.48 15.53 13.90 14.31 15.07 12.60 11.31 11.43 12.62 11.99 10.29 9.69 8.37 6.05 4.78 1.83 -0.93 -1.74 -2.03 -1.84 -1.75 -2.56 -3.05 -2.57 -1.30 0.73 1.64 -1.14 -7.19 -6.70 -7.83 -7.26
14.45 16.22 18.37 17.95 17.63 18.00 18.27 17.13 15.97 15.27 13.87 12.69 15.76 18.69 18.06 10.56 7.68 6.79 5.95 4.52 4.38 3.88 2.02 1.02 -1.38 -3.85 -5.66 -7.06 -7.13 -6.71 -6.44 -5.44 -7.11 -7.11 -7.77 -7.46 -12.86 -13.44 -13.80 -7.89 -10.62 -8.39 -6.80
14.17 14.04 14.16 13.93 14.13 13.85 13.36 13.65 12.78 12.02 11.22 10.04 8.33 10.25 13.82 7.20 5.50 3.75 1.13 -2.00 -5.39 -5.81 -7.66 -7.83 -9.63 -11.18 -12.23 -11.08 -12.68 -12.46 -13.57 -14.18 -18.19 -18.21 -17.05 -17.56 -18.32 -17.72 -16.63 -12.19 -7.98 -7.24 -10.20
11.81 11.34 10.69 10.09 10.22 10.35 9.64 9.74 9.49 8.67 7.00 6.04 5.50 4.53 3.41 1.28 0.52 -0.33 -2.56 -4.86 -4.32 -4.85 -6.38 -7.35 -8.72 -10.71 -16.96 -19.75 -20.00 -16.38 -14.62 -15.98 -16.28 -19.71 -17.01 -18.75 -18.08 -17.36 -16.81 -14.13 -14.56 -13.78 -10.39
8.47 7.99 7.32 7.06 7.26 6.69 6.11 5.17 4.57 3.97 2.97 1.76 0.74 0.09 0.20 -3.31 -5.59 -5.12 -6.40 -6.49 -4.69 -8.72 -9.98 -14.51 -16.20 -17.07 -18.15 -20.44 -23.16 -24.17 -23.14 -21.42 -23.63 -20.38 -18.46 -17.88 -17.94 -16.51 -16.83 -15.85 -11.71 -10.04 -8.61
5.79 5.28 4.84 4.47 4.33 3.73 3.11 2.58 1.67 0.24 -1.42 -0.98 -4.60 -5.22 -8.39 -7.91 -6.54 -6.72 -7.12 -7.04 -12.11 -15.44 -14.32 -16.18 -18.06 -18.15 -18.61 -18.23 -19.30 -21.98 -21.49 -9.48 -17.74 -18.98 -23.08 -19.28 -18.70 -20.44 -19.51 -16.92 -12.04 -11.77 -8.93
3.82 3.36 3.00 2.89 1.89 1.18 0.34 -1.21 -3.69 -4.55 -5.94 -3.85 -3.69 -4.66 -5.21 -7.73 -8.51 -11.38 -13.22 -15.23 -15.04 -16.05 -17.17 -19.28 -20.09 -20.42 -19.19 -17.61 -17.25 -12.62 -11.29 -3.58 -10.34 -11.56 -20.85 -20.06 -19.75 -20.80 -19.48 -15.71 -12.29 -10.81 -8.00

GFSGL_sfc_wetblb_081.txt.gz
Wetbulb
42.42 42.47 42.68 42.91 43.33 43.92 44.57 45.09 45.07 44.59 44.21 44.00 44.26 44.62 45.35 45.60 46.48 48.31 49.75 50.01 48.92 47.86 47.48 46.43 45.35 45.83 44.88 42.90 40.11 39.63 38.65 39.14 38.67 37.89 30.64 30.53 30.34 30.49 30.25 31.69 32.33 31.97 31.85
42.06 42.14 42.51 42.72 42.81 42.70 43.05 43.59 43.65 44.05 42.52 44.07 42.62 43.83 44.90 46.64 47.32 47.45 47.61 47.81 47.40 45.84 45.39 44.69 44.48 44.44 43.25 43.50 40.82 38.64 38.29 38.49 38.34 38.13 27.35 27.99 28.82 30.04 29.49 29.79 30.09 30.79 29.33
40.34 40.88 41.28 41.53 41.58 41.69 41.81 41.95 41.89 41.85 41.42 40.42 40.64 41.41 44.46 45.14 45.58 46.04 46.75 46.42 46.37 46.58 45.79 43.66 43.58 42.82 41.37 42.02 40.58 39.00 37.47 37.02 35.24 31.00 26.49 28.09 27.87 29.64 28.38 29.28 29.24 27.77 28.44
38.02 38.68 39.13 40.06 40.64 41.15 41.09 40.84 40.56 40.28 39.82 38.66 38.38 39.26 40.42 41.98 41.83 42.56 41.59 43.68 44.07 44.47 44.11 43.59 43.21 42.41 41.36 40.98 38.62 37.40 35.26 32.89 31.92 31.52 28.03 26.85 27.26 27.56 28.11 26.01 25.00 26.17 25.73
35.13 35.49 36.20 37.09 37.46 37.23 36.69 36.13 36.10 35.91 36.41 36.37 36.19 35.55 36.12 38.31 39.11 39.59 38.26 40.37 40.17 40.64 40.24 39.99 39.98 39.81 38.92 40.53 36.80 34.18 32.58 32.23 31.03 31.22 26.71 25.98 25.52 24.66 24.72 26.03 25.33 25.88 26.06
32.53 32.10 33.02 32.41 32.40 32.61 32.81 33.30 33.78 34.21 34.16 33.91 33.68 33.93 33.88 35.69 38.36 39.84 39.53 37.15 36.59 36.95 37.32 35.90 35.24 33.76 35.02 38.09 38.26 36.86 34.73 32.77 31.31 29.71 27.86 27.47 26.42 26.21 26.56 25.16 24.95 24.32 22.22
30.11 30.62 30.51 30.75 31.05 31.66 31.77 31.96 32.68 32.58 32.65 32.50 32.37 31.84 32.14 32.15 37.38 38.60 38.18 34.87 34.48 34.77 35.32 34.19 32.59 32.38 32.51 33.83 36.66 37.43 36.19 37.11 35.79 32.48 28.80 28.96 26.95 27.22 26.59 25.40 25.75 25.57 25.42
29.91 29.23 29.08 29.52 29.60 30.18 30.16 30.18 30.57 30.41 30.11 30.11 30.33 29.62 29.09 29.86 35.78 36.97 36.86 33.03 32.74 33.21 33.76 33.24 32.74 31.05 31.83 32.17 32.76 32.62 32.37 33.07 33.41 31.54 31.15 28.94 29.10 28.63 28.86 28.79 27.39 26.79 26.47
29.33 29.01 28.96 28.81 28.23 28.34 28.60 28.82 28.67 26.31 26.43 26.25 26.54 25.05 27.88 31.64 34.59 35.28 35.09 32.71 32.70 31.89 31.68 31.64 31.70 30.80 32.26 34.45 31.42 30.33 29.44 29.47 33.30 33.71 33.77 33.32 32.82 32.48 31.45 28.78 26.09 25.06 22.53
27.69 27.67 28.04 28.04 27.06 27.39 29.70 29.59 29.76 27.10 30.23 29.37 30.67 30.76 30.84 31.03 33.03 33.92 33.97 32.44 31.64 29.77 29.12 29.67 30.44 30.93 32.56 34.49 30.70 29.09 27.58 28.44 29.86 30.40 31.19 32.75 33.61 33.26 33.87 30.43 27.53 24.36 23.41
25.80 25.71 25.36 25.73 25.16 26.54 27.32 28.81 30.39 30.40 29.90 30.16 28.71 29.02 28.86 29.21 29.82 32.37 33.86 31.45 30.41 28.15 27.98 28.29 29.51 33.02 33.78 34.96 32.84 29.77 29.20 29.94 31.45 29.62 29.32 29.11 28.75 29.26 30.05 29.97 28.66 27.82 24.41
23.55 23.03 23.19 22.14 23.33 25.57 22.73 28.28 30.05 28.98 28.74 28.59 27.38 27.44 26.94 27.40 28.95 31.12 32.86 34.71 31.23 27.71 27.33 28.02 29.03 32.09 33.94 34.72 31.93 32.92 34.00 31.08 29.06 27.69 26.92 26.49 26.74 26.91 27.15 26.68 27.10 26.77 26.91
25.31 22.40 23.41 26.54 21.85 20.63 20.62 27.30 28.41 27.81 27.19 26.89 25.75 25.90 25.91 26.84 28.00 30.50 32.89 33.98 32.07 28.73 29.09 29.04 30.53 32.55 33.92 34.18 33.52 33.90 30.57 29.54 27.55 25.97 25.42 25.51 26.26 26.82 25.97 23.13 22.17 21.16 20.80
24.47 24.98 25.13 26.83 27.57 26.25 20.92 20.97 24.25 26.38 25.93 25.72 25.67 25.34 25.33 25.34 26.56 28.79 31.53 31.62 31.45 29.20 29.38 29.49 30.57 31.76 33.00 32.67 31.32 32.33 30.36 28.93 27.57 26.62 26.13 25.37 25.01 23.64 21.56 21.22 18.51 17.79 15.35
23.18 24.93 26.42 27.52 27.30 26.93 25.98 20.97 17.93 19.14 24.88 23.18 24.94 24.92 20.52 19.58 22.12 30.98 30.42 27.27 23.54 26.04 24.14 27.17 29.12 29.11 29.25 29.30 29.83 29.96 30.05 29.91 28.84 27.34 24.80 21.74 21.32 21.29 19.65 19.00 16.85 15.03 13.79
18.94 22.83 26.21 27.23 27.01 25.52 24.78 25.31 30.75 32.07 32.30 31.71 31.11 26.47 23.63 28.31 29.00 32.11 32.19 31.63 30.69 30.53 21.44 21.90 25.42 25.39 24.76 24.65 25.55 25.16 25.74 26.03 24.45 23.15 21.07 20.61 19.10 17.97 16.09 15.41 14.76 13.51 12.62
12.47 17.16 22.09 25.12 23.00 18.67 17.96 19.46 20.51 24.92 29.32 29.37 32.75 32.44 31.13 30.62 31.85 32.34 32.50 32.39 32.13 29.64 21.65 23.22 24.28 24.60 22.52 23.25 23.89 23.95 22.72 20.63 20.79 21.18 20.07 18.88 17.96 16.98 15.35 13.08 11.89 11.10 9.43
10.80 16.31 22.96 23.07 19.92 18.66 15.94 17.93 18.66 21.09 20.47 20.40 24.21 26.17 30.98 32.87 32.94 33.34 32.70 28.61 25.17 24.69 23.74 22.75 22.27 21.66 20.27 20.39 19.88 18.70 17.07 16.69 15.83 15.84 14.87 13.52 12.19 11.01 9.05 8.88 9.53 6.39 4.88
12.31 16.76 18.83 16.63 20.58 20.94 19.89 18.51 19.79 18.88 18.28 17.78 19.04 21.20 19.68 26.04 26.00 25.60 24.83 19.52 17.47 15.75 15.60 14.14 13.92 12.66 12.42 12.43 11.97 11.16 10.93 9.02 8.29 7.04 6.15 6.35 5.98 5.88 2.44 4.53 5.82 6.02 3.16
12.60 15.95 19.76 16.56 18.43 21.56 20.20 18.44 18.12 17.47 16.51 15.95 14.02 12.43 13.81 14.96 12.85 11.32 11.46 12.38 11.43 9.92 9.48 8.23 6.62 5.63 4.93 4.81 3.36 2.08 2.28 2.31 1.17 1.75 -0.19 -0.68 -0.05 0.54 -1.11 -1.21 0.62 0.95 -8.71
11.74 12.67 16.39 15.29 17.33 18.26 19.14 18.01 16.79 15.91 14.23 12.38 14.97 18.41 18.05 10.16 7.68 6.53 5.31 3.84 4.33 4.02 3.59 2.59 1.34 0.72 -0.72 -1.43 -1.23 -0.80 -2.44 -2.64 -6.75 -6.55 -8.30 -9.04 -9.35 -7.81 -6.37 -8.07 -14.51 -16.00 -14.13
10.74 12.65 11.77 11.82 15.18 15.47 15.04 15.03 14.28 13.25 12.28 10.84 9.03 11.63 13.85 7.48 5.63 3.65 1.32 -0.76 -1.91 -3.08 -3.85 -3.67 -4.78 -8.32 -10.02 -8.74 -9.33 -8.30 -10.40 -11.88 -15.44 -17.21 -17.47 -18.67 -19.48 -20.50 -19.17 -15.69 -14.24 -13.03 -13.62
11.55 11.95 9.74 10.15 11.28 11.98 11.53 11.51 10.95 10.03 8.67 7.82 6.97 5.66 4.39 2.78 1.72 -0.06 -2.73 -4.51 -4.92 -5.99 -8.68 -12.00 -12.36 -13.33 -16.54 -18.20 -18.13 -14.37 -11.56 -13.35 -15.98 -21.28 -18.70 -21.53 -21.42 -21.04 -21.08 -16.62 -14.93 -12.46 -12.14
9.27 9.24 8.68 8.27 8.59 8.19 7.94 6.92 6.55 6.35 5.34 3.34 2.17 1.54 0.70 -1.07 -2.26 -2.18 -3.92 -7.38 -8.16 -11.34 -9.93 -11.29 -12.50 -12.72 -14.23 -18.72 -21.90 -25.92 -24.90 -23.36 -25.28 -22.22 -21.19 -20.51 -20.46 -20.22 -19.97 -19.37 -16.54 -13.66 -10.08
6.66 6.47 6.22 5.97 5.78 5.29 4.96 4.20 3.26 2.35 1.50 0.87 -0.91 -1.71 -3.88 -3.59 -3.90 -6.58 -10.56 -12.02 -12.38 -11.82 -11.35 -12.65 -14.05 -15.31 -17.41 -19.50 -21.46 -23.34 -22.09 -11.09 -20.55 -22.15 -26.13 -22.24 -21.62 -23.98 -23.43 -21.77 -20.42 -17.52 -14.77
4.13 3.79 3.52 3.55 2.95 2.81 2.64 1.71 0.30 -0.17 -1.28 -2.16 -3.50 -4.94 -5.66 -7.36 -9.89 -12.74 -15.13 -15.30 -13.13 -14.11 -16.75 -19.41 -20.91 -21.42 -21.09 -20.10 -19.70 -16.16 -13.24 -4.51 -12.39 -13.69 -22.62 -21.75 -22.16 -24.58 -24.63 -22.42 -22.07 -18.61 -15.49

GFSGL_sfc_wetblb_084.txt.gz
Wetbulb
40.55 40.61 41.01 41.48 41.83 41.92 41.96 42.44 42.94 43.27 43.23 43.29 43.47 43.77 44.59 45.07 46.44 49.47 51.09 51.35 49.82 48.37 47.97 46.83 46.53 47.20 46.82 46.05 44.78 42.39 42.22 41.46 39.52 42.88 34.00 32.98 32.16 32.26 32.56 33.64 33.91 33.92 34.38
39.16 39.56 40.14 40.65 40.95 41.05 41.47 41.90 41.80 42.13 41.93 42.31 41.98 42.02 42.65 43.34 43.82 44.64 45.99 47.55 47.77 47.72 48.02 47.20 46.67 46.39 45.02 45.98 45.06 41.50 41.61 41.52 39.99 39.14 36.15 29.08 30.30 31.81 31.96 31.09 31.95 33.36 32.47
36.73 37.38 37.94 38.01 38.26 38.64 39.25 39.81 39.99 39.99 39.75 39.36 39.25 39.69 41.25 42.48 44.92 46.21 46.93 46.89 46.98 47.32 47.36 45.21 45.68 44.15 42.94 43.58 43.54 41.98 40.33 40.28 39.32 38.46 38.23 29.40 29.18 30.37 29.75 30.04 30.63 31.26 31.83
34.20 34.55 34.69 35.15 35.42 35.70 35.91 36.11 36.28 36.78 36.78 36.69 36.88 36.62 36.77 37.94 40.97 42.20 41.61 44.28 45.03 45.60 45.83 45.32 44.20 42.74 42.62 42.37 41.17 41.33 39.65 37.99 36.71 35.77 31.67 27.56 28.24 28.67 28.97 26.87 27.15 28.88 28.28
32.17 32.38 32.45 33.05 33.21 32.82 32.56 32.42 32.68 32.88 33.56 33.46 33.70 33.95 34.09 35.11 37.89 39.05 39.00 40.14 41.11 41.69 41.22 40.21 40.69 40.51 39.57 41.88 40.67 39.86 37.40 35.63 33.36 33.47 32.40 27.04 26.09 25.96 26.11 27.36 26.63 26.38 27.10
30.80 30.39 30.82 30.26 30.35 30.50 30.93 31.23 31.17 31.44 31.77 32.46 32.47 32.38 32.38 33.25 37.40 39.70 39.95 38.27 37.07 37.13 37.86 37.36 36.67 35.11 36.69 39.06 40.46 40.93 37.98 35.07 33.50 33.11 32.92 29.54 29.21 27.67 27.83 26.35 25.99 23.95 22.21
29.12 29.05 28.84 28.89 28.99 29.56 29.82 30.19 30.85 31.13 30.73 30.56 30.36 30.10 30.44 31.04 36.45 38.08 38.23 36.66 35.64 35.76 35.41 34.81 34.33 33.85 33.59 35.00 36.80 39.01 39.06 38.97 38.72 34.47 33.01 30.66 29.06 27.97 27.86 26.22 25.97 25.83 25.55
28.27 27.66 27.38 27.90 27.65 27.91 27.91 28.13 28.73 29.21 29.02 29.04 29.23 28.77 27.98 29.45 35.46 36.70 36.93 35.04 34.21 34.03 33.93 33.96 33.84 33.95 32.94 32.65 32.81 32.92 34.00 34.11 35.32 35.28 32.49 31.62 31.20 29.91 29.38 28.58 27.50 27.16 26.76
28.30 27.95 27.58 27.10 26.34 26.30 25.62 29.14 29.62 29.72 26.32 27.45 27.80 28.02 27.29 28.88 34.61 35.23 34.92 33.04 32.82 32.74 32.75 32.55 32.77 32.53 33.27 34.73 32.24 31.66 30.81 30.04 33.82 34.52 34.00 33.90 33.94 32.82 31.32 29.05 26.73 26.15 23.01
26.97 27.13 26.75 26.17 24.12 24.30 25.71 27.98 27.98 25.62 28.72 28.66 28.26 27.37 28.30 29.61 32.62 33.64 33.66 32.19 31.89 31.77 30.13 30.40 30.83 31.89 32.98 33.98 32.53 30.83 27.99 28.53 29.73 30.45 31.06 32.75 33.06 32.49 33.38 30.70 28.42 25.95 23.08
24.42 24.45 23.48 23.63 22.41 22.65 23.70 23.67 25.28 24.79 26.69 23.69 26.88 27.24 24.87 28.77 28.83 31.84 33.23 31.82 31.59 30.70 28.93 28.60 29.36 31.73 33.57 33.91 34.36 30.07 29.62 30.37 31.93 30.08 29.66 29.05 29.82 30.43 29.71 29.20 29.70 28.12 24.07
23.56 25.85 25.59 20.87 26.23 24.12 18.66 21.18 25.03 28.91 27.99 28.51 28.28 27.16 26.40 27.72 29.11 30.58 32.36 34.11 33.73 29.01 28.10 28.22 28.89 31.16 32.55 34.23 32.54 32.73 33.71 31.03 29.39 28.16 27.45 26.80 26.83 27.31 27.68 28.23 28.08 27.74 27.89
18.26 21.80 25.72 26.28 27.33 28.47 26.94 24.81 22.90 21.97 26.71 26.36 26.34 25.98 25.16 23.38 22.98 30.49 31.71 33.68 32.95 29.11 29.26 29.26 30.99 31.76 33.42 33.39 33.34 33.54 30.73 28.88 27.65 26.72 26.05 25.70 26.47 26.83 26.12 23.23 21.89 21.67 20.42
12.84 17.80 24.01 25.89 27.32 28.26 28.50 26.47 24.61 18.55 18.81 21.90 20.60 21.23 20.14 19.97 21.62 24.74 30.88 31.51 31.29 28.92 29.11 28.05 30.29 31.81 32.83 32.17 31.53 31.10 29.51 29.03 28.04 26.85 26.27 25.65 25.67 24.45 22.74 21.56 19.13 18.95 16.64
12.26 16.95 19.83 23.52 27.24 27.77 27.72 27.22 25.97 22.03 23.88 22.13 22.43 19.26 18.42 15.10 18.96 29.67 29.70 27.13 24.89 27.10 23.10 25.01 28.65 29.30 29.13 29.38 29.44 29.51 29.12 28.80 27.62 26.87 25.53 23.68 23.12 22.66 21.01 20.52 18.61 17.10 15.27
10.55 14.52 16.66 18.42 22.10 25.64 26.33 25.16 28.88 30.82 30.73 31.96 32.21 27.71 19.52 27.22 30.35 32.50 32.39 31.69 31.60 30.17 25.59 25.14 24.84 26.19 25.98 26.48 26.77 26.33 26.01 26.25 25.38 24.94 23.43 22.74 21.81 20.92 18.42 17.23 16.37 14.37 12.32
5.67 10.22 13.19 17.23 22.13 24.06 22.62 15.52 18.08 20.43 28.46 28.29 29.44 32.17 31.26 30.45 31.14 32.63 32.63 32.33 31.75 28.44 22.75 25.36 25.02 25.18 24.84 24.14 23.47 22.50 20.31 19.08 20.09 21.16 20.67 20.36 19.50 18.11 15.96 14.67 13.60 11.85 10.36
3.60 8.23 11.18 15.90 20.92 23.23 19.80 14.66 15.21 13.80 14.28 19.13 23.51 25.44 30.41 32.27 33.12 33.41 31.86 27.47 21.17 20.56 19.69 18.89 18.51 18.80 18.38 17.92 17.74 17.97 17.32 16.60 15.95 15.53 13.97 14.03 14.02 12.12 10.73 11.13 11.73 8.68 7.59
5.43 9.44 12.27 15.49 18.87 20.45 18.11 15.47 15.38 16.53 13.66 17.70 18.74 21.52 19.63 24.75 24.97 24.73 23.60 17.61 15.50 13.29 12.85 11.47 11.70 11.82 11.63 11.34 11.41 11.11 10.03 8.61 8.68 8.22 7.78 8.55 8.20 7.86 5.73 7.55 8.34 6.88 4.77
5.55 8.81 12.89 15.34 17.42 17.85 15.81 16.83 15.13 13.73 13.89 15.89 16.28 15.36 15.47 15.30 11.92 10.07 9.94 10.76 9.99 8.77 8.24 6.77 5.85 5.46 5.31 4.96 5.30 5.53 5.37 5.08 4.77 4.72 2.07 1.41 1.29 3.35 1.87 -0.02 0.06 -0.81 -1.59
6.88 8.89 10.70 14.52 13.48 14.82 17.06 18.04 16.40 14.48 14.36 13.14 13.87 18.61 17.96 10.19 7.22 5.75 4.48 2.92 3.23 2.99 3.00 2.20 1.02 -0.04 -0.31 0.35 1.05 0.84 -0.64 -1.23 -4.02 -3.42 -5.69 -8.66 -9.67 -8.48 -10.73 -6.26 -14.02 -15.86 -14.93
7.21 8.57 9.29 10.15 12.27 15.50 15.67 16.45 14.67 13.40 12.67 10.84 9.21 10.60 13.26 7.34 4.93 2.49 0.36 -1.18 -2.39 -3.17 -3.53 -3.18 -4.49 -5.52 -6.23 -6.07 -7.83 -6.06 -8.11 -10.24 -15.82 -18.59 -18.32 -20.03 -20.28 -21.68 -19.43 -17.03 -15.87 -16.89 -18.19
6.86 8.02 7.56 8.58 11.80 13.14 12.41 12.60 11.35 10.54 9.02 7.88 7.08 5.71 4.50 2.98 1.33 -0.67 -2.82 -3.92 -4.05 -4.58 -5.97 -6.67 -7.44 -13.27 -15.97 -17.02 -18.57 -14.89 -12.28 -15.71 -17.96 -22.33 -19.52 -21.62 -22.13 -22.27 -22.78 -19.50 -19.55 -18.23 -16.45
5.76 6.13 6.57 7.25 9.45 9.18 8.75 7.69 7.00 6.70 5.53 4.27 3.51 2.94 1.79 0.46 -0.49 -1.55 -2.85 -3.85 -5.13 -9.59 -7.97 -9.40 -11.22 -14.54 -17.52 -21.35 -24.76 -27.01 -25.61 -25.12 -26.99 -24.10 -21.69 -21.91 -23.58 -22.96 -22.42 -22.73 -20.41 -19.52 -16.09
4.12 4.90 5.25 5.97 6.06 5.93 5.41 4.82 3.99 3.43 3.09 3.02 1.83 0.79 -0.41 -0.50 -1.71 -4.37 -6.29 -5.70 -7.24 -8.16 -12.13 -14.92 -17.49 -18.81 -19.95 -21.15 -22.94 -25.12 -24.09 -15.37 -25.41 -24.87 -28.17 -24.03 -23.18 -25.34 -25.86 -24.10 -23.45 -21.19 -18.27
3.08 3.32 3.37 3.73 3.39 3.33 3.34 2.76 2.09 2.01 1.53 0.61 -0.26 -1.35 -2.32 -2.70 -3.76 -4.67 -6.74 -7.32 -6.82 -12.64 -16.15 -19.34 -19.43 -19.70 -21.28 -21.57 -22.78 -17.72 -13.90 -4.74 -14.28 -15.43 -23.22 -21.58 -23.11 -26.66 -27.06 -24.87 -25.75 -22.02 -20.37

GFSGL_sfc_wetblb_087.txt.gz
Wetbulb
38.93 39.99 40.59 40.94 41.55 42.15 42.42 42.81 43.19 43.67 44.00 44.30 44.86 45.42 46.04 46.85 48.14 49.78 50.81 51.27 51.17 50.86 49.74 48.65 48.38 48.89 48.07 47.82 46.83 46.10 44.95 44.42 42.22 44.91 44.68 38.05 34.43 34.21 34.29 35.45 36.27 36.79 37.90
37.25 37.88 38.00 38.39 38.71 38.89 39.19 39.84 40.63 40.85 41.47 42.08 42.36 42.68 43.62 44.47 45.38 45.37 46.10 47.55 48.10 48.05 48.95 47.72 47.71 47.50 46.53 47.59 47.03 45.37 44.56 44.09 42.76 41.36 43.57 34.99 33.60 33.73 34.55 33.12 33.82 34.75 35.22
35.80 36.14 36.28 36.04 35.99 35.90 36.07 36.47 36.94 37.39 37.83 38.46 38.82 39.62 40.77 41.73 43.11 44.21 45.12 45.96 46.39 46.66 47.01 46.67 46.64 46.50 44.87 45.45 45.05 44.83 43.15 42.62 42.41 41.01 41.40 31.60 31.62 31.47 31.62 31.58 32.13 32.41 33.32
34.01 34.20 34.04 34.14 34.06 34.22 34.45 34.56 34.71 34.89 35.16 35.53 36.09 35.99 36.42 37.21 37.96 39.76 41.22 43.33 44.33 44.87 45.40 45.44 45.35 44.04 44.48 44.05 42.12 42.41 41.85 40.23 39.60 39.63 39.37 37.32 29.72 29.56 31.19 29.17 28.20 30.48 30.32
32.50 32.61 32.43 32.78 32.68 32.49 32.38 32.40 32.71 33.10 33.63 33.88 34.11 34.92 35.08 35.37 36.01 37.15 38.18 39.29 39.90 40.43 41.30 41.94 42.77 42.25 39.73 42.53 41.21 40.94 39.95 38.75 38.92 37.16 36.79 31.67 28.66 27.16 27.29 28.22 28.22 28.25 28.97
31.01 30.81 31.05 30.53 30.33 30.62 30.63 30.77 31.08 31.67 32.09 32.28 32.50 32.65 32.77 33.49 36.03 37.49 37.76 37.18 37.01 36.55 37.43 38.27 37.44 35.56 37.25 39.09 40.49 41.16 41.17 37.10 35.84 36.62 36.10 34.79 32.85 29.68 28.99 27.43 27.22 24.72 23.16
30.24 29.63 29.13 29.12 28.90 29.36 29.21 29.28 29.82 30.05 30.67 30.79 31.15 31.20 31.54 31.89 34.97 36.78 36.73 35.37 35.58 36.09 35.98 35.43 34.93 34.60 34.41 35.77 37.20 38.55 38.52 39.55 40.73 37.66 34.82 35.08 33.09 30.08 29.58 27.45 27.62 27.16 26.33
29.05 28.19 27.39 28.00 27.51 27.48 27.20 27.19 28.88 29.60 29.34 29.60 30.03 30.37 30.56 30.98 34.70 35.80 35.82 34.93 34.94 35.22 35.23 34.91 34.35 34.35 34.14 33.79 33.75 33.23 33.46 34.24 35.47 37.07 34.62 33.94 33.33 31.99 31.33 30.25 29.30 28.37 27.42
28.38 28.13 27.69 27.16 25.99 25.80 25.15 26.18 27.30 28.32 29.15 28.77 29.70 29.30 28.89 29.83 32.79 34.48 34.28 33.58 33.18 33.31 33.74 33.93 33.29 32.96 33.98 35.13 33.30 32.14 32.04 32.38 34.40 37.12 36.59 35.84 35.68 34.74 32.07 30.21 27.21 26.42 24.25
26.44 26.18 26.00 25.61 23.80 23.66 25.00 24.83 26.08 25.69 27.39 28.57 28.74 29.00 27.76 27.91 31.08 32.96 33.30 32.71 31.66 32.06 32.72 31.80 31.29 32.68 33.65 34.45 32.41 31.95 30.74 29.99 31.10 31.53 32.02 33.38 33.85 33.09 33.01 31.31 29.79 27.56 24.92
23.68 24.41 25.48 26.71 24.48 25.25 25.58 25.68 24.87 24.14 26.85 27.04 27.39 28.87 27.40 27.34 27.91 31.58 32.94 31.72 31.15 31.17 31.80 30.87 30.54 31.59 32.43 33.62 34.96 32.18 31.27 30.99 31.89 31.58 31.09 30.87 30.97 31.16 31.21 31.36 31.91 29.21 27.09
20.44 20.19 21.11 24.79 27.45 27.87 28.29 28.10 28.11 25.97 26.14 25.89 25.08 26.24 26.88 26.83 27.50 30.28 32.19 32.89 33.74 31.66 30.17 29.61 29.50 31.21 32.33 33.38 33.76 33.08 33.75 32.32 31.24 30.11 29.44 28.98 28.67 28.69 29.25 29.86 29.49 28.64 29.15
14.18 14.15 16.29 20.33 24.06 26.29 28.72 28.54 29.07 28.55 26.75 24.08 23.62 24.22 24.45 25.69 25.16 28.51 30.44 33.11 33.37 30.43 30.21 30.64 31.77 31.95 33.04 32.78 33.39 33.04 30.97 30.56 29.56 28.45 27.58 27.41 28.25 27.91 25.96 23.61 22.95 21.71 20.49
10.04 13.53 16.84 18.33 20.64 23.11 27.18 27.70 28.28 27.49 26.15 25.33 25.34 25.31 25.87 23.27 23.48 25.01 30.33 30.87 29.45 28.97 28.46 27.77 30.82 32.07 33.30 32.39 31.64 31.13 30.61 30.18 29.22 28.26 27.36 26.66 26.89 26.26 23.99 23.40 21.47 21.33 19.39
10.37 13.56 15.75 17.60 18.30 19.90 23.26 26.69 27.88 28.32 27.96 27.18 27.92 27.96 26.69 23.39 24.43 30.52 30.92 28.34 27.20 28.92 24.71 26.08 29.10 29.73 29.96 29.84 29.93 29.40 29.76 29.91 28.57 28.31 27.09 25.61 24.90 24.11 22.00 22.06 20.78 20.15 18.84
8.80 12.69 13.29 13.90 15.67 18.07 22.36 25.18 28.19 29.00 30.85 30.12 30.53 30.36 31.04 28.47 30.72 32.50 32.56 31.70 31.09 30.20 24.10 24.97 26.26 26.85 26.93 27.42 27.35 25.97 25.13 25.38 26.16 26.66 25.91 25.05 23.73 22.70 20.32 19.43 19.24 18.67 17.17
3.09 7.69 10.00 11.81 13.57 15.68 20.45 23.94 20.88 22.76 28.32 29.03 28.07 28.62 31.98 31.29 31.76 32.80 32.74 31.86 30.36 26.91 22.11 21.55 21.58 21.99 22.15 22.10 21.71 21.21 19.86 20.42 22.14 21.94 21.94 21.53 21.23 19.91 18.86 17.76 16.88 15.97 14.46
0.34 4.47 7.20 9.99 12.08 14.84 18.63 21.70 20.15 18.10 17.73 17.87 22.76 25.51 26.35 28.19 29.16 32.18 30.20 25.43 20.10 19.10 17.68 17.04 16.78 17.23 17.18 17.26 17.60 17.69 16.99 16.93 16.42 16.51 16.35 16.27 16.44 16.37 15.76 15.44 15.02 13.54 12.87
2.33 5.88 7.77 9.62 11.85 14.35 17.43 19.45 18.73 17.50 16.62 14.60 16.18 20.28 19.35 22.95 22.75 23.01 22.62 18.15 15.59 13.35 12.68 11.36 11.62 12.14 12.39 12.67 12.85 12.13 12.06 11.46 11.59 11.32 11.21 11.33 12.17 13.16 11.17 11.70 10.80 8.96 8.33
1.92 4.56 7.66 9.45 11.21 13.60 16.35 17.96 17.04 17.31 16.04 15.69 15.92 15.78 16.59 15.79 12.28 10.42 10.42 11.24 10.48 9.41 9.03 8.15 7.48 7.42 7.55 8.53 9.06 9.46 8.58 7.85 7.55 7.04 5.84 6.42 6.87 8.98 7.13 6.35 6.51 5.94 4.77
2.38 4.77 6.39 7.95 9.66 12.73 15.40 17.83 17.29 17.13 15.07 13.87 13.08 18.21 16.50 10.43 7.68 6.60 5.51 4.69 5.34 5.44 5.00 4.23 3.07 2.86 3.32 4.17 5.15 4.82 3.29 2.74 1.47 1.69 1.78 0.94 0.83 1.54 -0.39 1.59 -0.45 -1.94 -1.72
2.84 4.92 6.05 7.30 9.64 11.67 14.39 16.56 15.76 15.56 13.30 11.53 9.13 12.41 13.50 7.85 6.03 4.41 2.74 1.03 0.00 -0.57 -0.16 0.38 -0.95 -1.90 -1.94 -1.30 -0.22 0.53 -0.40 -2.93 -4.26 -4.67 -4.44 -6.56 -5.22 -5.46 -4.52 -3.82 -2.96 -4.07 -4.29
3.29 4.12 6.07 6.74 9.11 10.80 12.51 13.48 12.94 12.06 10.13 9.06 8.18 6.79 6.17 4.65 3.51 1.73 -0.47 -1.36 -1.22 -1.68 -1.85 -1.28 -1.71 -3.95 -5.55 -6.11 -6.01 -3.65 -2.59 -3.92 -5.17 -7.93 -6.45 -7.16 -7.27 -6.10 -5.91 -3.85 -5.64 -5.65 -4.26
1.02 2.90 4.40 5.83 7.38 8.33 9.56 8.90 8.60 8.33 7.30 6.16 5.55 4.81 3.95 2.93 1.89 0.60 -0.45 -1.29 -1.88 -3.47 -3.94 -3.97 -3.98 -4.47 -7.08 -9.19 -12.07 -14.07 -13.77 -13.87 -14.92 -12.38 -10.37 -7.77 -8.39 -10.62 -8.07 -8.81 -7.25 -8.25 -5.93
0.03 1.78 2.31 3.36 4.24 6.24 6.36 6.12 5.67 5.45 5.17 4.91 3.80 3.15 2.28 1.71 0.67 -0.54 -1.59 -2.01 -3.32 -3.19 -4.18 -5.25 -6.60 -8.51 -10.96 -15.23 -16.01 -17.03 -17.04 -7.12 -15.80 -18.22 -15.88 -11.34 -10.54 -13.09 -13.14 -10.21 -10.49 -9.37 -8.90
-0.20 1.36 1.68 2.70 3.15 3.68 4.04 3.87 3.39 3.55 3.03 2.59 2.25 1.46 0.69 0.30 -0.18 -0.98 -2.06 -2.92 -3.35 -4.49 -5.77 -7.86 -9.98 -13.50 -14.86 -13.55 -14.71 -14.90 -14.85 -5.82 -11.53 -15.76 -14.37 -10.78 -11.54 -12.93 -13.94 -12.32 -15.28 -10.07 -9.87

GFSGL_sfc_wetblb_090.txt.gz
Wetbulb
43.85 44.22 44.28 43.84 44.06 44.37 44.12 44.01 43.90 44.86 44.62 44.94 45.40 46.09 46.96 47.89 49.02 49.63 50.39 51.16 50.71 50.96 51.94 51.33 50.77 51.13 50.62 50.25 48.95 48.15 47.15 46.48 43.52 46.88 48.23 45.73 39.46 37.96 37.30 37.43 38.36 38.66 38.44
41.97 42.30 41.75 41.67 41.74 41.49 41.09 40.98 41.20 40.99 41.69 41.72 42.10 42.69 43.38 44.11 44.97 45.48 46.16 47.44 47.56 47.41 47.97 48.53 48.82 49.37 48.48 49.30 49.00 47.20 46.55 46.63 44.51 43.26 45.48 45.29 37.58 37.40 38.65 36.92 36.02 36.08 36.50
40.94 41.23 40.82 40.14 40.07 39.73 39.39 39.56 39.78 39.56 40.20 40.54 40.31 40.06 40.16 40.92 41.50 42.70 43.51 44.33 45.22 45.31 45.45 45.14 46.03 46.74 45.43 46.11 46.41 46.38 46.48 45.55 45.19 43.14 43.12 45.02 36.60 33.49 33.56 33.67 33.54 33.93 34.52
39.66 39.49 38.81 38.28 37.92 38.18 38.37 38.26 38.16 38.54 38.79 38.69 38.90 38.45 38.59 38.59 39.17 39.84 39.72 40.92 41.37 42.06 43.11 43.58 43.62 43.95 43.65 43.54 43.34 43.63 43.72 43.36 42.18 41.19 41.17 41.52 37.71 31.25 32.57 30.91 30.30 31.78 31.85
38.19 37.78 36.83 36.75 36.65 36.53 36.21 35.83 36.02 36.37 36.56 36.64 36.19 36.89 37.46 37.58 36.66 37.47 37.79 38.05 38.17 38.69 39.76 40.32 41.02 40.76 38.82 40.92 41.68 42.28 41.00 40.15 40.25 39.54 38.61 39.24 33.89 28.43 29.34 30.47 30.69 30.83 30.39
36.18 35.27 34.97 34.65 33.95 34.16 33.86 33.35 33.56 34.06 34.79 34.95 35.15 35.08 34.83 34.79 35.84 36.31 37.07 36.40 36.07 35.97 36.44 37.75 38.58 36.19 37.58 38.98 39.73 40.24 40.36 37.85 35.91 37.00 38.14 37.36 36.99 34.00 31.67 30.21 29.25 26.33 25.68
34.80 33.29 32.52 32.42 32.37 32.37 31.86 31.99 32.19 32.77 33.29 32.88 33.60 34.07 34.09 34.91 35.01 35.68 35.92 36.02 36.32 35.98 35.58 35.53 35.70 36.20 35.07 36.38 37.15 37.72 37.54 38.04 39.08 37.24 35.40 36.08 36.13 35.06 31.52 29.59 29.48 29.63 30.01
33.40 32.45 31.61 31.43 31.08 30.98 30.82 30.80 31.33 32.00 31.60 31.75 32.42 32.72 33.09 33.42 34.54 34.80 34.86 35.52 36.08 36.25 36.63 36.69 36.16 35.72 36.24 35.07 34.75 34.16 34.30 34.73 34.70 34.52 34.69 35.05 35.54 33.33 33.19 32.49 31.94 31.16 30.25
31.69 31.06 30.28 29.81 28.75 28.88 28.20 29.49 29.97 29.90 30.37 31.18 31.72 32.22 32.06 32.61 33.65 33.73 33.77 34.16 33.59 33.72 34.76 35.59 35.50 34.54 34.81 35.02 33.56 32.70 32.87 33.29 34.93 36.15 36.77 37.68 36.99 36.73 33.82 32.05 29.70 27.57 26.52
29.17 28.81 29.12 29.25 28.80 27.67 28.37 28.34 29.23 29.21 29.01 29.93 30.14 31.64 31.29 31.61 32.71 32.79 32.84 33.19 31.37 31.51 32.56 32.97 33.02 34.23 33.85 34.08 32.44 32.22 31.22 32.30 32.17 32.08 32.23 33.01 33.57 33.32 34.19 32.41 31.25 27.87 26.32
27.22 27.24 27.15 27.43 27.77 29.02 29.35 30.66 30.48 30.34 30.16 30.63 29.54 30.48 30.80 31.27 31.25 31.63 32.21 32.26 30.88 30.81 31.96 32.80 33.28 32.54 32.57 33.37 34.05 32.43 32.43 33.16 32.43 31.90 31.97 31.83 31.96 31.68 31.85 32.31 32.29 31.89 30.03
24.83 24.13 24.28 24.02 25.42 28.08 28.85 29.84 31.05 31.30 31.05 30.54 29.01 28.62 30.41 30.90 30.33 30.77 31.28 32.17 32.76 32.03 31.67 31.73 32.03 32.69 33.31 33.65 33.82 34.64 34.39 33.12 32.39 31.83 31.41 30.66 29.89 29.98 29.87 28.83 27.73 27.08 27.81
20.72 20.28 21.09 22.74 23.49 25.27 26.16 27.93 28.62 29.90 30.37 29.85 28.24 27.75 28.31 29.73 31.11 30.44 30.35 32.82 33.27 31.79 31.73 31.36 31.60 31.93 32.46 33.29 33.46 33.40 31.54 32.16 31.65 31.03 29.83 28.57 28.36 27.07 26.78 25.02 23.84 23.06 21.48
17.96 19.52 21.12 21.78 22.98 23.89 25.71 26.74 27.73 28.21 28.82 28.95 28.94 27.84 28.40 29.26 30.35 30.75 31.47 32.83 31.02 31.16 31.23 30.92 31.11 31.75 33.10 31.39 31.35 31.55 31.80 31.63 31.12 30.10 28.60 28.26 28.48 27.50 25.38 25.50 24.06 23.84 21.35
16.97 18.19 20.00 21.34 21.41 21.59 23.04 24.39 26.00 28.17 29.43 29.03 29.89 29.50 28.64 28.89 30.34 30.79 31.51 32.38 32.14 31.18 29.67 31.51 30.59 31.08 30.25 29.90 29.65 30.35 31.44 31.63 30.27 29.96 29.03 27.55 26.53 25.36 23.43 24.17 23.39 23.22 20.77
14.41 17.39 18.30 16.97 18.81 19.71 20.68 22.93 26.87 28.87 29.92 30.13 31.94 30.09 30.26 32.07 31.63 31.16 32.64 32.60 31.50 30.55 30.05 28.52 27.79 28.09 27.21 27.89 27.84 27.00 25.91 26.22 27.21 28.04 27.15 26.73 25.25 23.58 22.18 21.93 22.16 21.81 19.32
9.41 11.78 14.00 14.65 16.65 17.39 18.73 19.94 21.22 26.25 28.20 28.54 30.90 29.47 29.30 29.51 30.99 31.99 32.63 29.09 28.21 28.32 26.61 25.46 24.50 24.24 24.18 24.22 23.83 23.24 22.30 22.17 23.89 23.66 23.45 23.31 23.09 22.23 22.01 20.73 20.32 20.01 18.06
5.99 7.97 10.46 13.85 15.00 16.01 17.22 18.50 20.32 21.36 22.20 25.03 27.71 27.39 26.50 26.70 26.73 29.91 30.66 27.49 24.40 21.92 20.63 20.50 19.99 20.29 20.30 20.42 20.46 20.40 20.26 20.34 19.86 20.09 19.72 19.87 20.46 20.87 20.17 19.25 18.67 17.71 16.67
8.23 10.98 11.60 12.62 13.50 14.15 14.95 16.84 19.00 20.98 22.64 23.83 24.10 24.09 22.89 23.31 21.90 22.36 24.03 24.15 20.24 17.92 16.89 16.03 16.51 16.81 16.82 17.35 17.34 16.73 16.54 15.45 16.09 16.79 16.34 16.20 17.10 18.02 16.30 16.12 14.00 12.03 13.45
8.47 7.78 8.62 10.67 12.44 13.46 15.08 16.68 18.30 20.69 22.14 22.40 21.42 21.50 21.50 20.17 19.20 16.11 16.49 17.30 16.23 15.00 14.32 13.56 13.07 13.36 13.60 14.36 14.61 14.54 14.04 13.54 13.25 13.02 12.36 12.73 13.24 14.46 12.86 12.22 12.52 12.30 11.19
7.59 8.50 8.33 9.52 11.96 13.17 14.17 15.28 17.79 20.71 21.44 20.44 19.07 20.12 18.05 17.81 14.59 13.26 12.01 11.59 11.84 11.60 10.61 9.96 8.97 8.54 8.87 9.42 10.42 10.16 9.61 9.45 8.66 8.71 9.12 8.51 8.67 8.42 8.10 8.66 7.97 6.52 6.83
7.63 8.67 9.48 9.65 11.07 12.30 13.95 15.49 17.61 20.27 20.05 17.36 15.34 15.88 14.50 12.68 11.24 9.77 8.34 6.98 6.05 5.90 6.28 6.79 5.79 4.89 4.47 5.35 6.65 7.93 6.98 5.78 5.23 4.96 4.29 2.80 4.61 4.47 5.07 4.80 5.25 4.37 4.03
7.93 7.88 8.86 10.10 11.35 11.63 13.33 15.50 16.24 17.62 16.91 15.26 13.34 11.64 10.76 9.67 8.55 7.60 6.04 5.07 4.82 4.42 4.20 4.88 4.55 2.69 1.91 1.52 1.67 2.87 4.72 4.04 3.08 2.01 2.73 2.63 2.58 3.50 4.34 4.72 2.51 2.45 3.08
6.74 7.22 8.01 8.85 9.83 10.12 11.49 12.16 12.46 11.68 12.23 11.55 10.68 9.62 8.54 7.80 7.14 5.32 4.85 4.39 3.81 3.00 2.47 2.01 1.96 1.29 0.17 -0.48 -0.71 -1.63 -1.80 -2.35 -2.64 -1.84 -0.90 1.83 1.31 -0.74 1.84 0.41 1.32 -0.32 1.12
5.40 5.70 6.08 6.58 7.03 7.65 8.91 9.29 9.15 9.01 8.64 8.67 7.83 7.01 6.41 6.05 5.51 4.89 4.09 3.50 2.30 2.47 1.62 0.59 0.20 -0.37 -1.60 -3.57 -3.55 -4.34 -4.69 -1.09 -5.57 -6.86 -3.94 -1.60 -0.91 -2.58 -2.47 -0.60 -0.89 -0.58 -1.04
3.77 4.14 4.52 4.97 4.92 5.36 5.86 6.33 6.37 6.35 6.01 6.10 5.84 5.60 5.29 5.11 5.00 4.30 3.54 2.28 1.63 1.23 0.71 0.27 -0.58 -2.67 -3.61 -3.81 -4.34 -4.49 -7.32 -3.16 -5.69 -10.89 -3.72 -1.23 -1.91 -2.47 -3.25 -2.92 -4.78 -1.78 -1.94

GFSGL_sfc_wetblb_093.txt.gz
Wetbulb
45.61 45.63 45.21 44.74 45.00 44.91 44.26 43.99 43.71 44.30 43.89 43.70 43.75 44.20 44.82 45.28 46.12 46.45 47.09 47.77 47.68 48.23 49.31 49.02 48.54 49.73 49.82 50.21 50.31 50.11 48.71 48.24 45.27 47.12 48.83 49.34 43.24 41.37 39.63 39.62 39.94 39.77 40.48
44.47 44.15 43.49 43.42 43.33 42.58 41.94 41.88 42.25 41.65 42.73 42.29 42.26 42.49 42.42 42.52 43.05 43.06 43.13 44.20 44.21 44.74 45.95 46.14 45.55 45.87 46.15 47.41 47.90 47.48 47.75 47.80 45.86 43.71 46.18 46.43 44.35 41.47 41.92 39.48 38.47 37.88 37.96
42.82 42.51 41.63 41.12 41.11 40.64 40.57 40.73 40.93 40.78 41.23 41.34 41.07 40.36 40.19 40.69 40.39 41.11 40.79 40.75 41.49 42.25 42.76 42.71 42.32 42.44 41.75 42.83 44.06 44.31 45.31 45.53 45.64 43.79 43.41 45.30 45.49 35.31 34.85 34.52 34.66 35.67 35.76
41.37 40.66 39.65 39.11 39.13 39.08 39.21 38.97 38.74 38.90 38.91 38.67 38.70 38.51 38.60 38.36 38.83 38.37 37.75 38.51 38.92 39.09 39.61 39.78 39.65 39.56 39.68 40.80 40.88 41.13 41.57 41.35 41.82 41.72 41.92 42.17 42.73 34.73 32.85 33.23 33.49 33.02 34.11
39.93 39.27 38.24 38.58 37.81 37.52 36.91 36.68 36.58 36.46 36.59 36.61 35.84 36.34 36.48 36.80 36.28 35.80 35.87 36.45 36.70 36.58 36.97 36.83 37.60 36.89 36.15 37.96 38.10 38.05 38.03 37.77 38.07 38.10 38.55 39.48 39.48 33.64 31.93 33.56 32.07 34.19 31.71
37.77 36.26 35.94 35.87 35.12 35.38 34.76 34.20 34.18 34.48 35.00 34.74 34.28 34.58 34.36 34.67 36.71 36.86 35.79 34.97 35.01 35.00 35.12 35.71 36.20 35.25 36.14 36.95 37.34 38.26 38.56 36.15 34.71 35.15 35.45 35.22 36.09 37.36 37.19 33.72 32.37 28.36 28.78
36.06 34.54 33.59 33.48 33.51 33.50 32.97 32.85 32.87 32.99 33.39 32.86 33.24 33.73 33.47 34.11 35.77 35.82 35.48 33.81 33.75 34.59 34.95 34.89 34.54 34.78 34.53 34.59 35.52 36.31 36.34 36.67 37.30 35.42 33.48 33.91 33.94 35.22 34.66 33.57 31.06 29.57 30.17
34.40 33.66 32.61 32.23 31.68 31.53 31.20 31.06 31.80 32.05 31.38 31.50 31.98 32.22 32.42 32.79 34.72 34.79 34.49 33.20 33.33 33.48 33.62 33.53 33.23 33.34 33.68 33.13 33.73 33.55 33.55 34.07 34.31 34.22 33.71 33.33 33.60 34.07 34.07 34.47 32.15 31.17 30.16
32.73 32.16 31.46 31.16 29.90 29.89 28.51 29.96 30.42 30.46 30.50 30.82 30.74 31.02 30.61 31.24 33.46 33.93 33.21 31.89 31.60 31.84 32.36 32.74 32.66 32.26 34.21 35.43 32.88 31.93 31.97 32.63 35.22 36.27 36.49 36.73 36.54 36.83 36.32 31.83 30.14 28.84 27.26
30.22 29.80 29.94 29.87 28.51 28.44 29.84 29.63 31.08 31.17 30.56 31.16 31.10 31.89 30.89 30.18 32.42 33.16 32.58 31.32 30.13 30.76 31.56 31.75 32.42 34.39 34.23 34.02 31.82 31.59 29.80 31.36 32.53 32.57 32.47 33.09 33.29 32.92 33.81 31.90 31.45 28.75 26.31
28.41 28.29 27.96 28.04 26.69 27.94 28.92 30.26 30.21 30.41 30.36 30.67 30.77 32.10 31.41 30.72 30.79 32.35 33.00 30.85 29.80 29.56 30.43 31.36 32.44 33.05 32.94 33.20 33.69 32.26 32.09 33.52 32.85 31.48 31.80 31.74 31.55 31.21 31.11 31.39 30.44 29.93 29.02
26.14 25.55 25.12 24.41 25.78 27.18 26.22 27.36 28.44 29.76 29.99 30.10 30.53 31.03 31.51 31.56 31.80 32.35 32.93 32.62 32.72 31.98 30.84 30.40 30.62 32.11 32.31 33.27 33.26 33.89 33.55 32.35 31.57 31.59 31.14 29.95 28.72 26.20 25.65 25.02 24.58 23.81 24.49
21.25 19.99 22.07 23.63 24.18 25.49 25.46 25.68 27.17 28.60 28.60 28.90 29.08 29.56 29.74 30.88 31.01 32.46 32.63 32.39 33.04 31.13 30.49 30.97 31.97 31.82 33.10 32.73 32.56 32.28 30.98 31.15 30.97 30.36 28.60 26.88 26.54 26.74 26.82 25.82 25.07 23.71 21.20
18.94 20.85 21.88 22.25 23.70 24.44 25.91 25.95 26.16 26.69 27.27 27.50 28.04 28.56 29.23 29.34 29.23 30.66 31.03 30.57 31.81 30.88 30.64 30.42 31.33 32.52 33.18 31.51 30.26 31.37 31.48 30.92 30.62 29.45 27.93 28.23 28.24 26.18 24.91 25.81 24.11 23.38 20.52
18.12 19.55 21.23 22.64 22.60 22.03 23.29 24.09 24.27 25.41 26.58 26.16 27.11 28.66 28.22 27.80 28.97 31.29 31.74 30.81 32.03 31.53 29.76 29.89 29.05 29.74 29.23 28.99 29.20 28.04 28.43 28.94 29.21 29.74 28.60 27.29 25.92 24.43 23.36 24.77 24.30 22.98 20.26
15.55 18.30 19.55 17.87 19.43 20.05 20.60 21.39 25.36 26.54 27.70 28.97 30.38 29.81 29.60 31.81 31.11 31.04 32.49 33.16 31.57 30.92 28.62 26.67 25.74 26.05 25.55 25.65 25.47 25.48 24.32 23.82 25.05 26.59 26.17 25.64 24.14 23.11 22.39 22.53 22.88 21.48 18.77
10.48 13.00 14.83 15.92 17.47 17.98 18.84 18.93 18.12 21.91 25.55 27.03 28.91 29.99 30.60 31.64 29.99 29.63 30.80 31.59 27.91 28.97 26.62 24.93 23.76 23.22 23.23 23.19 23.03 22.44 21.46 21.61 22.99 22.53 22.41 22.67 22.86 22.06 21.68 20.71 20.50 19.38 17.02
6.67 8.65 11.05 13.63 15.61 16.53 17.01 17.45 18.11 17.27 17.47 20.23 25.88 27.90 29.05 29.41 28.08 27.61 28.61 29.63 26.73 23.66 21.51 20.40 18.81 19.46 20.21 20.18 19.94 19.71 19.96 19.79 19.25 19.05 18.85 19.07 19.99 20.43 19.65 18.42 17.99 17.27 15.38
8.85 11.34 13.04 13.56 13.88 14.56 14.93 15.15 16.80 17.66 18.23 19.63 22.56 25.97 26.24 26.90 26.05 23.85 24.18 25.86 24.38 20.86 19.06 17.09 15.64 16.52 17.62 18.04 17.32 16.65 15.42 14.40 14.82 15.58 15.43 15.14 15.72 16.52 15.02 14.49 12.13 11.46 12.76
9.28 9.33 9.51 10.82 11.79 13.28 14.46 15.01 15.79 16.92 17.83 19.72 21.90 23.22 23.69 21.66 20.74 20.85 18.82 20.09 19.73 18.15 16.93 15.59 14.76 14.63 14.10 14.46 14.41 14.00 13.70 12.70 12.21 12.10 11.53 11.46 11.51 12.18 11.13 8.86 8.05 8.02 5.97
9.15 10.09 9.22 10.21 11.91 13.31 13.68 13.71 14.69 15.90 16.87 19.18 21.93 20.71 21.67 18.56 19.10 16.39 14.96 14.24 14.72 14.15 13.28 12.28 10.79 9.77 9.35 9.27 9.93 9.08 8.27 8.63 7.22 6.43 6.28 5.67 4.64 3.74 3.68 4.49 1.43 -1.15 -1.72
8.25 9.92 10.63 10.32 11.12 11.70 12.89 13.66 13.48 15.19 17.23 19.29 19.48 16.89 16.21 14.44 13.63 12.07 10.78 9.23 8.47 8.55 8.79 9.05 7.77 5.83 4.96 5.41 5.60 7.35 5.61 2.82 1.86 0.97 -0.07 -2.10 0.15 -0.65 -0.41 -0.86 -1.87 -2.87 -4.41
9.30 9.28 9.57 10.35 11.38 11.48 12.32 13.49 14.39 15.04 15.09 16.33 15.31 13.96 12.48 11.40 10.47 9.61 8.15 7.49 7.36 7.03 6.19 6.78 6.35 4.16 3.06 2.63 2.50 1.47 1.23 0.48 -1.44 -3.46 -1.76 -1.89 -3.25 -4.11 -4.02 -4.44 -6.83 -6.88 -6.83
8.15 8.14 8.42 8.81 9.58 8.62 10.38 10.75 11.29 11.41 11.32 11.60 11.59 11.11 10.07 9.45 8.85 7.49 7.08 6.63 6.29 5.46 4.86 4.25 3.77 1.83 1.54 0.70 1.05 -0.07 -1.80 -4.23 -6.54 -8.02 -8.49 -6.03 -6.91 -8.15 -6.64 -9.17 -7.89 -9.55 -7.32
6.59 6.53 6.56 6.84 6.63 7.03 7.47 8.57 8.80 8.96 9.17 8.90 8.82 8.62 8.27 7.97 7.55 7.21 6.64 5.95 4.86 4.44 4.52 3.23 2.65 1.87 0.34 -0.76 -1.49 -3.33 -4.22 -2.29 -9.43 -9.12 -11.97 -10.69 -10.61 -12.23 -12.48 -10.60 -10.30 -9.10 -9.38
4.84 4.84 4.95 5.28 5.14 5.39 5.26 5.30 5.93 7.04 6.95 7.16 7.03 6.89 6.63 6.79 6.90 6.73 6.33 5.06 4.00 3.84 3.54 3.42 2.61 1.38 0.30 -0.34 -1.44 -1.21 -3.46 -1.17 -9.62 -10.11 -12.51 -10.16 -11.62 -11.90 -12.75 -13.19 -14.32 -11.15 -10.99

GFSGL_sfc_wetblb_096.txt.gz
Wetbulb
41.22 40.95 40.44 40.31 40.38 40.05 39.28 39.12 39.22 39.55 39.70 39.57 39.67 39.88 40.01 39.94 40.36 40.08 40.27 40.78 40.52 40.76 41.65 42.18 42.73 43.31 43.68 44.34 44.81 45.18 45.62 46.27 44.34 45.76 47.47 48.07 47.48 43.38 42.92 41.89 42.69 42.91 43.32
40.51 39.67 39.35 39.06 38.54 37.92 37.57 37.81 38.14 37.82 38.57 38.21 38.34 38.22 38.29 38.21 37.88 37.68 37.52 37.47 37.51 37.81 38.85 39.09 39.62 41.05 39.49 41.04 41.46 41.48 42.03 43.10 43.04 40.85 43.29 43.52 44.28 45.78 45.55 42.14 41.97 40.77 40.03
38.82 37.91 37.09 36.72 36.49 36.46 36.53 36.79 36.80 36.45 36.45 36.35 36.35 35.85 35.89 36.28 35.91 36.49 35.96 35.80 36.12 36.67 36.79 36.37 36.51 37.17 36.52 37.53 38.06 38.44 39.11 39.88 40.81 39.64 39.24 41.59 42.37 43.52 41.07 36.98 37.03 38.23 37.12
37.44 36.78 35.76 35.31 35.51 35.44 35.55 35.15 34.66 34.79 34.54 34.37 34.32 34.13 33.84 33.93 34.51 33.93 33.57 34.11 34.30 35.02 35.64 35.46 35.28 35.13 35.46 35.01 34.37 34.54 35.95 36.35 37.10 36.99 37.17 37.87 39.08 39.55 33.18 34.10 36.18 34.55 36.11
36.23 35.11 34.60 34.63 34.37 33.88 32.72 32.34 31.88 31.31 32.30 31.60 31.04 31.14 31.64 32.60 33.51 32.80 32.24 32.56 32.17 32.55 33.04 33.64 33.78 34.20 35.12 35.39 34.55 33.74 33.61 33.54 34.61 34.24 34.12 34.98 35.40 35.87 35.90 36.97 33.25 36.38 35.77
33.86 32.61 32.91 32.09 31.51 30.97 30.56 30.53 30.32 30.32 30.18 30.12 29.85 30.18 30.31 32.19 35.25 36.28 35.27 32.03 31.41 30.87 30.65 31.71 31.81 33.80 34.61 35.86 36.11 36.26 35.22 33.28 32.91 32.72 32.37 31.89 32.74 33.77 34.91 34.56 34.21 33.16 31.65
31.28 30.65 30.44 30.49 30.20 29.66 29.45 29.08 29.23 28.86 28.96 28.58 28.68 28.83 28.98 29.00 34.38 35.37 35.04 31.56 30.63 30.24 30.95 31.73 31.76 32.08 32.45 32.69 33.79 34.43 33.89 34.81 35.97 33.98 31.81 31.86 31.56 32.60 32.51 31.68 31.86 31.99 31.84
30.57 29.58 29.17 29.22 28.03 28.44 27.94 27.25 27.83 27.94 27.37 27.30 27.51 27.66 27.67 29.32 33.49 34.25 33.62 30.82 29.79 29.82 30.00 31.47 31.59 31.73 32.26 32.07 32.71 32.09 31.28 31.63 32.29 33.18 33.09 33.07 33.50 33.82 32.81 32.31 31.98 31.73 29.41
29.65 29.10 28.75 27.76 25.51 25.90 23.12 25.40 26.24 25.25 25.09 24.11 27.26 24.55 24.73 30.00 32.49 32.94 32.70 30.92 30.15 30.11 30.99 31.36 31.64 31.42 33.13 34.86 31.72 30.14 30.37 31.08 33.76 35.10 35.97 36.00 35.85 35.28 34.68 32.12 30.07 27.85 25.46
28.76 28.28 27.84 26.85 23.07 22.21 24.41 23.53 23.97 22.73 28.11 28.28 29.78 30.81 30.41 31.24 32.61 32.72 32.07 30.36 28.99 29.13 30.26 31.16 31.94 32.97 33.08 33.14 30.75 30.34 29.25 30.56 32.10 32.09 31.01 31.79 32.08 31.13 31.99 30.44 29.84 26.20 24.90
26.47 25.75 24.89 24.84 20.98 21.31 21.82 22.78 20.67 21.57 24.71 21.24 25.82 26.61 30.43 28.08 26.36 33.08 33.27 30.94 29.70 29.17 29.67 29.68 30.10 32.04 32.56 33.15 34.07 31.44 31.69 31.97 30.73 29.68 30.23 26.63 26.45 25.24 24.80 24.27 24.49 24.17 25.15
22.86 22.14 19.35 16.63 20.06 21.61 14.11 14.87 16.22 16.92 17.75 19.91 20.65 24.59 24.60 25.41 30.82 32.77 32.81 32.86 32.70 30.35 29.51 29.25 29.57 32.08 32.70 33.68 31.97 33.29 32.74 30.50 29.88 27.11 23.79 24.11 23.27 22.68 23.06 22.33 22.44 22.07 22.48
16.41 12.52 12.40 13.76 15.67 15.64 12.43 12.99 15.37 14.54 15.32 20.06 21.72 24.00 25.60 27.91 30.40 32.40 32.11 32.39 32.35 30.78 31.16 30.87 31.61 32.44 33.37 32.62 31.83 32.24 30.05 27.04 25.20 22.97 22.60 22.30 24.64 25.39 26.18 24.16 23.13 22.95 21.61
9.32 11.60 13.08 12.11 12.52 12.79 17.51 18.73 12.45 12.50 16.47 18.81 21.07 22.60 24.57 26.26 28.45 29.35 29.91 30.63 30.76 31.13 31.82 29.93 30.82 31.75 32.41 30.83 28.82 27.97 28.01 27.84 25.83 23.72 23.03 24.54 25.96 24.41 22.79 24.25 21.77 21.89 19.87
10.78 12.98 12.36 13.70 10.25 12.67 14.90 14.29 16.56 16.37 17.59 18.56 23.48 24.41 24.57 24.93 27.49 30.24 31.19 29.53 30.50 32.23 30.67 28.92 27.99 27.15 26.81 25.95 19.56 20.05 21.68 22.28 23.81 24.86 25.05 24.69 23.81 22.67 21.62 22.61 22.59 20.76 17.72
9.75 11.97 11.00 10.32 10.09 13.04 13.79 15.58 21.59 24.22 25.83 26.92 27.89 27.03 26.82 29.53 30.39 31.23 32.55 30.83 31.23 32.61 22.07 25.47 25.05 24.75 23.85 23.20 14.84 14.68 15.89 18.50 21.06 21.62 21.77 22.33 21.21 20.48 19.90 19.68 19.33 17.17 14.64
5.82 6.02 6.30 9.71 8.61 7.62 8.01 10.27 12.72 16.73 22.19 23.65 24.99 26.55 27.92 28.78 29.82 31.62 31.25 30.03 30.44 30.38 23.84 22.39 23.62 22.65 22.25 16.96 13.62 14.57 15.13 17.58 16.96 18.25 17.66 17.76 19.26 18.08 18.10 17.95 17.80 16.13 13.72
-3.74 4.06 0.56 2.85 3.26 3.76 4.86 5.97 8.28 11.35 11.47 14.38 20.59 23.15 25.81 27.94 28.75 28.96 28.83 27.61 23.95 19.91 21.06 19.34 16.45 17.56 13.96 12.13 12.64 12.90 14.41 13.95 14.16 13.68 14.00 15.17 16.06 15.56 14.68 12.95 13.81 11.62 9.90
-0.52 0.69 0.49 1.08 1.80 3.43 4.46 8.43 10.49 12.15 12.92 14.36 15.95 19.54 21.52 26.90 26.82 26.65 27.49 19.96 19.27 16.74 17.10 17.46 16.38 15.74 15.04 12.54 11.34 10.55 9.64 8.39 9.64 9.74 8.97 9.42 10.53 9.46 8.07 8.73 8.77 9.79 8.18
-4.88 1.49 1.38 -1.80 -0.90 0.36 4.12 7.75 9.95 10.40 11.30 12.10 13.52 15.26 18.23 12.51 9.91 12.17 10.58 12.79 15.00 14.38 16.12 15.20 13.95 12.86 11.72 10.79 8.62 7.22 5.98 6.21 6.16 5.62 4.89 4.50 5.11 5.69 5.35 2.44 2.48 2.17 0.61
-4.78 -3.11 1.46 -2.35 -2.16 0.26 0.99 4.06 8.80 9.92 10.86 10.90 12.83 17.59 23.18 13.09 11.63 5.94 7.74 9.27 9.12 11.18 11.60 11.30 10.20 8.94 8.53 7.90 5.32 2.69 1.74 2.04 1.56 0.78 -0.57 -1.20 -1.88 -1.86 -3.33 -0.75 -3.79 -5.30 -5.89
-5.19 -4.65 -3.78 -3.81 -2.07 0.26 2.78 4.71 6.34 8.56 10.74 12.28 13.49 12.19 19.10 8.32 9.02 6.01 5.25 6.11 6.63 7.84 7.97 8.16 7.14 5.50 4.10 3.55 2.51 3.06 1.43 0.15 -1.55 -1.47 -2.04 -1.87 -3.35 -5.99 -5.77 -6.52 -6.99 -8.69 -12.61
-3.05 -3.83 -4.19 -4.29 -3.09 0.38 -0.81 -1.61 3.06 2.49 5.55 1.99 9.12 7.12 2.53 3.65 6.10 5.82 4.89 6.11 7.01 6.75 6.25 6.38 6.63 5.29 3.90 2.56 1.43 0.42 0.65 -0.54 -3.17 -3.48 -4.65 -6.89 -7.79 -8.93 -12.64 -13.19 -14.42 -14.13 -14.44
-6.06 -5.01 -4.43 -5.12 -5.45 -5.08 -5.45 -3.76 -0.48 1.06 -0.68 -0.08 0.18 0.55 1.02 1.67 3.74 4.92 6.89 6.71 6.55 5.90 5.62 5.04 4.69 3.11 2.50 1.35 -0.57 -2.16 -2.30 -2.32 -5.20 -5.34 -9.18 -8.81 -9.94 -11.31 -14.44 -16.99 -15.51 -15.54 -13.69
-7.60 -6.71 -6.62 -6.64 -8.18 -7.28 -7.13 -7.22 -5.14 -6.04 -6.10 -2.15 -3.83 -2.53 -1.60 1.81 2.93 3.75 5.01 5.77 5.44 4.91 5.22 5.19 4.00 3.17 2.33 1.64 0.86 -0.68 -1.52 -0.10 -6.74 -5.96 -11.46 -10.84 -11.45 -14.62 -18.30 -18.59 -17.68 -16.14 -15.07
-7.97 -8.20 -8.62 -8.58 -8.71 -9.11 -9.34 -8.46 -8.56 -6.37 -5.05 -4.58 -4.90 -4.63 -2.80 -0.15 0.91 4.41 5.09 5.60 4.75 4.72 4.73 4.69 4.22 3.61 3.02 2.59 1.68 1.40 0.36 1.67 -3.51 -4.03 -8.18 -7.17 -10.97 -17.65 -20.53 -19.42 -19.84 -17.97 -16.83

GFSGL_sfc_wetblb_099.txt.gz
Wetbulb
40.35 40.05 39.39 38.70 38.59 38.31 37.77 37.24 37.26 37.66 37.47 37.21 37.23 37.31 37.37 37.45 37.30 37.17 36.67 36.17 35.70 36.11 36.73 36.87 37.18 38.58 38.51 38.35 39.10 39.39 39.96 40.04 37.42 38.99 40.83 41.72 41.25 41.51 42.00 43.52 44.01 44.29 44.78
38.94 38.21 37.64 37.33 36.67 36.20 35.68 35.43 35.73 35.53 35.80 35.65 35.41 35.77 35.71 35.64 35.26 35.39 34.14 34.04 34.15 34.23 35.21 35.38 35.27 36.88 35.11 35.54 36.68 37.13 37.46 37.77 37.37 34.65 37.12 37.90 38.47 40.07 40.28 40.10 41.10 42.22 42.00
37.11 36.44 35.70 35.10 34.69 34.21 34.22 34.20 34.28 34.08 34.03 33.97 33.83 33.96 33.83 33.88 33.74 34.12 33.67 33.59 33.54 33.58 33.63 33.44 33.82 33.74 31.75 33.80 34.54 33.90 34.38 35.27 35.34 34.21 33.90 36.56 36.94 38.36 37.66 38.46 38.62 39.06 39.40
35.77 34.92 34.04 33.88 33.85 33.25 32.99 32.81 32.63 32.86 32.56 32.21 32.05 31.75 31.76 31.81 32.31 31.79 32.07 32.11 32.01 32.41 32.57 32.26 32.22 32.05 33.16 32.96 32.65 32.55 33.23 32.68 32.73 32.52 33.37 34.22 34.91 35.52 36.27 34.78 34.69 36.88 35.99
34.44 33.74 33.05 33.05 32.51 31.66 30.98 31.17 30.87 30.54 30.84 30.69 30.12 30.00 29.92 30.70 31.44 31.49 31.24 30.97 30.06 30.06 30.19 30.16 31.52 32.66 33.41 34.17 33.07 33.13 32.97 32.21 31.81 30.60 31.32 31.27 30.84 31.20 30.62 33.20 32.78 33.05 33.71
32.62 31.72 31.75 31.04 30.26 30.10 30.05 29.99 30.08 29.69 29.44 29.25 28.98 28.90 28.64 30.07 33.49 34.96 33.91 31.91 31.04 29.15 28.71 30.92 31.97 32.03 32.91 33.90 34.44 34.95 34.26 32.11 31.23 30.50 29.70 28.79 29.33 30.73 31.83 31.15 30.57 28.90 27.74
30.30 29.92 30.02 30.05 29.66 29.36 29.17 29.13 29.02 28.59 28.27 27.88 27.66 27.67 27.57 27.45 33.36 33.54 33.15 31.71 30.50 29.30 29.42 30.06 30.55 31.19 31.85 31.90 33.19 34.53 34.10 33.97 34.07 31.74 29.73 29.72 29.74 31.15 31.89 30.51 30.29 29.73 29.46
29.91 29.35 29.04 29.07 28.51 28.52 27.94 27.16 27.65 27.82 27.29 27.13 27.03 26.62 26.59 27.89 33.19 32.93 32.72 31.14 30.35 30.38 30.44 30.48 30.39 30.86 31.74 31.64 32.05 30.45 30.53 31.19 31.59 31.66 31.64 31.86 32.81 32.94 31.88 31.04 30.62 31.11 30.49
29.29 29.00 28.77 28.18 26.69 26.02 23.44 24.43 25.84 24.78 23.85 23.06 26.03 22.51 24.78 25.94 32.97 33.77 32.78 30.86 30.27 30.13 30.52 30.76 30.83 30.94 32.56 33.10 30.96 29.86 30.29 30.97 33.67 34.25 34.55 34.38 33.90 32.17 30.97 26.90 24.71 25.64 21.56
29.09 28.76 28.10 27.25 24.53 22.48 24.25 22.82 23.39 21.14 25.52 25.79 25.41 22.72 23.04 24.03 31.69 33.51 32.66 30.98 29.95 29.85 30.27 30.55 31.10 31.42 32.46 33.12 31.20 31.20 28.80 30.22 28.48 29.97 30.25 31.22 26.84 24.59 26.77 22.51 21.91 22.52 20.33
27.57 26.89 25.97 25.39 22.46 22.90 21.64 22.51 19.54 16.60 19.79 13.60 19.60 21.11 21.00 23.40 25.24 32.73 33.67 30.84 30.09 29.95 29.67 29.45 29.71 31.53 32.53 33.48 34.14 30.32 30.49 31.70 29.83 29.29 25.17 18.83 17.94 19.10 21.70 21.31 22.00 21.10 20.67
25.79 24.51 22.94 19.23 21.02 21.35 13.19 12.66 11.82 10.39 12.10 14.77 15.14 18.16 19.92 22.82 27.17 31.23 33.21 32.72 32.07 29.80 29.31 30.16 30.22 32.14 32.52 33.86 31.94 32.19 32.85 30.94 24.51 15.76 13.27 15.38 16.95 19.34 21.40 22.38 22.32 21.41 21.86
22.91 19.52 16.01 15.38 16.30 15.12 10.05 10.47 12.12 9.96 10.14 13.78 16.19 17.61 19.86 21.74 22.36 30.03 31.28 31.73 31.77 30.17 30.89 31.43 33.20 31.91 32.78 32.20 31.19 30.48 28.53 27.85 14.62 12.42 13.13 16.23 20.36 22.60 23.52 22.44 22.39 22.59 21.35
18.33 18.83 17.65 14.39 10.86 9.98 15.25 16.12 8.82 7.85 8.65 11.85 11.38 20.73 22.28 23.27 23.99 27.61 28.72 29.90 30.33 30.70 31.11 31.52 30.83 31.07 30.97 30.02 26.84 25.39 24.76 21.45 24.83 25.30 18.27 19.47 21.27 19.69 20.49 22.73 21.27 21.74 19.38
18.00 16.53 13.12 10.98 7.70 9.55 12.23 10.61 12.96 12.90 13.29 6.40 10.37 16.19 20.09 22.07 23.42 28.58 29.39 29.00 30.37 30.32 30.13 28.69 23.72 26.51 26.02 25.99 21.04 16.36 19.23 19.93 20.91 21.50 20.69 20.45 20.04 19.65 19.45 19.45 19.45 16.88 14.48
14.59 13.04 10.14 9.04 8.22 10.80 9.40 9.16 18.24 21.52 23.60 24.64 25.42 24.16 20.68 26.55 28.04 29.04 29.68 31.12 32.54 31.61 28.42 25.72 22.15 23.19 22.44 22.30 20.46 18.02 17.79 17.73 19.11 19.34 18.17 17.30 16.99 17.11 17.11 17.06 16.04 13.32 11.82
8.87 7.93 6.60 8.88 7.06 6.61 4.85 3.93 3.74 10.11 19.41 20.73 22.43 23.79 24.66 25.49 27.18 28.54 29.54 29.74 30.28 28.89 24.63 24.38 23.54 20.63 19.18 18.70 17.39 18.00 17.28 17.32 17.38 15.54 13.86 13.63 15.71 15.72 14.86 14.57 15.28 13.33 10.02
2.54 5.68 1.90 1.66 0.97 -0.14 0.96 0.96 0.06 0.75 2.98 4.94 15.42 20.03 22.41 24.04 26.27 27.68 27.51 26.72 14.91 15.05 14.12 20.37 21.05 17.03 16.38 16.49 16.24 15.89 14.79 13.92 13.28 11.16 10.72 9.83 8.63 9.93 9.73 7.84 10.51 7.52 6.95
3.35 0.62 -0.75 -1.99 -1.40 0.10 -0.33 0.62 0.80 1.60 2.45 5.59 6.63 13.45 14.86 21.25 23.95 23.30 22.54 11.13 14.54 13.86 12.07 14.29 16.51 16.09 15.82 15.52 15.02 14.26 12.55 10.95 7.21 5.45 5.56 4.90 5.47 5.63 4.50 4.46 6.57 7.26 6.63
-5.80 0.29 -1.30 -4.08 -3.93 -3.26 -1.08 -0.38 1.15 0.80 0.62 1.49 3.97 8.04 10.58 8.98 2.92 -0.27 -0.69 1.66 1.92 7.65 10.95 9.03 10.67 12.29 11.64 11.42 11.28 10.84 9.52 7.07 2.85 2.17 0.62 0.54 1.73 2.85 3.07 0.67 0.18 0.19 -2.54
-4.71 -5.40 -1.07 -5.63 -5.61 -5.87 -4.54 -2.86 -0.77 -0.39 0.46 -0.76 3.82 10.00 19.40 15.08 1.85 -3.26 -3.96 -3.26 -1.72 0.57 4.46 6.22 6.65 8.43 8.19 8.11 8.37 8.09 6.64 4.56 0.73 -0.66 -1.81 -2.18 -3.47 -1.59 -3.74 0.08 -5.05 -5.60 -6.86
-2.11 -2.82 -3.48 -2.61 -2.32 -2.08 -3.06 -1.66 -1.72 -1.95 0.35 2.44 4.61 3.07 15.42 -0.42 -2.95 -3.51 -3.71 -4.24 -2.27 1.39 4.04 4.53 4.46 4.84 4.93 4.86 4.62 5.67 5.13 3.24 0.64 -0.92 -1.39 -2.01 -3.12 -3.98 -4.25 -3.73 -5.67 -9.58 -14.06
-1.55 -1.75 -3.08 -4.60 -5.31 -4.42 -5.71 -8.95 -7.45 -6.00 -6.23 -5.20 -4.73 -1.49 -4.47 -6.03 -5.80 -5.11 -4.96 -6.05 -1.91 0.94 2.87 4.62 6.01 5.54 5.08 4.31 3.51 2.59 2.49 1.75 0.19 -1.10 0.35 -3.43 -2.77 -4.90 -5.45 -7.14 -13.32 -14.82 -14.95
-3.80 -4.56 -5.29 -8.75 -8.99 -9.33 -9.87 -9.66 -9.58 -6.90 -7.43 -8.61 -10.42 -7.70 -5.20 -6.97 -8.46 -5.81 -3.55 -4.20 -1.86 0.24 2.46 3.56 4.60 3.72 3.69 2.40 1.83 1.28 0.28 0.17 -1.04 -2.35 -2.96 -1.37 -2.50 -5.27 -6.43 -12.09 -16.51 -17.54 -15.30
-9.29 -8.99 -8.50 -8.50 -10.69 -9.97 -10.98 -11.85 -10.24 -13.19 -12.63 -10.73 -8.10 -10.06 -9.42 -8.86 -7.28 -7.54 -4.84 -2.29 0.64 1.26 2.85 4.15 4.63 4.29 3.74 3.08 2.36 1.79 1.57 3.37 -0.62 -2.85 -4.47 -3.55 -3.56 -6.01 -7.55 -13.83 -17.31 -16.76 -15.44
-8.64 -7.34 -7.88 -8.33 -10.07 -12.72 -13.10 -11.87 -12.61 -12.70 -12.16 -9.87 -9.15 -8.21 -7.23 -6.05 -6.23 -5.72 -2.43 2.17 3.56 3.72 3.49 4.82 4.54 4.19 3.76 3.60 3.51 4.02 3.37 4.52 0.44 -1.09 -4.83 -4.70 -5.51 -7.16 -10.79 -16.24 -18.90 -16.23 -13.92

GFSGL_sfc_wetblb_102.txt.gz
Wetbulb
39.76 39.60 39.07 38.24 37.77 37.67 36.95 36.46 36.34 35.77 35.63 35.17 35.43 35.11 34.90 34.53 35.17 34.53 33.93 33.64 33.39 33.43 33.86 33.90 33.86 34.66 34.14 34.26 34.56 34.79 34.53 35.19 33.27 34.46 36.24 36.90 36.28 36.16 37.20 38.19 38.65 38.61 38.98
38.20 37.67 37.07 36.67 36.04 35.36 34.55 34.71 34.81 34.09 34.01 33.65 33.94 33.80 33.65 33.33 33.61 33.01 32.23 32.47 32.03 31.83 32.16 31.99 31.86 33.93 31.75 32.60 33.73 34.18 34.26 34.21 33.05 30.79 33.09 33.88 33.73 35.70 36.36 35.84 36.61 38.01 38.02
36.95 36.03 35.13 34.78 34.23 33.41 33.06 33.49 33.27 32.72 32.47 32.17 32.29 31.99 31.74 31.79 31.82 31.83 32.03 31.97 31.35 31.21 31.20 30.45 30.43 30.44 31.61 32.94 32.93 32.50 32.70 33.26 33.02 31.61 30.82 32.60 33.25 34.46 34.23 34.42 34.58 35.00 35.85
35.02 34.29 33.37 33.00 32.97 32.34 32.02 31.70 31.65 31.64 31.12 30.81 30.70 30.11 30.07 29.88 30.67 31.51 31.65 31.23 30.60 30.44 30.69 30.25 30.02 31.38 31.27 31.38 31.39 31.07 31.96 31.47 31.19 30.50 30.02 30.15 31.10 32.26 32.74 30.95 30.24 32.50 32.14
33.78 33.31 32.62 32.03 31.80 30.84 30.18 30.10 29.85 29.64 29.74 29.58 29.38 29.18 29.15 29.99 31.32 31.33 31.20 30.94 30.81 29.78 29.03 29.99 31.36 31.60 32.47 32.90 31.76 31.45 31.45 31.01 30.86 29.95 29.05 29.32 29.50 29.12 28.80 30.39 30.10 31.30 30.57
32.82 31.89 31.31 30.33 29.35 29.07 29.15 29.45 29.60 29.34 28.95 29.11 28.79 28.71 28.19 29.52 33.57 33.79 32.85 31.04 30.91 29.36 28.43 29.71 30.77 31.19 31.98 33.05 33.64 34.04 34.00 31.54 30.24 29.41 28.86 28.32 28.76 29.14 29.83 30.31 28.22 27.13 24.78
30.59 29.97 29.58 29.26 29.15 29.29 29.36 29.31 28.78 28.42 28.23 28.16 28.13 27.97 27.65 27.54 32.80 32.67 32.26 30.78 30.05 29.83 29.73 29.53 29.91 30.48 31.25 31.29 32.62 33.55 32.34 33.22 33.69 31.34 29.54 28.94 29.05 30.90 30.14 27.81 26.95 26.47 26.37
29.82 29.62 29.32 29.49 28.79 28.42 28.05 27.58 27.75 28.14 27.60 27.43 27.38 27.33 26.88 28.11 32.26 33.14 33.18 30.63 30.37 30.30 30.32 30.31 30.06 30.29 31.23 30.82 30.62 30.65 30.67 30.96 31.35 31.95 31.68 31.06 31.95 31.40 28.32 26.89 25.00 23.95 26.03
29.66 29.72 29.15 28.73 27.33 26.41 25.79 25.87 26.72 25.89 24.85 23.59 25.99 23.28 22.21 25.50 31.20 33.36 32.05 30.00 29.18 28.43 29.23 30.40 30.55 30.21 32.00 32.52 30.47 30.12 30.91 30.18 31.90 34.08 33.16 33.41 32.40 29.90 28.93 20.23 17.87 18.13 20.87
29.85 29.62 28.67 27.52 26.32 25.23 25.92 25.45 25.32 24.00 25.10 25.46 24.91 23.06 21.81 19.68 28.07 32.23 32.42 26.93 25.59 26.93 28.48 30.29 30.99 31.40 32.07 32.51 30.81 31.05 28.10 27.83 30.71 29.76 30.11 27.14 23.97 22.62 25.46 16.44 19.72 14.51 16.38
28.88 27.76 26.77 25.83 24.97 24.97 24.71 24.33 22.14 20.91 21.34 15.60 18.79 18.55 16.58 19.13 21.45 31.23 32.84 27.57 26.92 29.00 29.14 29.03 29.82 32.28 32.91 32.87 33.67 30.03 29.30 31.59 29.80 27.52 18.42 15.57 15.90 16.97 19.78 20.59 20.63 18.77 13.79
27.58 26.18 24.58 23.40 25.27 24.13 22.38 20.07 19.55 17.51 14.33 12.68 11.87 13.21 17.04 19.28 25.53 28.77 31.04 31.93 31.83 29.20 28.65 29.15 30.20 32.58 33.87 32.50 32.37 32.45 31.41 30.33 25.27 13.34 10.68 13.03 19.87 20.21 21.21 20.10 19.79 19.39 20.99
25.85 23.73 22.31 22.40 22.98 21.73 19.58 18.90 17.48 13.75 13.09 12.45 13.39 10.37 12.96 18.25 17.82 27.72 29.40 30.37 30.53 29.03 30.03 30.71 32.28 32.47 33.61 31.50 31.44 30.41 26.90 24.14 26.21 18.68 20.01 20.45 20.00 19.84 20.01 20.21 19.38 19.58 19.45
23.41 22.07 21.16 20.65 19.70 19.68 20.72 19.12 14.22 11.85 8.68 10.10 8.73 8.79 10.51 16.36 18.18 20.35 23.73 28.18 29.46 29.34 30.21 29.00 29.10 31.39 32.20 30.94 25.99 24.40 23.49 19.68 20.70 23.31 23.65 17.56 17.52 16.19 16.01 18.95 17.40 18.12 14.48
22.26 20.40 20.05 20.08 18.82 16.64 16.63 15.72 15.95 12.04 12.72 7.17 6.25 8.53 8.99 13.34 21.95 27.07 27.55 27.19 28.20 29.45 30.43 22.63 15.27 17.56 19.45 21.80 19.85 18.39 15.31 17.85 18.34 19.03 17.45 17.65 17.31 17.84 16.72 17.93 17.05 14.22 11.80
19.90 19.07 19.15 16.93 15.49 14.99 14.57 14.10 18.48 21.01 23.28 23.53 23.83 19.44 12.64 24.00 26.13 27.42 28.72 29.32 29.72 30.34 26.48 23.05 22.65 17.91 22.60 21.11 18.39 16.94 17.29 17.33 18.52 17.74 15.64 14.94 12.35 13.35 15.67 16.12 14.11 10.39 8.58
21.19 17.85 15.74 15.02 13.57 11.68 11.29 10.81 6.62 9.71 18.36 19.67 20.85 21.76 22.84 23.73 25.07 26.66 27.54 27.22 26.59 25.76 15.47 10.50 13.98 18.56 21.04 20.21 15.71 15.70 16.18 17.74 17.33 15.89 12.56 11.81 13.97 13.30 13.10 13.09 13.45 12.28 8.38
15.96 14.87 13.73 11.97 11.36 8.38 7.36 6.86 6.37 5.51 1.58 1.49 12.94 17.60 20.31 21.88 23.76 25.16 24.12 19.20 8.40 9.91 1.58 5.21 12.31 15.59 13.16 12.82 13.36 13.71 14.04 15.61 15.23 13.57 10.77 8.03 7.33 7.72 7.09 5.88 7.89 5.00 4.09
10.29 7.73 7.29 6.11 6.16 6.73 5.79 4.93 2.58 0.13 -1.50 -2.23 -1.05 9.96 11.08 19.58 21.08 20.24 18.91 0.13 -1.32 -0.60 1.39 4.98 5.85 6.24 6.74 7.84 10.65 11.52 10.95 10.95 11.34 8.52 4.80 3.89 4.25 3.92 2.84 1.07 2.89 4.73 4.83
7.03 7.80 6.24 4.30 1.76 0.73 1.77 1.10 1.03 1.04 -0.78 -0.96 -0.24 0.70 1.05 4.66 0.44 -5.68 -6.40 -7.67 -8.03 -7.67 -4.22 -1.50 0.67 -0.23 0.66 4.38 7.04 7.18 7.71 6.96 5.30 1.92 2.06 1.02 2.79 1.97 4.59 -0.55 -0.72 1.21 -2.14
4.06 3.41 2.65 -0.67 -1.53 -1.05 -0.14 -0.07 0.01 -2.95 -2.23 -3.68 -0.82 3.79 17.07 4.96 -3.50 -8.57 -8.57 -8.75 -8.93 -8.75 -7.85 -6.94 -3.86 -2.23 -0.28 1.47 4.62 5.69 3.93 5.27 2.34 0.91 -0.17 0.05 0.53 2.08 1.44 2.74 -0.06 -3.93 -5.19
2.91 2.49 0.15 -0.03 -1.42 -0.27 -2.79 -1.27 -0.98 -3.86 -5.31 -4.40 -2.60 -1.88 12.79 -3.31 -7.12 -8.21 -8.39 -9.12 -9.66 -8.21 -6.76 -5.49 -4.58 -0.82 0.57 1.98 3.71 4.55 5.08 3.37 -0.29 -0.47 -0.53 -1.04 -1.49 -0.16 -0.86 -0.86 -2.75 -3.28 -4.50
2.01 0.40 0.18 -5.49 -3.52 -4.95 -7.31 -9.48 -8.21 -8.57 -8.57 -9.66 -8.39 -6.03 -8.39 -9.84 -10.57 -10.39 -9.48 -9.84 -10.57 -8.39 -6.76 -4.95 -2.42 -1.04 1.65 4.40 4.53 3.28 2.20 2.61 2.07 -2.12 -2.25 -1.79 -1.43 -3.61 -5.37 -3.46 -4.69 -8.24 -6.47
1.57 1.66 0.62 -2.65 -4.95 -6.58 -5.85 -9.66 -11.11 -8.57 -10.02 -10.39 -13.29 -12.56 -9.30 -11.11 -12.92 -11.11 -9.12 -8.59 -10.39 -9.66 -8.03 -6.40 -4.40 -2.62 -1.05 1.95 3.85 3.13 2.23 1.28 0.12 -0.72 -0.77 -1.14 -0.85 -2.71 -3.99 -5.39 -3.78 -4.48 -4.11
-1.55 -0.97 -0.67 -1.97 -4.41 -5.31 -7.85 -10.93 -8.57 -10.93 -10.39 -9.12 -12.02 -12.38 -12.56 -13.29 -12.38 -12.38 -11.47 -10.57 -8.57 -6.76 -4.77 -4.77 -3.16 -1.74 0.14 1.65 3.75 3.74 2.83 4.98 4.94 1.09 -1.70 -2.52 -2.37 -2.67 -3.11 -4.10 -4.47 -5.55 -7.07
-2.70 -3.74 -4.62 -7.49 -8.93 -8.75 -6.40 -4.43 -3.61 -2.61 -3.46 -5.21 -4.53 -8.79 -12.02 -12.56 -10.22 -10.57 -9.87 -9.67 -6.23 -4.78 -4.62 -4.05 -2.47 -0.44 0.41 2.87 3.71 5.58 5.65 7.29 5.09 2.77 -0.28 -2.30 -2.80 -3.32 -5.19 -5.74 -6.15 -6.56 -6.75

GFSGL_sfc_wetblb_108.txt.gz
Wetbulb
45.28 44.28 45.13 44.25 44.25 43.63 42.44 40.64 39.05 37.53 35.23 34.19 33.90 33.61 33.44 32.67 32.60 31.98 31.76 31.35 30.72 30.26 30.25 30.05 29.69 29.82 29.40 30.00 29.99 30.11 29.38 29.51 28.20 29.47 30.91 32.12 31.94 31.76 32.25 32.49 32.87 32.32 32.75
41.80 42.13 41.01 40.78 40.59 39.24 37.86 36.20 36.94 34.21 33.61 33.33 32.79 32.60 32.30 31.69 31.52 31.28 30.54 30.02 29.58 29.57 29.41 29.18 28.39 30.82 28.71 28.95 29.56 29.16 29.21 30.32 29.88 27.60 29.95 30.29 30.22 30.86 30.64 29.75 31.18 32.65 30.97
39.87 39.60 38.65 38.06 37.39 36.68 34.39 33.71 33.47 32.94 32.34 31.65 31.46 31.21 30.97 30.86 30.55 30.61 30.44 29.76 28.90 28.67 28.30 28.35 28.76 29.07 28.29 28.62 28.77 28.31 29.83 31.37 30.83 29.23 28.25 29.49 29.60 29.82 30.38 29.85 30.17 29.33 30.58
37.97 37.85 36.84 36.06 35.49 33.83 33.25 32.51 32.35 31.85 31.31 30.59 30.34 29.97 30.34 30.25 30.81 31.00 30.13 29.07 28.75 29.02 29.36 29.49 29.82 29.35 28.94 28.94 28.94 28.06 29.92 29.97 29.86 29.34 28.33 28.47 29.32 30.70 30.06 28.20 26.87 28.15 27.01
36.43 36.03 34.61 33.64 32.59 32.23 31.84 31.34 30.74 30.25 30.09 30.07 29.48 29.05 29.37 30.32 30.80 30.22 30.14 29.64 29.09 28.57 29.24 29.68 30.03 30.10 31.85 31.81 30.21 30.32 30.37 30.07 29.37 28.18 27.85 27.88 27.66 28.03 27.26 29.21 26.46 26.52 25.62
35.29 34.49 32.37 31.56 31.42 31.23 30.69 30.35 29.99 29.56 29.36 29.14 28.55 28.64 28.86 31.36 35.16 33.61 31.05 29.54 29.39 28.91 28.52 28.98 29.51 29.32 30.34 32.02 32.43 32.65 32.26 30.06 28.64 28.83 28.50 26.85 28.20 28.06 28.86 25.78 25.38 22.92 20.47
32.65 31.15 31.12 31.00 30.66 30.46 29.98 29.61 29.06 28.22 28.09 27.88 27.81 27.88 28.38 30.46 34.34 33.57 32.29 29.70 29.09 28.71 28.93 29.02 29.09 29.14 29.04 29.94 31.34 32.23 31.70 32.98 33.37 31.28 28.28 27.44 28.95 29.24 27.21 23.25 23.97 21.26 18.55
31.67 31.28 29.93 30.04 29.65 29.02 28.58 28.17 27.62 27.47 27.08 27.13 27.24 27.39 27.79 29.69 34.22 33.68 32.46 29.85 29.03 28.84 29.01 29.03 28.87 28.62 28.88 29.92 30.14 29.71 29.95 30.76 31.42 31.23 29.71 30.98 31.10 30.17 26.68 22.89 18.40 11.44 16.04
30.91 30.74 30.30 29.89 28.80 28.17 27.76 27.20 26.88 26.44 25.81 25.64 26.96 26.15 27.03 28.06 33.03 33.73 32.51 29.87 29.60 29.39 29.36 29.11 28.17 27.82 30.69 32.37 30.19 29.06 26.62 30.37 32.97 33.42 33.62 32.92 32.50 30.27 27.96 11.80 12.92 15.49 8.54
31.84 31.35 30.28 29.98 29.51 28.52 27.99 26.93 25.82 26.38 26.88 27.31 26.74 25.13 25.76 25.76 29.84 32.48 32.99 29.95 27.45 27.68 27.54 28.55 29.25 29.45 31.68 32.37 28.21 23.62 21.41 22.34 28.79 28.51 28.42 28.96 24.54 21.88 26.45 16.32 17.01 15.42 7.15
32.23 30.34 29.41 29.18 29.19 28.76 27.61 26.18 25.85 25.74 25.40 23.59 23.75 23.42 24.25 25.21 26.34 31.11 32.68 30.38 28.15 25.62 25.47 25.64 27.30 31.13 31.78 32.52 33.01 28.63 23.40 28.68 28.50 26.11 25.07 21.35 17.50 15.50 17.47 18.40 19.32 17.06 9.36
30.64 29.81 29.19 28.81 28.43 27.78 26.81 25.15 25.05 24.51 22.89 21.96 22.39 22.28 23.35 23.98 25.65 29.22 31.02 31.48 30.57 24.10 23.64 26.03 26.29 30.41 32.21 32.61 29.58 31.63 32.87 30.71 24.67 25.24 25.10 25.00 23.93 22.92 19.72 16.75 15.97 19.91 19.79
30.34 29.80 28.61 27.65 27.16 26.62 25.28 23.75 23.12 23.29 22.91 21.61 22.55 22.64 22.40 23.10 23.26 27.68 29.20 29.47 30.02 26.35 26.57 27.68 30.62 31.47 31.65 29.46 29.86 29.99 27.25 19.65 17.62 13.36 19.83 24.77 25.40 20.42 15.68 13.88 11.98 14.42 18.10
29.91 27.56 26.26 25.88 24.38 24.66 24.67 24.09 23.26 22.68 22.50 22.03 22.62 22.47 21.80 21.52 21.64 22.57 23.10 22.02 25.11 26.81 27.70 25.28 27.63 29.75 27.92 25.32 19.01 22.07 21.25 24.61 21.30 15.89 12.34 14.06 14.23 12.63 12.72 13.49 11.50 10.97 8.04
28.12 25.90 25.99 25.72 24.86 23.44 23.55 23.43 23.18 23.29 24.84 23.77 23.52 22.94 20.62 19.46 21.34 23.76 22.23 19.50 19.25 23.05 21.29 15.61 17.48 14.11 12.82 14.09 12.45 10.89 12.48 15.41 16.88 10.74 9.70 10.90 12.05 13.43 13.87 11.29 10.00 5.82 7.16
26.00 25.57 25.41 24.19 23.22 22.61 21.36 19.96 24.10 24.09 25.41 25.97 25.42 22.35 20.75 23.30 25.51 27.36 28.09 28.63 28.66 26.75 11.97 8.97 8.14 9.33 11.02 10.97 9.00 10.90 9.62 11.10 14.68 11.77 7.87 8.42 10.04 14.74 15.31 11.06 7.83 6.34 7.31
27.15 25.85 24.55 23.91 22.81 21.10 19.91 18.93 17.90 20.75 26.05 27.55 26.95 26.61 25.76 23.65 26.28 26.92 27.50 27.80 23.18 18.39 5.16 2.07 3.66 3.45 4.22 8.15 7.18 7.61 10.26 9.98 10.98 9.39 9.72 10.92 11.56 12.29 11.44 10.99 9.80 10.81 7.48
28.10 26.13 24.87 23.79 22.74 21.25 20.65 20.42 20.67 18.27 16.51 15.75 23.56 23.05 24.30 25.21 25.25 25.98 25.81 18.57 7.39 5.45 -0.69 -1.07 -1.78 -2.85 -1.70 -0.27 0.83 2.99 4.13 4.54 6.66 8.58 8.62 8.46 7.91 6.66 8.39 7.53 8.00 3.25 3.88
25.23 24.22 25.14 23.56 22.41 21.48 20.50 19.66 19.09 17.80 16.75 13.66 10.11 17.16 19.94 23.00 24.53 23.79 21.30 5.09 3.83 -1.40 -5.00 -7.25 -8.28 -8.81 -6.92 -6.45 -5.49 -4.62 -2.08 0.60 2.69 1.34 4.16 3.82 3.08 4.48 7.62 7.33 5.87 7.27 5.07
24.60 24.51 22.71 21.43 18.91 18.51 17.71 16.79 14.73 14.38 13.73 12.99 11.07 12.21 8.71 8.90 10.93 3.12 -4.92 -6.76 -7.29 -4.73 -6.67 -10.24 -11.28 -13.98 -12.09 -11.22 -10.57 -9.30 -8.30 -6.33 -3.43 -2.46 0.33 0.58 2.53 3.51 5.97 5.25 5.06 2.28 2.11
22.47 20.33 19.97 18.03 17.76 17.16 15.66 15.06 13.95 12.78 12.29 11.32 11.39 10.15 13.18 8.49 7.76 2.18 -1.76 -6.42 -3.88 -5.93 -6.42 -9.86 -11.75 -14.05 -14.19 -14.61 -14.25 -12.27 -11.24 -7.63 -6.65 -5.73 -3.79 -0.06 1.01 -0.54 1.42 3.48 3.75 2.80 0.32
17.48 15.50 15.22 16.16 15.56 13.87 13.99 11.66 10.79 10.43 10.04 8.77 5.56 3.33 19.58 5.91 0.71 -0.10 -2.20 -5.18 -6.84 -8.36 -9.70 -10.66 -10.93 -10.91 -10.46 -11.29 -11.47 -12.53 -11.46 -10.60 -11.44 -8.03 -5.71 -1.79 -1.22 0.49 1.25 2.34 2.92 3.09 2.14
14.01 13.02 12.11 10.26 10.68 9.61 5.08 5.81 6.85 7.54 6.44 5.72 3.14 3.93 -1.27 1.80 0.30 -1.38 -2.88 -6.68 -10.68 -11.46 -13.20 -12.54 -9.44 -9.10 -11.52 -11.44 -9.68 -6.82 -8.88 -9.78 -9.31 -8.76 -7.30 -2.93 -0.67 -0.91 0.62 0.85 2.37 1.83 1.09
11.42 11.36 11.11 9.39 8.16 7.15 6.86 5.79 5.61 5.30 3.94 2.39 1.10 0.75 1.72 -2.07 -4.97 -4.86 -7.91 -11.66 -14.96 -15.99 -16.10 -12.13 -10.02 -7.61 -9.01 -10.21 -12.93 -12.45 -9.54 -8.79 -12.15 -7.20 -5.73 -5.26 -1.67 -0.19 -0.60 -0.65 0.55 1.10 0.95
11.94 11.26 10.81 8.96 8.25 7.23 5.78 5.77 3.46 2.95 3.58 4.46 1.46 0.30 -3.04 -5.66 -7.21 -9.50 -10.85 -12.33 -12.53 -9.74 -5.19 -6.47 -6.28 -7.95 -5.88 -5.69 -7.59 -9.45 -9.53 0.59 -4.72 -5.11 -4.30 -2.49 -4.06 -2.62 -0.67 -0.71 -0.61 -0.04 -0.15
9.63 10.22 10.24 9.86 9.24 8.52 7.87 6.73 5.82 4.18 3.71 2.09 1.12 -0.54 -2.06 -4.51 -4.02 -6.43 -6.82 -6.56 -4.58 -3.17 -4.25 -4.89 -3.85 -5.04 -7.12 -6.42 -5.95 -3.07 -3.34 2.58 -1.37 -1.54 0.20 -0.96 -2.64 -4.57 -1.02 -1.35 -1.93 -1.52 -1.54

GFSGL_sfc_wetblb_111.txt.gz
Wetbulb
47.86 49.12 51.14 52.02 51.45 49.66 48.70 45.74 43.75 40.90 39.53 38.24 37.38 36.56 35.81 35.38 35.35 35.18 34.84 34.38 33.73 33.47 33.54 33.29 32.61 33.59 33.32 33.18 33.75 33.56 32.66 32.43 29.81 31.74 33.30 34.31 33.24 33.27 33.86 35.12 35.09 34.83 34.64
45.67 45.90 45.88 45.57 45.70 45.83 44.49 42.33 40.47 38.17 38.02 36.55 36.09 35.24 34.56 34.31 34.35 34.15 33.35 33.10 32.87 32.27 31.94 31.92 31.62 31.79 31.80 32.37 32.62 31.99 32.01 32.46 30.63 28.49 31.38 31.74 31.82 33.44 34.02 33.12 33.12 32.96 33.15
42.74 43.31 41.76 41.73 42.92 42.25 39.76 38.66 38.07 36.87 35.66 34.83 34.60 33.97 33.23 33.31 33.26 33.20 33.03 32.27 31.81 31.50 31.30 31.11 31.01 31.35 30.87 31.44 31.70 31.43 31.73 31.66 31.72 29.89 29.36 32.08 32.64 33.55 32.70 33.02 32.57 32.40 31.88
40.68 40.90 40.03 39.26 40.22 38.86 37.38 36.12 35.18 35.32 34.17 33.68 33.47 32.76 32.74 32.58 32.72 32.46 31.90 31.37 30.87 30.85 31.13 31.40 31.28 31.12 30.96 31.21 31.00 31.33 31.54 31.28 31.11 30.34 29.82 30.56 31.59 32.21 32.29 30.43 29.18 30.83 29.66
38.68 39.43 38.39 37.64 36.88 35.33 34.39 33.91 33.34 33.71 33.08 32.75 31.75 31.61 31.79 32.22 31.86 31.95 31.43 31.06 30.50 30.23 30.79 31.00 31.54 31.18 32.08 32.44 31.52 31.35 31.38 30.84 30.29 29.63 29.39 29.79 29.46 29.64 28.58 29.29 27.73 28.41 29.11
37.75 37.87 35.34 34.38 33.83 33.46 32.60 32.16 32.25 31.76 31.54 31.17 30.66 30.73 31.08 31.46 34.62 33.79 32.15 30.85 30.39 29.81 29.53 30.42 31.08 30.89 31.66 31.76 31.93 32.34 32.21 30.60 30.15 29.91 29.66 27.85 27.97 29.97 30.29 27.89 26.65 24.55 23.30
36.38 33.84 33.36 33.17 32.56 32.40 31.72 31.20 30.64 30.56 30.48 29.90 29.85 30.19 31.15 32.99 35.20 34.31 32.86 30.84 30.33 30.25 30.18 30.06 29.94 30.03 30.77 30.63 31.19 31.67 31.23 32.37 33.15 32.54 29.03 28.93 29.21 30.94 29.22 25.52 25.43 23.29 23.13
33.28 33.26 32.15 32.42 31.93 30.84 30.76 30.25 29.67 29.61 29.39 28.95 28.83 29.72 30.88 32.23 35.15 34.24 32.42 30.70 30.56 30.40 30.61 30.68 30.50 30.37 30.64 30.42 30.76 30.76 30.77 31.16 31.63 32.20 32.21 32.03 32.56 32.53 29.49 27.11 23.87 21.18 22.46
33.02 32.56 32.37 32.32 31.15 30.14 29.53 28.90 28.82 28.68 28.46 28.80 29.12 28.80 29.89 31.35 34.91 34.43 32.50 30.53 30.13 30.24 30.44 30.82 30.80 30.40 30.65 31.77 30.35 27.94 29.29 30.18 32.74 33.76 33.23 32.29 31.75 30.60 30.07 25.35 23.67 20.86 20.89
33.40 32.77 31.97 31.76 31.45 30.52 30.36 29.13 28.60 29.60 28.58 28.55 28.34 28.62 28.72 30.32 34.62 34.68 33.46 31.06 30.32 29.73 29.91 29.88 29.37 30.28 31.25 31.83 29.70 29.82 29.35 30.21 28.40 31.33 30.78 29.37 27.10 25.23 26.99 24.79 23.38 20.34 18.72
33.29 31.98 30.98 31.07 31.27 31.12 29.74 28.70 28.61 28.35 27.92 27.82 27.39 26.54 26.82 27.57 29.74 33.60 34.77 31.48 30.54 29.65 29.06 28.58 29.33 30.94 31.47 31.85 32.64 31.32 29.76 31.02 31.11 30.87 28.87 26.89 26.74 25.23 24.98 24.81 23.66 22.48 19.10
31.53 30.79 30.48 30.45 30.24 29.61 29.41 28.28 28.03 27.76 26.96 25.59 24.74 23.96 25.01 25.72 27.62 32.55 33.89 34.03 32.70 29.64 28.31 28.38 28.82 30.24 31.04 32.21 32.21 32.00 31.94 30.96 28.66 26.73 26.53 25.83 27.12 26.75 26.46 25.43 23.82 22.92 23.63
30.36 30.36 29.95 29.93 29.62 29.64 28.54 27.15 26.58 26.59 25.74 24.27 23.97 23.66 23.47 24.50 25.84 30.20 31.93 32.70 32.41 28.66 28.80 28.58 30.03 30.80 31.53 30.87 29.68 29.62 25.83 26.78 27.28 24.17 23.50 23.58 25.49 26.70 24.50 22.48 21.35 19.29 22.38
30.23 29.46 28.75 28.56 27.61 28.05 28.47 27.56 26.93 25.58 24.79 24.00 24.20 24.44 24.30 24.08 24.13 25.50 27.38 29.72 29.52 29.83 29.41 29.02 28.47 29.40 29.06 27.01 22.34 23.74 22.76 23.60 24.87 25.11 22.36 21.57 21.12 21.79 21.92 21.92 20.13 20.08 18.34
28.91 27.26 27.29 28.02 26.95 26.30 26.76 26.64 26.39 27.07 27.53 25.62 26.12 26.33 24.40 23.47 24.44 26.32 25.91 24.27 24.72 25.84 24.35 23.36 24.85 21.77 21.12 20.28 18.89 17.73 18.76 18.90 19.56 21.05 20.30 19.35 18.65 18.67 19.44 20.28 18.51 16.80 16.98
25.87 25.74 26.92 26.60 26.83 25.84 24.32 23.70 26.83 27.11 29.21 29.52 28.90 27.67 25.12 26.50 28.18 28.57 28.60 28.77 28.92 29.55 23.10 20.79 19.21 18.11 17.34 16.79 15.24 15.33 16.19 15.18 17.49 18.03 17.14 16.56 16.62 16.37 16.84 18.00 17.34 15.88 15.87
26.14 25.93 26.57 25.46 25.54 24.25 23.86 23.21 21.68 24.79 28.19 28.31 28.43 28.66 27.80 27.07 27.90 28.81 29.28 29.66 29.68 26.34 19.10 15.47 15.72 15.28 13.91 12.91 12.47 12.42 13.18 14.08 12.75 14.48 15.04 14.84 14.93 14.43 15.04 15.81 16.58 16.05 15.12
23.87 24.45 25.87 26.21 25.38 24.83 24.38 24.34 23.99 21.75 20.92 22.85 28.70 28.31 28.49 27.22 27.97 28.52 28.95 28.28 21.44 16.35 13.20 13.46 12.15 10.24 9.06 9.30 9.54 9.18 9.65 9.84 10.95 12.52 12.36 11.49 10.54 11.23 12.18 13.56 13.44 11.69 12.57
26.87 26.10 26.31 26.35 25.69 25.27 24.84 23.50 23.13 22.57 23.01 22.48 18.46 27.14 26.34 27.51 27.50 27.77 28.33 18.83 17.59 12.98 8.79 6.74 6.79 6.30 6.11 5.88 5.51 4.68 4.80 6.90 8.19 8.26 8.43 7.46 7.05 7.63 8.75 9.83 9.84 8.40 9.07
22.38 22.24 24.08 24.59 23.92 23.82 23.17 22.71 21.88 22.47 22.32 20.09 17.97 20.18 16.22 19.87 21.73 22.67 22.82 11.91 9.85 9.65 6.31 5.40 3.49 2.35 2.16 2.15 2.37 2.11 3.06 3.41 5.09 5.23 5.63 5.42 5.62 5.51 6.60 6.47 7.02 7.14 7.57
19.70 21.26 22.69 24.18 23.53 23.50 22.46 22.07 21.32 21.85 21.90 20.38 18.76 17.38 18.67 17.72 18.43 17.78 13.17 7.22 7.23 6.51 5.53 3.53 1.02 0.28 -0.66 -1.21 -1.46 -0.61 -0.01 2.84 1.83 2.12 2.77 3.30 3.05 3.09 4.11 5.13 5.33 5.04 4.88
16.07 18.19 21.52 22.40 22.20 21.95 21.83 22.11 21.90 20.93 20.46 18.56 16.05 14.23 22.57 15.86 14.48 12.34 9.29 7.56 4.35 2.92 2.37 1.98 0.57 -0.64 -1.26 -1.99 -1.20 -0.65 -0.75 -0.05 -0.26 0.14 1.42 0.34 0.87 1.85 1.91 3.27 3.71 5.02 5.02
12.92 12.08 16.15 16.41 17.00 15.75 13.36 14.28 15.90 16.78 16.76 16.28 13.81 11.41 15.79 16.94 11.27 9.10 7.03 3.63 1.13 -0.79 -2.30 -3.55 -1.24 -2.29 -3.57 -4.02 -2.51 0.17 -0.16 -0.75 -0.15 -1.00 0.11 -0.19 -0.22 1.05 1.07 2.01 2.39 2.55 3.71
8.59 8.21 14.36 12.35 13.58 13.16 12.99 13.11 12.87 12.53 10.64 9.89 7.59 9.22 9.85 9.14 8.12 6.86 4.60 1.22 -1.04 -3.55 -3.91 -4.17 -3.18 -1.41 -1.33 -3.48 -3.82 -4.35 -2.98 -1.64 -3.70 -2.62 -2.22 -1.68 -1.71 -1.30 0.31 0.20 0.94 1.31 2.34
5.57 7.15 11.99 14.05 13.71 12.62 12.65 11.69 9.93 9.39 8.10 8.50 5.75 7.22 7.09 7.13 6.01 4.95 4.25 1.09 -0.12 -1.86 -3.37 -4.61 -3.62 -1.66 -1.26 -0.70 -1.58 -5.09 -6.11 -0.03 -2.32 -4.38 -3.56 -2.45 -2.75 -3.49 -2.31 -0.37 0.16 0.90 1.13
5.69 7.45 9.63 9.73 11.24 11.62 10.88 10.50 9.93 8.75 7.82 8.26 7.74 7.38 6.54 5.55 5.38 4.29 2.36 0.13 -1.04 -0.69 -0.77 -0.89 -0.96 -0.74 0.20 0.05 -0.77 -1.56 -3.71 0.91 -2.46 -1.86 -0.85 -0.74 -1.07 -2.25 -2.08 -1.34 -1.77 -0.09 0.19

GFSGL_sfc_wetblb_114.txt.gz
Wetbulb
50.72 52.09 56.91 60.23 60.29 58.52 55.86 52.57 50.53 47.78 46.94 47.07 46.31 42.08 40.60 40.40 41.41 41.40 40.66 39.81 38.99 38.02 38.52 37.89 36.91 37.80 37.16 36.90 37.35 37.14 36.20 36.68 34.40 35.78 36.18 36.69 35.65 35.61 36.49 36.77 36.82 36.15 36.30
51.22 52.09 52.23 54.33 56.73 54.86 55.67 52.19 48.75 44.96 46.20 41.98 43.18 40.07 40.01 39.76 39.90 39.39 37.94 38.29 37.48 36.87 36.66 36.39 35.37 35.19 35.36 35.54 36.30 35.31 35.41 35.50 34.53 31.89 33.90 34.26 34.48 35.23 35.34 34.75 35.11 35.36 35.44
49.62 50.63 51.38 51.95 52.31 52.55 50.16 48.88 46.78 42.32 42.46 38.89 40.60 39.08 38.23 38.74 38.45 38.42 37.63 37.10 36.84 36.17 35.62 35.46 34.55 34.55 33.89 34.46 34.90 34.66 34.86 34.11 34.66 33.26 32.54 34.37 34.17 34.56 34.21 34.95 34.08 34.77 34.73
47.29 49.20 49.19 49.58 49.22 49.00 46.40 44.00 42.49 40.77 38.85 36.78 38.46 37.37 37.61 37.61 37.50 36.69 36.33 35.55 34.91 34.79 34.74 34.81 33.96 34.19 33.83 34.02 33.90 34.11 33.64 33.53 33.38 32.97 32.59 32.68 33.09 33.68 34.19 31.97 30.97 33.64 32.61
45.33 46.30 46.79 44.99 45.01 42.35 40.68 38.94 36.42 38.05 35.97 38.27 35.41 36.77 36.66 36.25 34.85 35.20 35.05 34.65 34.01 33.37 33.43 33.04 33.58 33.09 33.28 34.38 33.91 33.52 33.32 32.75 32.33 31.99 31.69 31.98 31.29 30.45 30.09 31.06 29.49 30.90 32.17
44.25 43.93 42.26 40.39 37.41 37.09 35.77 34.55 34.24 34.10 34.32 34.97 33.80 34.78 34.94 32.89 35.21 35.45 35.10 33.98 33.24 32.38 31.55 32.03 32.21 31.33 32.49 32.79 32.89 32.90 33.37 32.02 31.46 31.31 31.43 29.33 29.47 30.19 31.50 29.80 28.38 26.90 26.56
41.82 39.06 37.51 37.37 36.64 35.55 33.97 33.09 32.64 32.58 33.71 32.38 33.94 34.15 33.56 33.72 35.76 35.24 34.37 33.33 32.69 32.42 31.81 31.50 30.85 31.09 31.96 32.29 32.34 32.48 32.03 32.17 32.65 32.49 30.64 29.74 29.80 31.35 31.41 28.84 28.30 26.84 27.24
39.22 37.06 35.76 35.87 34.97 33.92 33.13 32.71 32.25 32.65 31.82 31.73 32.50 33.62 33.92 34.07 35.84 35.14 33.05 33.22 32.84 32.49 32.13 31.93 31.27 31.35 32.10 31.88 31.61 31.75 31.82 32.52 32.43 32.93 33.07 32.70 32.95 33.65 32.48 30.61 28.19 26.79 28.07
38.53 37.15 35.69 35.69 34.52 33.40 32.93 32.35 32.19 31.44 31.33 31.96 32.34 33.03 33.39 34.42 35.97 34.89 32.86 32.38 31.36 31.19 31.59 32.11 32.06 31.93 31.93 32.32 32.13 31.48 32.10 32.71 33.42 33.48 34.20 33.04 31.79 31.13 30.88 30.08 26.88 24.73 25.58
38.16 37.41 36.35 35.79 35.10 33.89 33.99 32.33 32.07 32.36 31.58 31.73 31.74 32.74 32.81 34.11 35.69 34.49 32.70 32.32 31.18 30.63 30.87 31.34 30.55 32.20 32.00 32.31 32.43 31.67 29.98 31.87 32.47 31.96 32.34 32.94 31.42 29.63 28.89 29.55 28.39 24.37 24.86
37.17 36.27 34.98 34.97 34.87 34.69 33.44 32.16 31.43 31.60 31.27 31.41 31.15 31.55 32.29 33.63 34.50 35.03 33.81 31.99 31.63 31.10 30.83 30.45 30.96 32.39 32.52 32.64 32.72 32.40 32.03 32.83 32.10 32.51 32.37 31.69 30.82 29.92 28.94 28.42 28.25 26.45 24.45
35.08 33.98 33.65 33.41 33.78 33.64 32.74 31.61 31.65 31.47 30.91 30.48 30.44 29.41 30.17 31.12 33.05 35.45 35.47 33.73 33.65 31.91 31.20 31.44 31.83 31.84 31.96 32.13 31.95 32.91 33.25 32.10 32.27 30.68 29.83 29.24 29.50 29.89 29.15 28.51 28.51 27.54 27.40
33.01 32.63 32.61 32.70 32.95 32.79 32.37 31.30 31.24 31.34 31.11 29.94 29.15 28.87 28.32 28.67 30.20 33.35 34.70 35.42 34.14 32.09 32.15 31.79 31.51 31.05 31.28 31.82 32.77 32.24 29.61 29.59 28.61 28.22 27.13 26.69 28.10 29.43 28.19 27.73 27.84 26.35 24.33
32.64 32.33 32.24 31.77 32.03 32.11 32.75 31.86 31.69 30.97 30.68 29.98 29.51 29.27 28.52 27.69 28.22 30.76 32.21 33.67 32.96 32.93 31.19 31.13 30.79 30.84 30.99 30.95 28.50 28.15 27.10 26.87 26.55 27.06 27.09 27.24 27.58 25.74 25.83 26.51 24.91 25.68 23.83
32.62 31.70 31.98 32.35 31.42 31.52 31.97 31.95 31.93 32.50 32.51 30.89 30.58 29.69 28.21 27.44 27.99 29.77 30.88 31.17 31.45 31.54 30.54 29.13 27.87 27.76 27.33 27.16 25.94 24.68 24.38 23.69 23.07 24.32 24.88 24.50 24.18 24.22 23.67 24.60 23.28 23.10 20.78
31.31 30.41 31.33 31.74 30.56 30.97 30.81 29.79 31.92 32.05 31.66 32.78 32.68 31.42 30.58 31.09 31.35 30.50 30.71 31.01 31.13 30.58 27.73 25.90 26.01 26.61 25.61 25.51 24.35 22.83 21.81 20.30 21.90 22.71 22.93 22.53 21.69 21.86 21.79 22.45 21.84 21.02 20.41
32.10 31.02 30.75 29.85 29.70 29.42 29.64 29.38 27.11 27.36 30.42 30.94 30.81 31.44 30.95 29.86 31.50 31.15 31.25 31.20 30.65 29.78 26.62 26.04 26.04 25.48 24.27 22.95 21.44 20.06 19.74 20.37 18.94 18.70 20.06 20.83 20.49 19.90 18.65 19.11 20.33 20.26 19.62
29.86 28.99 30.70 30.36 30.14 30.01 29.46 29.19 29.02 27.40 26.18 26.86 29.76 30.30 30.66 30.33 30.87 31.49 31.75 30.99 28.42 29.09 27.82 25.42 24.04 23.42 21.85 19.81 18.41 17.75 17.45 17.01 16.17 17.34 18.09 18.32 17.43 17.47 17.48 17.53 18.54 17.54 17.63
30.44 30.42 29.81 30.31 30.09 29.65 29.40 29.07 28.97 27.65 27.65 27.84 27.73 29.31 29.53 30.63 30.87 31.30 31.61 28.50 26.78 25.94 22.91 22.12 22.17 20.65 18.49 16.93 16.41 15.65 14.85 14.83 15.48 15.72 15.62 15.14 15.08 14.84 14.71 15.54 15.50 12.08 12.42
28.28 25.81 27.76 29.65 28.92 28.22 28.02 28.02 27.49 26.86 27.25 27.57 25.76 27.35 28.80 28.81 27.05 27.14 28.29 28.20 26.10 24.62 23.09 20.20 18.11 16.33 15.29 13.98 13.46 12.57 11.95 11.45 12.12 12.38 13.19 13.72 13.50 12.92 12.52 12.09 12.26 12.45 12.11
26.71 27.76 26.87 27.34 27.83 27.79 27.92 27.48 27.39 27.14 26.81 27.22 26.69 27.83 27.42 26.29 26.27 26.56 26.24 26.76 24.19 22.94 20.10 18.50 16.14 13.13 11.88 11.15 10.86 10.68 10.12 12.05 11.84 11.73 11.57 11.33 10.58 9.67 10.56 11.67 11.18 9.65 9.04
24.18 25.99 26.47 26.30 26.95 26.40 26.62 26.98 26.60 26.60 26.50 26.75 27.20 26.18 28.73 25.04 25.41 25.06 25.86 24.52 22.22 21.65 19.36 16.28 13.59 12.07 10.60 9.39 8.85 9.22 8.88 8.72 9.36 8.72 9.70 8.73 8.60 9.13 8.65 8.84 8.45 8.82 8.87
18.99 20.99 22.78 23.51 23.89 23.61 23.82 24.50 24.62 25.33 25.40 25.58 24.77 20.01 20.75 23.55 20.99 21.25 22.21 20.33 17.00 14.52 12.56 11.78 11.63 9.25 9.00 7.76 8.99 9.53 8.89 8.24 8.61 8.96 8.38 8.01 7.25 8.44 7.69 8.06 7.63 6.65 7.34
15.59 16.24 17.12 18.79 19.28 18.96 19.58 19.91 20.09 18.88 19.98 19.87 18.91 17.09 16.85 18.57 21.02 17.42 16.93 15.79 13.25 11.74 9.31 7.58 8.22 8.34 7.20 6.15 6.16 6.23 7.06 8.07 7.87 6.36 6.29 7.10 6.51 5.74 6.41 6.06 5.93 5.38 5.53
12.59 13.37 14.03 15.46 16.66 17.50 17.66 18.03 18.20 18.14 17.47 16.46 16.13 14.85 15.40 15.63 15.71 15.46 14.92 12.89 10.13 8.38 6.42 5.91 5.65 6.07 6.28 5.59 5.54 5.04 4.95 5.75 4.57 4.08 4.11 4.19 4.34 4.11 3.57 4.14 4.50 5.00 4.51
9.18 9.90 10.98 11.96 12.86 13.95 14.62 15.02 15.53 15.88 15.04 14.71 14.33 14.02 13.67 13.08 12.79 12.26 11.93 9.51 7.49 6.56 6.18 5.34 5.30 5.09 5.54 5.87 5.64 5.49 4.00 4.12 3.49 2.73 3.59 3.87 3.32 2.82 2.71 1.99 2.02 2.77 3.18

GFSGL_sfc_wetblb_117.txt.gz
Wetbulb
55.38 58.69 60.61 61.75 61.95 61.37 60.89 61.42 59.49 56.77 54.15 53.11 51.64 48.75 47.99 45.30 45.54 44.23 43.06 42.18 41.26 40.04 40.49 39.21 38.47 39.15 38.35 37.90 38.26 37.77 36.32 37.00 35.44 35.22 36.02 36.48 35.33 35.47 35.87 36.38 36.62 35.60 35.61
53.36 53.28 55.96 60.06 59.60 59.45 59.27 57.25 53.61 51.90 50.56 50.47 48.12 45.73 44.74 43.16 43.11 42.12 40.44 40.35 39.00 37.77 38.06 37.47 36.73 37.30 36.49 36.91 36.65 36.02 36.12 36.06 35.17 32.96 33.84 33.87 33.93 34.85 34.71 34.16 34.84 35.36 34.93
52.39 52.10 52.06 52.55 55.22 57.77 56.27 53.69 50.75 49.25 47.00 46.26 44.13 42.87 41.85 40.98 40.70 40.72 39.26 38.88 38.15 37.73 36.98 36.23 35.54 35.51 34.67 35.05 35.53 35.05 35.45 34.72 34.86 33.17 31.97 33.50 33.51 33.88 32.80 33.63 32.90 33.46 34.82
50.50 50.64 51.09 51.30 52.10 53.23 54.43 51.30 48.60 47.18 44.07 44.26 41.82 41.08 39.98 39.73 39.03 37.85 37.57 37.41 37.20 36.73 36.22 36.19 35.10 35.06 34.63 34.57 34.13 34.40 34.55 33.62 33.04 32.04 31.61 31.75 32.08 32.16 32.45 30.51 29.47 31.36 30.99
48.46 49.03 49.81 50.17 50.54 49.01 45.21 44.27 42.17 43.01 41.04 40.79 37.56 36.06 36.31 37.07 36.76 36.42 36.01 35.87 34.96 34.44 34.78 34.31 34.96 34.51 35.03 35.68 34.04 33.70 33.44 33.31 31.93 31.07 30.68 31.23 30.78 29.57 29.13 29.79 28.65 29.05 29.74
47.22 47.30 48.01 45.84 43.70 41.18 39.64 38.28 37.03 36.29 36.87 35.72 36.06 35.46 35.13 34.39 37.39 37.68 36.25 34.66 33.75 32.90 32.29 32.42 33.28 31.86 33.74 34.18 34.10 35.63 35.13 32.53 29.70 30.93 30.76 29.46 28.91 28.91 30.10 29.06 28.11 26.46 23.98
44.47 42.55 40.68 39.78 38.46 38.00 36.84 35.53 35.03 35.24 35.07 34.65 34.41 34.86 34.14 33.13 37.37 37.24 35.95 34.02 33.08 32.82 32.13 31.55 30.82 31.31 32.05 32.01 33.25 33.32 32.70 33.38 33.47 32.43 30.62 29.96 28.69 29.50 27.95 28.87 28.05 26.49 25.80
41.87 40.05 38.10 37.71 37.16 36.13 34.73 34.39 34.69 34.36 34.09 33.81 34.09 33.99 34.37 33.23 37.12 36.70 34.57 33.43 33.05 32.84 32.32 31.98 30.91 30.79 31.72 31.48 31.38 31.16 31.26 31.21 31.63 32.00 32.05 31.52 31.92 31.54 30.50 30.19 28.35 26.37 26.79
40.60 39.67 37.59 37.04 35.42 34.76 34.24 33.93 33.66 33.09 32.66 32.95 32.95 33.31 33.29 33.40 36.67 35.74 33.78 32.45 31.71 31.60 31.94 32.13 31.52 31.02 32.16 32.93 31.07 30.68 30.74 31.04 33.66 33.84 34.27 34.93 34.04 32.66 31.68 28.56 26.63 25.85 23.84
39.71 39.22 38.26 36.96 35.30 34.57 34.77 34.23 34.01 33.52 32.40 31.33 31.84 33.71 33.06 33.76 36.31 35.52 33.47 32.11 30.99 30.59 31.01 31.37 31.19 31.98 32.84 33.15 31.12 30.70 28.69 29.74 31.22 31.06 30.89 32.00 32.77 30.54 31.10 27.50 27.62 24.90 23.86
37.88 37.05 35.37 35.39 34.43 35.40 35.04 33.78 33.19 32.40 31.29 31.36 31.64 32.15 32.91 33.74 34.66 35.67 34.39 31.95 31.20 30.42 30.01 30.11 30.93 33.34 33.28 33.11 33.17 31.32 30.63 31.97 32.11 30.92 30.93 31.18 30.87 28.39 28.67 28.46 28.20 26.70 24.27
35.42 34.56 33.98 33.65 33.82 33.67 33.68 32.99 32.38 32.03 31.57 31.21 31.19 30.54 31.57 32.79 33.76 35.65 34.63 33.64 33.70 30.97 30.49 30.85 30.94 32.97 33.18 33.15 32.48 33.07 33.20 32.58 31.52 30.58 29.60 29.29 29.46 28.92 29.90 28.82 28.06 27.68 27.36
32.73 32.14 32.67 32.73 32.81 33.11 33.13 32.10 31.35 31.71 31.31 30.73 30.16 29.77 29.35 31.02 33.43 35.44 35.38 34.34 34.21 32.14 32.34 32.44 32.77 33.16 33.44 33.44 33.34 32.86 30.95 31.50 30.39 28.65 27.28 27.74 28.30 28.69 28.46 26.20 27.80 28.17 26.83
32.19 32.35 32.24 32.02 32.25 32.28 33.05 32.77 32.48 31.34 31.10 31.05 30.34 30.17 29.89 28.95 30.46 33.08 33.66 34.68 33.37 33.34 32.74 32.14 32.34 32.17 32.18 31.28 30.23 31.58 30.22 29.38 28.47 27.12 26.45 28.29 28.14 27.10 25.45 26.27 25.06 24.64 24.77
32.02 31.37 32.27 32.45 32.23 32.06 32.19 32.81 32.19 32.88 33.42 32.26 32.06 31.85 30.37 28.30 29.30 31.86 32.82 32.83 33.55 33.30 31.40 30.70 29.67 29.07 28.63 28.64 28.96 28.81 27.70 25.99 23.52 23.52 23.75 24.19 25.24 24.78 24.16 24.89 24.01 22.74 21.30
31.56 31.31 32.32 32.31 31.76 31.39 31.38 31.38 33.96 33.95 34.13 34.73 35.06 33.71 32.56 33.50 33.11 32.37 32.95 33.84 34.37 34.17 29.70 28.17 27.53 27.60 26.88 26.83 26.44 25.73 24.82 23.26 23.16 23.12 22.91 22.89 23.12 22.61 22.47 23.00 22.88 20.82 19.38
30.67 31.14 31.51 29.45 30.78 30.54 30.35 30.50 29.69 30.23 31.03 32.21 33.68 34.19 34.01 32.55 33.24 32.53 32.87 33.34 33.70 33.29 28.66 27.91 26.89 26.47 26.34 26.23 26.52 25.59 23.41 22.29 21.97 21.42 20.99 21.08 21.30 21.50 20.59 18.98 19.60 20.27 19.58
28.44 29.10 30.36 31.30 31.11 31.14 30.39 30.14 30.18 29.51 28.04 28.34 31.10 31.89 33.13 32.46 32.31 32.63 32.73 32.65 30.11 31.63 28.87 27.94 26.79 26.97 26.89 26.01 24.93 23.00 21.33 19.85 17.29 17.37 17.91 18.74 18.73 18.92 18.35 17.95 18.43 18.12 18.11
28.21 30.45 30.83 30.89 31.10 30.10 30.03 29.49 29.35 28.96 28.94 28.65 29.03 29.89 30.65 32.50 32.19 32.85 32.93 30.31 28.95 28.20 28.28 27.81 28.10 26.91 26.49 25.09 23.03 20.75 19.52 18.16 17.07 16.45 16.72 16.75 16.40 15.75 15.06 15.39 16.37 13.95 11.47
28.11 27.58 25.97 29.57 30.40 30.03 29.45 28.94 28.59 28.30 28.18 27.99 28.80 28.62 29.14 29.08 28.56 29.37 31.12 31.32 29.63 29.40 29.48 28.90 27.96 26.70 24.81 21.83 19.76 18.17 16.29 15.09 14.29 14.36 14.65 14.71 14.13 13.97 12.67 10.88 9.89 10.26 8.68
24.75 26.42 27.18 27.89 28.63 29.10 28.94 28.52 28.56 28.40 27.61 27.40 27.88 29.29 30.06 27.98 27.88 28.51 29.15 30.13 29.72 29.66 28.91 28.24 25.69 23.14 20.75 18.49 17.01 15.15 14.04 13.35 12.21 12.39 12.42 12.69 12.54 11.35 10.12 11.07 10.08 6.38 3.92
21.89 23.64 25.28 25.70 26.62 27.21 27.45 27.51 27.44 27.31 27.07 26.63 26.90 28.32 30.55 28.97 28.36 28.78 29.57 29.54 30.11 30.26 29.10 25.93 23.12 19.91 17.84 16.05 14.77 13.85 12.40 12.29 12.48 12.12 11.23 11.09 10.17 8.90 9.35 8.18 5.47 3.96 2.34
18.56 18.78 20.18 21.52 22.51 22.09 22.51 23.72 24.35 24.69 25.19 26.13 26.23 26.14 21.91 25.55 28.00 27.19 24.74 25.25 23.98 21.61 20.11 19.77 18.80 15.23 14.29 14.24 13.92 13.88 11.73 10.59 11.90 10.74 10.03 8.96 7.68 8.27 6.54 5.52 2.99 0.23 3.93
15.50 16.05 16.32 17.00 18.39 18.63 19.05 19.28 20.17 20.09 20.09 20.07 22.24 22.42 20.48 21.20 23.47 24.19 22.89 23.60 21.86 18.84 17.46 14.75 15.36 14.56 12.32 10.99 11.33 11.59 12.47 12.00 11.39 10.48 10.34 9.23 7.85 7.38 8.16 4.84 3.73 2.41 2.80
12.38 12.46 12.88 13.65 14.34 15.02 16.37 17.48 17.92 18.59 18.83 18.31 18.14 18.59 18.60 19.03 19.07 20.07 21.11 19.94 18.49 16.30 14.38 12.05 11.66 12.14 10.62 8.96 8.53 8.42 9.20 11.19 8.58 8.48 7.99 8.40 7.58 6.44 5.44 5.97 4.86 4.10 3.38
9.14 9.23 9.45 10.22 10.84 11.79 12.65 13.17 13.78 14.53 14.40 15.26 15.33 15.22 15.07 14.74 15.21 15.82 16.34 15.58 12.92 11.73 10.82 9.14 8.56 8.48 9.06 8.62 7.92 8.62 8.08 10.02 7.17 6.48 6.23 5.61 5.21 4.98 4.52 3.35 3.20 2.41 2.70

GFSGL_sfc_wetblb_120.txt.gz
Wetbulb
53.53 55.46 57.63 59.82 61.22 61.48 61.94 61.02 59.46 58.56 57.07 56.44 54.88 52.31 51.03 49.98 49.30 47.54 44.67 42.72 41.23 39.46 38.87 37.76 36.54 36.87 35.94 35.64 35.33 34.89 33.73 34.35 32.64 31.73 33.18 32.45 31.36 31.71 32.66 33.09 33.48 32.12 31.91
48.13 49.61 52.22 55.37 56.52 56.90 57.19 57.08 56.98 54.81 52.98 53.28 51.67 50.68 49.13 48.15 46.40 45.01 42.71 41.10 40.25 37.82 37.46 35.94 35.55 36.72 34.56 34.95 34.35 33.90 33.75 33.98 33.06 31.11 31.42 29.90 30.06 31.57 31.35 30.95 33.03 33.73 31.60
48.39 48.11 48.39 49.42 52.60 54.45 54.69 53.43 53.08 51.37 50.01 49.44 49.47 48.48 46.69 45.95 44.75 43.36 42.12 40.44 38.77 38.02 36.66 35.23 34.96 34.40 33.22 33.24 33.67 33.49 33.91 34.04 33.42 31.54 29.13 29.83 30.24 30.21 28.14 29.12 29.59 28.97 32.86
47.56 47.58 47.26 47.32 48.24 50.35 53.53 52.31 50.32 48.79 47.35 46.40 46.56 46.26 44.52 43.29 42.47 40.79 38.75 38.54 37.26 36.67 35.21 34.42 34.36 34.02 33.31 33.27 33.19 32.68 33.21 31.42 31.04 29.06 29.29 28.97 27.00 27.97 26.69 26.11 25.54 24.88 26.13
45.42 45.26 45.56 45.98 46.62 46.33 45.25 44.08 42.66 43.69 43.43 42.46 41.18 39.62 39.33 39.90 39.26 37.27 37.05 36.97 35.05 34.09 33.25 33.56 33.89 33.89 34.77 35.07 33.48 31.99 31.92 31.17 30.79 30.13 29.79 27.57 26.45 26.37 26.66 26.94 26.22 24.48 25.47
44.17 43.63 44.04 43.51 41.33 39.62 38.80 38.37 37.86 37.03 37.52 36.75 36.15 36.77 36.98 38.25 39.10 38.82 37.44 35.47 34.29 33.56 32.29 31.83 33.08 32.75 35.32 36.40 36.32 35.71 34.54 32.20 30.93 30.04 29.62 29.20 29.00 27.50 26.68 25.90 26.42 25.51 20.09
40.64 38.81 38.81 37.83 37.24 36.72 35.74 35.15 35.14 35.52 35.02 35.11 35.44 35.21 35.77 35.33 38.60 38.49 36.71 34.70 33.51 32.98 32.56 31.54 30.96 31.53 31.77 32.20 35.54 36.42 35.51 36.10 34.77 31.67 29.83 28.91 27.19 27.95 26.37 23.05 27.06 26.96 25.69
36.86 36.81 35.92 35.81 35.34 34.14 33.67 34.92 34.85 34.62 34.28 34.20 34.07 34.41 34.19 32.77 38.45 38.00 35.25 33.36 32.89 32.17 31.66 31.23 30.78 30.29 31.14 31.32 31.28 30.93 30.77 31.34 31.86 32.00 29.81 29.63 29.31 29.50 28.22 27.28 25.12 24.98 26.51
35.58 35.67 34.85 34.31 32.07 32.70 32.17 33.92 33.75 32.97 32.66 32.91 32.97 33.07 33.04 32.63 37.82 36.92 34.08 32.32 31.88 32.20 31.14 30.96 30.53 30.29 32.48 33.42 30.46 29.68 29.82 30.30 33.19 33.98 33.77 34.30 34.64 34.12 31.77 24.33 24.32 24.19 23.49
34.53 34.85 34.69 33.82 30.88 30.87 31.34 30.90 30.24 32.70 32.36 31.65 31.79 32.99 32.71 33.77 37.24 36.74 34.81 32.98 32.03 30.69 30.20 30.47 30.41 30.93 33.35 33.99 30.09 29.35 28.09 29.26 30.04 29.13 29.27 31.49 33.24 31.99 33.42 26.62 22.23 19.75 23.98
34.04 33.14 31.15 30.85 29.47 29.98 29.32 28.70 28.74 29.48 31.33 31.31 31.48 32.12 32.88 33.88 35.23 36.28 35.09 31.87 31.49 30.14 29.31 29.38 30.49 33.33 33.60 34.28 33.10 30.09 29.71 30.55 31.25 28.57 27.55 27.12 28.16 26.51 26.42 26.84 26.37 26.81 24.89
29.35 29.42 28.66 27.49 29.26 30.43 27.50 27.97 31.26 31.96 31.59 30.91 31.14 30.63 31.33 32.51 34.05 36.46 35.77 34.30 33.56 30.43 29.11 29.68 30.08 33.75 33.99 34.35 33.38 32.91 33.37 31.88 30.04 28.10 26.42 27.61 27.88 28.93 27.43 28.65 27.86 27.67 27.83
28.33 25.05 28.92 28.74 30.30 31.02 26.65 30.62 31.08 31.62 31.23 30.39 30.27 30.10 29.94 31.21 32.96 36.12 36.19 35.03 34.45 30.47 30.11 30.89 32.11 33.53 34.31 33.98 34.13 33.62 31.40 31.01 29.39 28.84 27.92 27.64 27.82 26.99 27.40 27.32 27.13 27.39 27.15
31.70 29.19 27.53 27.20 26.09 25.78 29.01 29.59 31.59 31.16 30.85 30.76 30.34 30.47 30.01 30.09 31.79 33.42 33.77 34.09 32.80 32.13 32.80 32.07 32.29 32.55 33.24 32.62 30.91 32.88 31.90 30.46 29.52 29.41 28.83 26.87 26.15 25.25 25.71 25.87 24.64 25.43 24.15
26.85 27.23 28.73 28.87 26.45 26.38 27.38 27.58 27.64 27.70 31.07 31.56 32.14 32.12 31.26 28.99 30.58 33.46 33.51 32.61 32.29 32.57 31.12 29.96 30.52 30.16 29.77 29.94 29.20 29.41 29.97 29.03 28.25 28.10 25.39 24.28 24.01 24.42 24.21 24.90 24.41 23.14 21.32
25.74 24.53 24.84 24.88 24.30 25.00 24.92 25.96 32.93 33.76 34.38 34.93 35.39 32.49 29.49 34.04 33.91 33.55 34.96 35.11 34.99 34.37 30.66 28.85 28.47 28.53 27.80 27.80 27.68 27.82 28.54 27.63 26.85 25.54 24.09 23.45 23.22 23.18 22.54 23.16 23.10 21.37 19.24
20.34 23.76 23.85 23.84 23.63 23.67 23.66 23.76 23.42 27.57 33.17 32.52 33.22 34.18 34.95 32.49 34.50 33.91 34.35 35.10 35.17 34.94 30.42 29.28 28.16 28.09 27.99 28.13 27.81 27.32 26.18 26.45 25.79 23.84 23.16 22.66 22.54 21.98 21.07 20.71 20.85 19.78 17.84
25.54 24.88 20.58 21.88 23.12 23.30 22.92 22.66 21.52 21.14 20.81 21.14 28.02 31.38 32.28 33.98 34.00 34.28 34.08 33.72 31.37 32.73 31.32 29.14 28.53 28.89 28.76 28.13 27.31 26.87 26.74 24.53 22.24 22.24 21.60 21.35 21.23 20.54 19.06 18.44 17.53 16.38 17.11
22.60 26.83 27.06 28.26 28.01 27.47 25.99 24.90 24.34 23.92 21.30 20.93 19.17 25.80 25.56 32.19 33.02 33.16 33.47 31.14 29.61 29.07 30.54 30.02 29.79 29.55 29.12 28.59 28.20 27.43 26.25 22.29 21.18 19.69 19.16 18.93 19.22 18.69 17.61 17.13 16.29 15.44 14.05
25.23 26.19 26.48 26.30 27.16 27.23 23.94 23.00 23.25 23.06 23.27 26.78 23.24 20.43 17.99 21.31 26.87 29.13 30.52 30.99 30.13 29.12 28.72 29.62 29.49 29.81 29.47 28.81 27.81 25.66 23.14 20.96 18.82 18.09 17.83 17.86 17.53 16.98 15.35 13.46 13.62 11.57 8.26
21.83 23.27 24.40 25.53 25.95 26.05 26.16 25.51 19.58 18.91 20.23 22.14 17.76 18.29 30.02 27.41 25.04 25.10 27.45 29.01 30.45 30.27 30.42 30.41 30.21 30.15 29.51 27.96 25.52 22.40 21.45 20.07 18.81 17.67 16.86 16.09 14.91 13.86 13.91 12.94 11.37 8.80 5.29
8.19 8.98 10.43 15.99 19.20 22.45 21.67 18.38 20.31 21.39 23.55 24.94 25.26 24.97 28.67 26.31 27.30 26.39 27.28 28.44 29.62 31.03 31.83 31.38 30.16 27.14 25.47 22.63 21.07 19.55 18.19 17.27 16.08 15.44 14.50 14.21 13.43 12.42 11.59 10.17 10.53 9.52 5.71
7.51 6.59 6.92 7.58 7.97 15.92 18.34 18.60 19.62 20.24 20.40 20.17 14.25 17.89 14.82 12.88 19.89 23.78 25.32 22.98 23.52 24.48 23.12 23.92 24.13 22.11 21.77 21.54 20.94 20.56 18.34 17.29 16.77 15.83 14.17 13.08 11.90 11.19 10.52 8.90 9.24 7.91 7.13
0.42 1.49 3.97 2.71 2.55 4.60 6.41 14.42 16.67 17.05 17.48 17.90 15.57 10.13 12.98 12.92 10.66 14.59 19.34 21.97 22.69 23.52 23.33 22.05 21.53 21.31 18.70 17.35 17.02 17.29 17.88 17.30 16.42 14.58 14.37 12.66 10.95 10.11 9.12 8.61 8.21 7.64 7.40
-1.83 -0.96 -2.54 -1.67 -2.59 -0.38 2.13 2.38 4.74 5.25 10.50 8.49 9.54 5.76 3.51 3.55 5.96 7.21 10.64 15.35 17.14 16.94 14.85 13.70 15.98 16.21 16.01 14.61 13.87 13.22 13.93 15.14 13.18 12.94 12.70 11.59 9.73 9.22 9.01 8.07 7.69 7.01 6.50
-4.34 -4.48 -6.09 -6.04 -5.27 -4.84 -3.52 -0.01 1.11 2.79 3.73 5.26 5.90 6.94 7.31 6.47 5.76 4.96 4.44 7.06 10.51 9.17 7.87 5.90 6.81 8.94 10.44 11.73 11.25 11.42 11.68 13.90 11.11 11.24 11.33 10.61 9.23 8.25 8.06 7.61 6.65 6.44 5.73

GFSGL_sfc_wetblb_123.txt.gz
Wetbulb
55.10 55.58 56.64 58.34 59.31 59.80 61.49 61.08 60.65 59.19 59.53 59.80 59.58 58.57 56.81 55.04 53.29 53.60 51.94 49.28 49.33 44.81 41.79 41.45 38.67 37.73 36.52 35.65 35.16 34.77 34.36 34.55 32.16 31.43 32.53 33.29 32.32 32.70 32.30 32.23 32.92 31.55 31.50
47.93 51.18 52.98 54.09 55.37 56.57 58.95 59.55 57.48 58.71 56.22 57.41 56.25 54.99 53.82 52.79 51.66 51.59 49.28 48.44 48.14 44.95 41.15 39.28 37.39 37.17 35.38 35.12 34.43 33.48 33.45 34.13 33.51 30.11 31.06 30.93 31.20 31.92 30.59 31.12 32.17 32.90 30.68
45.48 45.81 46.65 48.60 51.97 53.40 54.31 55.35 56.09 55.37 53.15 51.82 51.54 51.40 50.53 50.18 49.50 49.71 49.52 47.38 46.47 45.52 41.97 38.31 37.33 36.02 34.47 33.75 33.01 33.04 33.05 33.72 33.34 31.68 29.95 30.55 31.07 31.22 30.02 30.30 29.31 28.06 31.54
45.56 45.72 45.40 45.66 46.80 49.37 51.61 51.83 52.53 52.11 51.03 49.73 49.80 49.53 48.23 47.84 47.29 45.93 45.23 44.52 44.79 42.50 40.62 38.29 36.48 36.04 34.82 33.55 32.83 32.40 32.75 30.77 30.36 29.45 28.67 29.09 29.80 30.19 29.51 26.47 24.92 24.90 26.70
44.40 44.13 44.38 44.14 44.80 44.82 45.76 47.09 46.17 46.54 47.58 46.43 44.93 43.86 43.35 43.80 42.70 40.74 40.01 41.08 39.66 38.12 37.49 35.94 36.18 35.34 34.97 35.09 33.62 32.19 31.98 30.66 30.07 29.05 29.21 29.17 29.29 28.57 27.29 26.46 26.02 25.42 24.79
42.87 42.23 41.71 41.53 40.87 40.31 39.64 39.55 39.57 40.56 41.15 40.50 39.38 40.16 39.71 40.61 41.22 40.86 40.92 38.60 37.05 35.72 34.49 34.36 34.75 33.18 35.33 36.43 36.62 36.22 34.41 31.22 30.12 29.84 29.80 29.44 29.58 29.14 27.94 27.32 26.17 23.99 22.42
39.43 37.84 37.48 37.20 37.28 36.25 35.37 35.54 35.93 35.93 35.04 35.72 37.13 37.23 37.11 37.07 39.63 39.88 38.35 37.35 36.21 35.31 34.01 33.79 34.89 33.33 33.28 33.97 36.28 36.57 35.75 36.15 34.86 32.14 30.23 30.33 29.80 29.32 27.87 23.42 25.78 25.01 24.51
35.94 35.88 35.63 35.67 35.23 34.95 34.51 34.24 33.79 34.24 36.00 36.17 35.90 35.39 35.60 35.40 38.80 39.17 36.47 34.69 34.70 34.36 34.18 34.08 33.18 32.09 33.21 32.80 32.93 32.62 32.50 33.32 33.64 32.94 31.44 30.92 30.49 30.60 29.82 27.57 25.50 23.30 26.18
35.30 34.98 34.65 34.16 30.91 32.35 30.62 31.57 35.21 34.28 33.38 33.80 33.33 34.07 33.89 33.58 37.94 38.38 35.89 33.20 32.85 32.95 33.00 33.08 33.05 32.38 33.47 34.91 31.88 31.23 30.49 30.49 34.07 34.75 33.98 34.35 34.46 34.00 31.14 26.39 22.88 20.48 19.04
34.18 34.27 33.90 33.52 29.10 29.13 30.31 28.53 28.62 32.69 32.76 32.32 32.61 32.84 32.89 33.36 37.58 38.02 35.74 33.38 32.23 31.84 31.81 31.70 31.30 32.21 33.72 35.05 30.72 30.01 28.29 29.36 29.62 28.99 31.15 32.63 33.72 33.25 34.09 28.47 25.19 21.28 18.65
32.28 31.62 29.80 30.17 27.86 28.07 27.66 27.76 27.09 31.43 31.85 31.72 31.31 31.43 32.25 32.87 34.69 37.98 37.04 32.94 33.06 32.45 31.38 30.33 30.56 33.44 34.08 35.17 33.50 30.36 29.99 30.68 30.88 29.52 29.32 29.13 29.34 28.41 28.95 28.65 27.23 25.75 22.64
27.58 27.83 27.09 27.44 29.76 29.84 23.48 25.08 31.39 32.01 31.89 31.34 30.92 30.33 30.70 31.19 33.85 37.42 37.45 35.89 34.69 32.34 31.29 31.03 30.97 33.68 34.06 35.01 33.82 32.47 33.06 31.36 30.15 29.31 27.90 27.53 27.73 27.67 27.90 27.52 26.97 27.67 27.71
27.10 27.62 29.70 29.70 30.21 30.52 23.98 26.29 30.99 31.49 31.02 30.29 29.94 30.02 29.73 30.24 31.64 36.23 36.92 36.42 35.85 32.05 31.41 31.66 32.41 33.65 34.39 34.45 35.23 34.12 31.42 30.60 29.33 28.52 28.02 28.16 28.86 29.34 27.61 25.64 26.34 25.91 27.67
25.60 26.71 22.73 22.84 25.45 27.34 25.27 25.84 25.73 29.36 30.11 30.00 29.93 30.19 29.81 29.60 31.02 32.37 33.77 35.01 33.81 33.64 31.95 31.56 32.09 32.50 33.79 33.11 31.94 33.92 32.31 31.35 30.06 29.04 28.77 29.30 28.74 25.56 25.95 26.41 25.84 25.43 24.67
22.08 23.04 27.49 25.95 21.34 22.31 23.55 23.87 25.52 24.69 26.69 26.22 28.33 30.97 30.72 29.29 30.73 33.28 33.81 33.16 33.18 32.93 31.63 30.77 30.45 30.02 29.79 30.92 30.63 31.38 31.80 31.30 29.88 29.94 29.40 28.40 27.13 26.40 25.72 25.79 24.79 24.50 22.87
24.45 22.39 21.62 21.33 20.13 21.42 20.94 22.83 30.77 33.20 34.53 34.52 34.85 31.97 27.52 33.02 35.03 34.29 34.78 35.36 35.32 34.72 30.81 29.54 28.97 29.03 28.47 28.86 29.45 29.36 30.13 30.38 30.03 29.73 29.24 28.11 26.34 25.47 25.15 24.29 24.44 23.05 21.36
21.97 19.90 19.29 21.24 21.19 19.83 19.91 20.31 20.98 25.67 31.45 32.46 33.09 33.39 33.44 33.59 34.57 35.07 34.47 34.87 35.48 35.12 31.37 29.72 28.48 28.51 28.83 28.93 29.17 29.01 28.23 29.04 29.79 28.89 27.83 26.78 26.03 25.33 24.38 23.09 22.78 22.15 20.87
28.91 27.88 27.37 27.58 28.27 27.93 25.75 24.34 21.85 16.11 17.58 20.27 26.22 30.64 32.21 32.82 33.15 34.06 34.77 34.15 31.27 33.13 32.50 31.58 30.11 29.48 28.88 28.78 28.70 28.57 28.87 28.86 27.95 27.50 26.41 25.74 24.84 23.94 22.72 22.12 21.66 20.74 20.09
25.78 25.44 25.01 25.96 27.04 26.64 26.06 17.06 16.18 15.49 15.51 16.81 16.07 24.49 22.42 30.32 31.80 32.20 33.25 30.32 29.61 29.81 30.57 31.24 32.00 30.69 29.85 29.69 29.62 29.41 29.15 28.60 27.42 26.55 25.54 24.66 23.72 22.74 21.49 21.43 20.98 19.92 18.87
24.18 24.76 25.38 25.69 24.83 25.13 23.71 24.75 13.14 13.38 12.96 12.05 12.65 16.06 19.53 18.30 26.08 22.54 21.66 29.71 29.83 30.16 30.13 29.13 30.17 31.66 30.73 30.34 30.15 30.06 29.49 28.57 26.61 24.91 23.81 22.73 22.45 21.76 20.91 20.12 19.42 17.89 17.04
12.77 9.30 17.66 19.87 19.93 21.16 12.89 16.12 14.56 15.99 21.93 17.64 17.31 20.69 28.62 25.97 25.99 23.88 26.86 24.57 22.80 26.64 29.01 29.64 29.14 29.49 30.37 30.26 30.39 29.83 28.62 27.24 24.94 22.89 22.04 21.26 20.59 19.35 20.06 19.99 18.30 17.65 16.35
-0.31 -0.24 1.52 2.03 3.20 7.35 11.76 16.36 10.89 16.05 18.38 18.07 18.79 12.62 22.59 12.55 14.74 19.44 21.97 23.01 24.80 26.23 27.59 28.96 30.13 30.70 30.74 30.40 29.85 28.19 25.73 24.58 23.52 22.31 20.80 20.28 19.18 18.43 18.14 16.84 15.74 15.12 13.71
0.06 0.21 0.72 0.23 -1.22 1.30 0.84 1.50 6.79 13.54 12.82 15.93 17.35 12.19 10.80 7.94 6.48 9.73 14.08 16.15 17.69 19.05 21.13 22.76 23.40 23.88 23.23 23.68 24.55 24.85 23.75 22.86 22.67 21.61 19.45 18.39 17.31 16.63 16.28 14.63 13.71 13.00 11.15
-0.89 -2.51 -2.70 -3.95 -3.13 -2.86 -1.87 -0.15 -0.13 3.72 5.19 6.29 6.43 6.16 6.10 8.19 6.88 7.02 8.27 10.74 12.61 13.76 14.94 14.97 16.40 16.73 17.86 17.43 15.85 17.48 20.19 21.43 21.00 20.02 18.82 17.60 15.94 15.10 13.88 13.31 12.23 11.89 11.16
-0.06 -1.61 -6.38 -5.55 -7.38 -6.24 -5.82 -3.70 -3.86 -5.93 -3.50 -2.48 -0.64 0.40 4.14 2.53 4.29 4.40 5.26 6.82 8.49 9.38 9.01 9.84 10.56 11.53 12.21 12.56 13.47 14.20 15.01 16.77 17.07 15.30 15.95 16.13 14.39 12.76 12.26 11.77 10.77 10.35 10.23
-2.92 -3.60 -6.42 -8.52 -8.40 -10.35 -9.27 -5.53 -3.36 -6.17 -5.66 -2.96 -1.85 -3.44 -1.46 2.14 3.17 3.72 4.04 3.81 4.82 5.63 4.19 4.79 3.78 2.93 3.49 5.89 7.90 10.48 11.71 14.17 13.33 13.26 13.82 13.07 11.22 10.83 10.85 9.84 9.45 9.12 8.50

GFSGL_sfc_wetblb_126.txt.gz
Wetbulb
56.58 59.65 60.22 60.00 58.93 58.18 58.40 59.37 60.14 60.37 59.79 59.90 59.33 59.83 59.78 59.68 58.79 57.73 57.61 56.71 53.34 55.05 49.49 50.43 49.48 43.69 42.82 40.19 38.62 37.41 36.34 36.13 32.41 31.06 32.02 32.49 31.67 31.99 33.15 33.41 33.97 32.82 32.38
53.75 54.38 56.50 57.62 55.99 57.78 59.64 60.09 59.19 58.86 57.02 59.24 59.68 59.53 59.35 58.82 57.53 56.13 55.75 53.98 53.24 52.76 50.37 48.42 47.32 43.06 40.99 39.77 38.03 37.27 36.60 34.91 33.06 29.12 29.79 30.09 30.79 32.70 32.69 31.99 32.75 33.21 31.79
43.51 44.71 46.64 48.33 50.45 52.30 53.24 54.12 54.67 55.57 57.00 55.71 57.25 57.35 55.99 55.26 54.24 53.86 54.56 52.41 51.27 51.76 49.88 46.58 46.08 42.11 40.36 38.36 37.11 35.85 35.40 34.42 32.13 30.70 29.39 30.64 31.06 31.27 30.32 30.87 31.52 30.89 30.97
42.86 43.70 43.68 43.94 44.57 46.09 48.51 49.64 50.42 50.60 52.40 51.64 51.44 50.97 50.70 51.10 50.47 49.38 48.44 49.78 49.42 48.89 47.27 45.38 43.92 41.00 40.63 37.94 35.19 34.46 33.97 32.42 30.12 29.90 28.30 28.85 29.54 29.45 28.89 29.09 28.92 27.67 26.87
42.53 42.72 42.82 42.42 42.61 42.56 42.49 43.74 45.44 45.24 45.48 45.10 44.99 44.88 44.74 45.00 43.92 43.75 43.07 44.44 43.74 42.44 39.97 39.97 40.19 38.66 37.46 38.84 35.42 34.16 33.08 31.96 30.42 27.64 28.91 28.89 28.63 28.23 28.81 29.22 28.91 26.93 27.60
42.30 42.01 41.20 40.67 39.72 39.35 38.36 38.17 38.38 40.25 41.18 41.18 40.61 41.10 41.70 41.30 42.02 41.76 42.61 42.07 40.15 38.61 37.31 36.75 36.66 34.21 36.28 37.55 37.62 36.81 35.38 32.45 31.07 30.43 28.53 28.73 29.24 29.46 29.45 28.72 28.15 25.35 23.94
39.35 37.73 37.39 37.32 37.76 37.36 36.44 36.39 36.72 36.48 36.07 36.82 37.41 37.97 38.73 39.13 40.34 40.72 39.80 40.03 38.94 38.56 36.95 34.72 33.85 34.51 34.38 35.94 37.13 36.89 36.29 36.90 35.47 32.23 30.23 29.73 29.73 30.29 30.09 28.20 27.83 26.70 24.11
36.46 35.90 35.24 35.53 35.28 34.97 34.62 34.65 34.15 33.72 34.49 34.64 35.98 36.93 36.83 36.15 39.00 39.37 38.41 37.87 36.76 36.44 35.50 34.82 34.60 33.63 34.51 34.03 34.09 33.35 32.86 33.23 33.41 32.47 31.42 30.87 30.52 31.42 31.65 29.91 28.42 25.89 24.39
34.93 34.80 34.33 33.96 30.57 31.95 29.52 29.66 32.75 32.29 33.63 34.19 33.68 33.93 33.51 34.92 37.15 38.29 37.79 34.26 33.54 33.39 33.56 33.82 34.08 33.24 34.86 36.11 33.62 32.55 32.02 31.77 35.75 35.64 34.44 34.85 34.91 34.27 31.50 27.62 24.02 21.70 19.59
34.12 33.97 33.46 32.92 28.50 27.76 29.42 27.67 27.69 32.16 32.79 32.16 32.70 32.74 32.77 33.88 35.83 37.58 37.76 32.76 33.04 32.27 31.55 32.15 32.30 33.69 35.72 36.62 33.20 32.35 30.65 31.21 30.99 29.39 31.03 33.39 34.23 33.52 33.21 30.03 26.84 21.99 15.68
31.50 30.74 29.02 28.99 26.84 27.17 26.44 26.46 26.74 31.96 31.86 32.28 31.49 31.83 32.22 32.22 33.47 36.88 38.65 32.59 32.63 31.92 31.80 30.99 31.89 35.10 35.14 36.24 34.95 32.20 32.37 31.73 31.68 28.82 29.81 29.84 29.51 30.90 32.07 29.85 28.16 25.58 19.40
27.59 28.76 29.91 30.95 30.86 31.24 22.65 28.96 32.07 32.25 32.01 31.81 31.59 31.47 31.03 31.26 32.75 34.98 37.78 38.10 34.65 32.34 31.73 31.07 31.21 34.41 34.94 35.77 34.85 33.70 34.30 31.93 30.05 29.29 28.59 28.31 28.79 29.40 30.52 30.40 28.67 28.09 28.08
29.34 29.38 29.20 30.16 30.53 31.15 24.21 32.01 31.51 31.59 30.94 30.34 29.81 30.11 30.63 30.51 31.27 34.45 36.23 37.76 37.58 32.90 31.57 31.89 33.04 34.12 35.10 35.34 35.90 35.24 31.96 30.47 29.17 28.38 27.08 27.76 28.87 29.59 28.82 27.45 27.15 27.82 27.41
28.44 27.12 23.56 24.23 27.03 26.73 24.54 24.13 22.72 26.28 25.40 28.46 29.51 29.81 29.23 28.56 30.02 30.97 32.50 33.48 33.81 34.21 32.90 31.81 32.65 32.77 33.52 33.55 31.91 34.46 32.40 31.38 29.13 28.68 27.94 28.58 27.55 27.45 27.92 28.34 27.25 26.92 25.98
25.24 26.87 27.42 23.56 20.87 21.43 22.16 21.94 23.20 21.83 23.99 21.51 23.29 24.60 25.59 25.53 24.85 30.87 29.84 31.67 32.98 33.14 31.09 30.27 30.08 29.94 29.69 31.00 30.96 31.59 32.58 31.30 30.30 30.04 28.86 28.16 27.78 27.73 27.56 27.77 27.60 26.25 24.58
24.07 22.62 22.16 22.28 21.22 21.21 20.92 22.11 30.57 32.22 33.71 34.04 33.66 28.67 22.63 31.51 34.17 34.87 35.20 34.94 35.30 35.42 31.26 29.54 29.03 29.14 28.64 29.10 29.93 30.11 31.00 31.44 31.14 30.62 30.03 29.15 28.57 27.59 27.31 26.90 26.91 25.58 24.04
23.64 22.77 23.03 26.44 26.86 26.97 26.86 26.72 20.28 22.94 29.84 31.25 31.96 32.12 32.64 32.79 33.14 33.45 34.08 35.17 35.11 34.71 32.18 30.38 29.63 29.18 29.12 28.70 28.94 29.55 29.33 30.02 31.15 30.93 29.90 29.53 29.23 28.64 26.97 26.29 25.15 25.30 24.02
27.78 27.63 27.87 28.20 27.72 23.54 17.05 15.42 14.15 19.92 21.22 15.86 24.72 29.25 30.22 31.29 32.10 32.49 33.12 31.58 26.95 30.84 30.82 31.59 31.22 30.07 29.51 29.11 28.76 28.49 29.31 29.86 29.54 29.45 29.64 29.60 29.46 28.19 26.64 25.70 24.98 24.21 23.84
25.56 25.53 26.12 26.59 26.51 25.71 25.46 15.44 13.42 18.56 19.00 11.61 9.87 21.59 19.28 28.79 30.71 30.93 30.85 26.23 28.51 28.78 29.54 30.05 30.88 31.21 31.48 29.31 29.10 28.98 28.61 28.70 28.79 29.04 29.08 29.04 28.57 27.24 26.16 25.90 25.17 23.92 23.54
23.04 24.66 21.67 16.70 13.21 13.91 13.13 12.04 11.97 17.92 15.04 8.82 12.84 17.21 21.99 20.74 20.25 19.56 20.39 18.03 26.68 27.54 28.34 28.41 29.46 29.73 29.84 30.70 29.76 29.35 29.11 29.33 28.79 29.11 28.60 28.47 27.87 26.80 25.11 24.59 23.67 22.72 21.97
7.21 7.38 13.41 12.28 8.53 8.34 5.44 4.90 5.44 5.44 8.59 9.22 11.24 11.44 23.89 10.26 8.16 8.53 19.81 20.86 21.86 23.07 22.92 23.81 25.70 27.54 27.49 27.55 29.31 29.71 29.51 29.08 29.18 28.92 28.27 27.43 26.64 24.34 24.08 24.08 23.21 22.43 21.83
4.16 2.67 5.28 2.36 2.16 6.73 3.63 2.90 3.45 5.24 5.04 5.42 6.75 7.05 18.70 4.07 4.18 4.17 4.11 5.43 8.95 11.08 14.03 18.43 19.03 20.68 22.19 21.96 22.16 22.12 23.12 25.58 27.17 26.88 25.23 24.58 23.47 22.16 21.94 21.20 20.98 20.43 19.69
5.46 3.71 1.28 -0.94 -0.63 1.43 0.06 -2.91 -1.45 -0.72 1.64 2.36 3.63 5.32 1.71 -0.72 1.46 1.64 2.72 2.98 7.34 8.59 7.37 6.92 11.51 12.64 14.46 15.82 16.30 17.23 17.55 18.50 20.57 21.73 21.76 21.20 20.27 19.51 19.65 18.94 18.76 17.73 17.18
5.95 6.10 6.39 4.63 3.18 -0.66 0.58 -3.09 -4.89 -3.26 -2.75 -2.71 -5.80 -5.07 -1.81 -1.46 0.41 2.32 1.52 3.08 3.96 4.62 6.20 4.36 7.70 7.23 8.30 8.88 10.12 11.67 12.82 13.83 15.66 16.92 17.16 18.07 18.16 17.66 17.13 16.81 16.24 15.67 15.15
3.90 4.00 3.96 3.36 1.89 -0.49 -5.07 -5.44 -6.70 -9.78 -8.51 -7.79 -6.70 -5.98 -4.18 -2.08 0.89 0.54 1.58 1.60 3.14 2.14 3.93 4.65 5.43 3.92 2.89 2.35 3.21 2.73 4.13 7.94 9.65 12.70 13.36 13.27 13.89 13.61 13.14 13.58 12.88 12.02 12.66
2.60 1.90 1.42 0.74 0.08 -0.61 -3.16 -5.45 -6.54 -6.53 -6.72 -5.45 -4.72 -4.54 -5.61 -5.98 -3.31 -2.09 -1.08 -1.91 0.34 0.90 0.31 0.94 1.23 0.17 -0.76 0.20 -0.42 4.21 6.58 11.23 11.34 10.53 11.13 11.18 9.31 6.36 7.78 9.61 9.94 10.06 8.85